<?xml version="1.0" encoding="UTF-8" standalone="no" ?>
<gpx xmlns="http://www.topografix.com/GPX/1/1" xmlns:xsi="http://www.w3.org/2001/XMLSchema-instance" xsi:schemaLocation="http://www.topografix.com/GPX/1/1 http://www.topografix.com/GPX/1/1/gpx.xsd" version="1.1" creator="VisuGPX - https://www.visugpx.com">
  <metadata>
    <name>Petit tours à Prélenfrey</name>
    <desc><![CDATA[Roulant et ludique...]]></desc>
  </metadata>
  <trk>
    <name><![CDATA[2013-04-14-01]]></name>
    <trkseg>
      <trkpt lat="45.03076" lon="5.63451">
        <ele>549.2</ele>
        <time>2013-04-14T10:11:02Z</time>
      </trkpt>
      <trkpt lat="45.03077" lon="5.63451">
        <ele>549.2</ele>
        <time>2013-04-14T10:11:03Z</time>
      </trkpt>
      <trkpt lat="45.03079" lon="5.6343">
        <ele>549.9</ele>
        <time>2013-04-14T10:13:17Z</time>
      </trkpt>
      <trkpt lat="45.03079" lon="5.63429">
        <ele>550.1</ele>
        <time>2013-04-14T10:13:18Z</time>
      </trkpt>
      <trkpt lat="45.03086" lon="5.63452">
        <ele>550.6</ele>
        <time>2013-04-14T10:14:14Z</time>
      </trkpt>
      <trkpt lat="45.03088" lon="5.63465">
        <ele>550.2</ele>
        <time>2013-04-14T10:14:48Z</time>
      </trkpt>
      <trkpt lat="45.03088" lon="5.63465">
        <ele>550.1</ele>
        <time>2013-04-14T10:14:49Z</time>
      </trkpt>
      <trkpt lat="45.03088" lon="5.63463">
        <ele>550.6</ele>
        <time>2013-04-14T10:16:59Z</time>
      </trkpt>
      <trkpt lat="45.03089" lon="5.63463">
        <ele>550.5</ele>
        <time>2013-04-14T10:17:00Z</time>
      </trkpt>
      <trkpt lat="45.03089" lon="5.63477">
        <ele>551.1</ele>
        <time>2013-04-14T10:18:42Z</time>
      </trkpt>
      <trkpt lat="45.03082" lon="5.6349">
        <ele>550.5</ele>
        <time>2013-04-14T10:18:45Z</time>
      </trkpt>
      <trkpt lat="45.03079" lon="5.63495">
        <ele>549.6</ele>
        <time>2013-04-14T10:18:46Z</time>
      </trkpt>
      <trkpt lat="45.03074" lon="5.63499">
        <ele>549</ele>
        <time>2013-04-14T10:18:47Z</time>
      </trkpt>
      <trkpt lat="45.03069" lon="5.63504">
        <ele>548.6</ele>
        <time>2013-04-14T10:18:48Z</time>
      </trkpt>
      <trkpt lat="45.03063" lon="5.63508">
        <ele>548.2</ele>
        <time>2013-04-14T10:18:49Z</time>
      </trkpt>
      <trkpt lat="45.03056" lon="5.63514">
        <ele>547.5</ele>
        <time>2013-04-14T10:18:50Z</time>
      </trkpt>
      <trkpt lat="45.0305" lon="5.63519">
        <ele>547</ele>
        <time>2013-04-14T10:18:51Z</time>
      </trkpt>
      <trkpt lat="45.03044" lon="5.63525">
        <ele>546.6</ele>
        <time>2013-04-14T10:18:52Z</time>
      </trkpt>
      <trkpt lat="45.03039" lon="5.63531">
        <ele>546.4</ele>
        <time>2013-04-14T10:18:53Z</time>
      </trkpt>
      <trkpt lat="45.03034" lon="5.63537">
        <ele>546.2</ele>
        <time>2013-04-14T10:18:54Z</time>
      </trkpt>
      <trkpt lat="45.0303" lon="5.63544">
        <ele>546.1</ele>
        <time>2013-04-14T10:18:55Z</time>
      </trkpt>
      <trkpt lat="45.03025" lon="5.63552">
        <ele>545.7</ele>
        <time>2013-04-14T10:18:56Z</time>
      </trkpt>
      <trkpt lat="45.0302" lon="5.6356">
        <ele>545.5</ele>
        <time>2013-04-14T10:18:57Z</time>
      </trkpt>
      <trkpt lat="45.03015" lon="5.6357">
        <ele>545.3</ele>
        <time>2013-04-14T10:18:58Z</time>
      </trkpt>
      <trkpt lat="45.0301" lon="5.63581">
        <ele>544.7</ele>
        <time>2013-04-14T10:18:59Z</time>
      </trkpt>
      <trkpt lat="45.03004" lon="5.63592">
        <ele>544.3</ele>
        <time>2013-04-14T10:19:00Z</time>
      </trkpt>
      <trkpt lat="45.02999" lon="5.63602">
        <ele>544</ele>
        <time>2013-04-14T10:19:01Z</time>
      </trkpt>
      <trkpt lat="45.02993" lon="5.63612">
        <ele>543.6</ele>
        <time>2013-04-14T10:19:02Z</time>
      </trkpt>
      <trkpt lat="45.02988" lon="5.63621">
        <ele>543.2</ele>
        <time>2013-04-14T10:19:03Z</time>
      </trkpt>
      <trkpt lat="45.02983" lon="5.6363">
        <ele>543</ele>
        <time>2013-04-14T10:19:04Z</time>
      </trkpt>
      <trkpt lat="45.02977" lon="5.6364">
        <ele>542.8</ele>
        <time>2013-04-14T10:19:05Z</time>
      </trkpt>
      <trkpt lat="45.02971" lon="5.63648">
        <ele>541.8</ele>
        <time>2013-04-14T10:19:06Z</time>
      </trkpt>
      <trkpt lat="45.02964" lon="5.63657">
        <ele>541</ele>
        <time>2013-04-14T10:19:07Z</time>
      </trkpt>
      <trkpt lat="45.02956" lon="5.63662">
        <ele>540.4</ele>
        <time>2013-04-14T10:19:08Z</time>
      </trkpt>
      <trkpt lat="45.02947" lon="5.63666">
        <ele>539.8</ele>
        <time>2013-04-14T10:19:09Z</time>
      </trkpt>
      <trkpt lat="45.02939" lon="5.63665">
        <ele>539.3</ele>
        <time>2013-04-14T10:19:10Z</time>
      </trkpt>
      <trkpt lat="45.0293" lon="5.63665">
        <ele>539</ele>
        <time>2013-04-14T10:19:11Z</time>
      </trkpt>
      <trkpt lat="45.02921" lon="5.63666">
        <ele>538.3</ele>
        <time>2013-04-14T10:19:12Z</time>
      </trkpt>
      <trkpt lat="45.02912" lon="5.63668">
        <ele>537.8</ele>
        <time>2013-04-14T10:19:13Z</time>
      </trkpt>
      <trkpt lat="45.02904" lon="5.63673">
        <ele>537.4</ele>
        <time>2013-04-14T10:19:14Z</time>
      </trkpt>
      <trkpt lat="45.02895" lon="5.63679">
        <ele>536.5</ele>
        <time>2013-04-14T10:19:15Z</time>
      </trkpt>
      <trkpt lat="45.02889" lon="5.63687">
        <ele>535.9</ele>
        <time>2013-04-14T10:19:16Z</time>
      </trkpt>
      <trkpt lat="45.02883" lon="5.63695">
        <ele>535.4</ele>
        <time>2013-04-14T10:19:17Z</time>
      </trkpt>
      <trkpt lat="45.02876" lon="5.637">
        <ele>534.8</ele>
        <time>2013-04-14T10:19:18Z</time>
      </trkpt>
      <trkpt lat="45.02869" lon="5.63702">
        <ele>534.3</ele>
        <time>2013-04-14T10:19:19Z</time>
      </trkpt>
      <trkpt lat="45.02862" lon="5.63703">
        <ele>534</ele>
        <time>2013-04-14T10:19:20Z</time>
      </trkpt>
      <trkpt lat="45.02855" lon="5.63702">
        <ele>533.7</ele>
        <time>2013-04-14T10:19:21Z</time>
      </trkpt>
      <trkpt lat="45.02847" lon="5.63699">
        <ele>533.3</ele>
        <time>2013-04-14T10:19:22Z</time>
      </trkpt>
      <trkpt lat="45.02839" lon="5.63696">
        <ele>532.9</ele>
        <time>2013-04-14T10:19:23Z</time>
      </trkpt>
      <trkpt lat="45.02831" lon="5.63694">
        <ele>532.7</ele>
        <time>2013-04-14T10:19:24Z</time>
      </trkpt>
      <trkpt lat="45.02823" lon="5.63691">
        <ele>531.5</ele>
        <time>2013-04-14T10:19:25Z</time>
      </trkpt>
      <trkpt lat="45.02815" lon="5.63689">
        <ele>530.7</ele>
        <time>2013-04-14T10:19:26Z</time>
      </trkpt>
      <trkpt lat="45.02807" lon="5.63687">
        <ele>530</ele>
        <time>2013-04-14T10:19:27Z</time>
      </trkpt>
      <trkpt lat="45.028" lon="5.63687">
        <ele>529.4</ele>
        <time>2013-04-14T10:19:28Z</time>
      </trkpt>
      <trkpt lat="45.02792" lon="5.63688">
        <ele>528.9</ele>
        <time>2013-04-14T10:19:29Z</time>
      </trkpt>
      <trkpt lat="45.02785" lon="5.63689">
        <ele>528.6</ele>
        <time>2013-04-14T10:19:30Z</time>
      </trkpt>
      <trkpt lat="45.02778" lon="5.63689">
        <ele>527.8</ele>
        <time>2013-04-14T10:19:31Z</time>
      </trkpt>
      <trkpt lat="45.02772" lon="5.63689">
        <ele>527.2</ele>
        <time>2013-04-14T10:19:32Z</time>
      </trkpt>
      <trkpt lat="45.02763" lon="5.63687">
        <ele>526.6</ele>
        <time>2013-04-14T10:19:34Z</time>
      </trkpt>
      <trkpt lat="45.02755" lon="5.63689">
        <ele>526.1</ele>
        <time>2013-04-14T10:19:39Z</time>
      </trkpt>
      <trkpt lat="45.02747" lon="5.63692">
        <ele>526.6</ele>
        <time>2013-04-14T10:19:43Z</time>
      </trkpt>
      <trkpt lat="45.02743" lon="5.63692">
        <ele>526.2</ele>
        <time>2013-04-14T10:19:44Z</time>
      </trkpt>
      <trkpt lat="45.02735" lon="5.6369">
        <ele>525.7</ele>
        <time>2013-04-14T10:19:46Z</time>
      </trkpt>
      <trkpt lat="45.02729" lon="5.63689">
        <ele>525.4</ele>
        <time>2013-04-14T10:19:47Z</time>
      </trkpt>
      <trkpt lat="45.02722" lon="5.63688">
        <ele>525.2</ele>
        <time>2013-04-14T10:19:48Z</time>
      </trkpt>
      <trkpt lat="45.02715" lon="5.63688">
        <ele>525.1</ele>
        <time>2013-04-14T10:19:49Z</time>
      </trkpt>
      <trkpt lat="45.02707" lon="5.63689">
        <ele>524.6</ele>
        <time>2013-04-14T10:19:50Z</time>
      </trkpt>
      <trkpt lat="45.02699" lon="5.6369">
        <ele>524.2</ele>
        <time>2013-04-14T10:19:51Z</time>
      </trkpt>
      <trkpt lat="45.02692" lon="5.63691">
        <ele>523.9</ele>
        <time>2013-04-14T10:19:52Z</time>
      </trkpt>
      <trkpt lat="45.02685" lon="5.63695">
        <ele>522.6</ele>
        <time>2013-04-14T10:19:53Z</time>
      </trkpt>
      <trkpt lat="45.02679" lon="5.637">
        <ele>521.7</ele>
        <time>2013-04-14T10:19:54Z</time>
      </trkpt>
      <trkpt lat="45.02674" lon="5.63705">
        <ele>520.9</ele>
        <time>2013-04-14T10:19:55Z</time>
      </trkpt>
      <trkpt lat="45.02668" lon="5.63711">
        <ele>520.4</ele>
        <time>2013-04-14T10:19:56Z</time>
      </trkpt>
      <trkpt lat="45.02661" lon="5.63715">
        <ele>520.1</ele>
        <time>2013-04-14T10:19:57Z</time>
      </trkpt>
      <trkpt lat="45.02654" lon="5.63716">
        <ele>519.8</ele>
        <time>2013-04-14T10:19:58Z</time>
      </trkpt>
      <trkpt lat="45.02647" lon="5.63716">
        <ele>519.6</ele>
        <time>2013-04-14T10:19:59Z</time>
      </trkpt>
      <trkpt lat="45.02641" lon="5.63714">
        <ele>518.5</ele>
        <time>2013-04-14T10:20:00Z</time>
      </trkpt>
      <trkpt lat="45.02635" lon="5.63713">
        <ele>517.7</ele>
        <time>2013-04-14T10:20:01Z</time>
      </trkpt>
      <trkpt lat="45.0263" lon="5.63711">
        <ele>517.1</ele>
        <time>2013-04-14T10:20:02Z</time>
      </trkpt>
      <trkpt lat="45.02625" lon="5.63708">
        <ele>516.4</ele>
        <time>2013-04-14T10:20:03Z</time>
      </trkpt>
      <trkpt lat="45.0262" lon="5.63706">
        <ele>515.9</ele>
        <time>2013-04-14T10:20:04Z</time>
      </trkpt>
      <trkpt lat="45.02615" lon="5.63703">
        <ele>515.5</ele>
        <time>2013-04-14T10:20:05Z</time>
      </trkpt>
      <trkpt lat="45.02609" lon="5.63702">
        <ele>514.8</ele>
        <time>2013-04-14T10:20:06Z</time>
      </trkpt>
      <trkpt lat="45.02602" lon="5.63701">
        <ele>514.2</ele>
        <time>2013-04-14T10:20:07Z</time>
      </trkpt>
      <trkpt lat="45.02595" lon="5.63702">
        <ele>513.8</ele>
        <time>2013-04-14T10:20:08Z</time>
      </trkpt>
      <trkpt lat="45.02587" lon="5.63703">
        <ele>513.3</ele>
        <time>2013-04-14T10:20:09Z</time>
      </trkpt>
      <trkpt lat="45.02579" lon="5.63704">
        <ele>512.9</ele>
        <time>2013-04-14T10:20:10Z</time>
      </trkpt>
      <trkpt lat="45.0257" lon="5.63705">
        <ele>512.6</ele>
        <time>2013-04-14T10:20:11Z</time>
      </trkpt>
      <trkpt lat="45.02561" lon="5.63707">
        <ele>512.4</ele>
        <time>2013-04-14T10:20:12Z</time>
      </trkpt>
      <trkpt lat="45.02552" lon="5.63708">
        <ele>510.9</ele>
        <time>2013-04-14T10:20:13Z</time>
      </trkpt>
      <trkpt lat="45.02544" lon="5.6371">
        <ele>509.8</ele>
        <time>2013-04-14T10:20:14Z</time>
      </trkpt>
      <trkpt lat="45.02536" lon="5.63712">
        <ele>509</ele>
        <time>2013-04-14T10:20:15Z</time>
      </trkpt>
      <trkpt lat="45.02528" lon="5.63712">
        <ele>507.9</ele>
        <time>2013-04-14T10:20:16Z</time>
      </trkpt>
      <trkpt lat="45.0252" lon="5.63711">
        <ele>507.1</ele>
        <time>2013-04-14T10:20:17Z</time>
      </trkpt>
      <trkpt lat="45.02511" lon="5.63709">
        <ele>506.6</ele>
        <time>2013-04-14T10:20:18Z</time>
      </trkpt>
      <trkpt lat="45.02502" lon="5.63705">
        <ele>505.8</ele>
        <time>2013-04-14T10:20:19Z</time>
      </trkpt>
      <trkpt lat="45.02493" lon="5.63701">
        <ele>505.2</ele>
        <time>2013-04-14T10:20:20Z</time>
      </trkpt>
      <trkpt lat="45.02483" lon="5.63698">
        <ele>504.8</ele>
        <time>2013-04-14T10:20:21Z</time>
      </trkpt>
      <trkpt lat="45.02474" lon="5.63696">
        <ele>503.7</ele>
        <time>2013-04-14T10:20:22Z</time>
      </trkpt>
      <trkpt lat="45.02465" lon="5.63695">
        <ele>502.8</ele>
        <time>2013-04-14T10:20:23Z</time>
      </trkpt>
      <trkpt lat="45.02456" lon="5.63695">
        <ele>502.2</ele>
        <time>2013-04-14T10:20:24Z</time>
      </trkpt>
      <trkpt lat="45.02447" lon="5.63697">
        <ele>500.8</ele>
        <time>2013-04-14T10:20:25Z</time>
      </trkpt>
      <trkpt lat="45.02438" lon="5.63699">
        <ele>499.7</ele>
        <time>2013-04-14T10:20:26Z</time>
      </trkpt>
      <trkpt lat="45.02428" lon="5.637">
        <ele>498.9</ele>
        <time>2013-04-14T10:20:27Z</time>
      </trkpt>
      <trkpt lat="45.02419" lon="5.637">
        <ele>498.4</ele>
        <time>2013-04-14T10:20:28Z</time>
      </trkpt>
      <trkpt lat="45.02409" lon="5.63699">
        <ele>497.6</ele>
        <time>2013-04-14T10:20:29Z</time>
      </trkpt>
      <trkpt lat="45.02399" lon="5.63699">
        <ele>497.1</ele>
        <time>2013-04-14T10:20:30Z</time>
      </trkpt>
      <trkpt lat="45.02389" lon="5.63698">
        <ele>496.7</ele>
        <time>2013-04-14T10:20:31Z</time>
      </trkpt>
      <trkpt lat="45.02379" lon="5.63697">
        <ele>495.6</ele>
        <time>2013-04-14T10:20:32Z</time>
      </trkpt>
      <trkpt lat="45.0237" lon="5.63697">
        <ele>494.9</ele>
        <time>2013-04-14T10:20:33Z</time>
      </trkpt>
      <trkpt lat="45.02361" lon="5.63696">
        <ele>494.3</ele>
        <time>2013-04-14T10:20:34Z</time>
      </trkpt>
      <trkpt lat="45.02352" lon="5.63697">
        <ele>493.4</ele>
        <time>2013-04-14T10:20:35Z</time>
      </trkpt>
      <trkpt lat="45.02345" lon="5.63699">
        <ele>492.7</ele>
        <time>2013-04-14T10:20:36Z</time>
      </trkpt>
      <trkpt lat="45.02339" lon="5.63703">
        <ele>492.2</ele>
        <time>2013-04-14T10:20:37Z</time>
      </trkpt>
      <trkpt lat="45.02335" lon="5.63707">
        <ele>491.1</ele>
        <time>2013-04-14T10:20:38Z</time>
      </trkpt>
      <trkpt lat="45.02327" lon="5.63707">
        <ele>489.6</ele>
        <time>2013-04-14T10:20:40Z</time>
      </trkpt>
      <trkpt lat="45.0232" lon="5.63702">
        <ele>488</ele>
        <time>2013-04-14T10:20:42Z</time>
      </trkpt>
      <trkpt lat="45.02315" lon="5.63696">
        <ele>487.2</ele>
        <time>2013-04-14T10:20:44Z</time>
      </trkpt>
      <trkpt lat="45.02313" lon="5.63693">
        <ele>486.7</ele>
        <time>2013-04-14T10:20:45Z</time>
      </trkpt>
      <trkpt lat="45.02305" lon="5.63685">
        <ele>486.3</ele>
        <time>2013-04-14T10:20:48Z</time>
      </trkpt>
      <trkpt lat="45.023" lon="5.63679">
        <ele>486.6</ele>
        <time>2013-04-14T10:20:50Z</time>
      </trkpt>
      <trkpt lat="45.02293" lon="5.63672">
        <ele>487.3</ele>
        <time>2013-04-14T10:20:53Z</time>
      </trkpt>
      <trkpt lat="45.02287" lon="5.63665">
        <ele>488.2</ele>
        <time>2013-04-14T10:20:56Z</time>
      </trkpt>
      <trkpt lat="45.02281" lon="5.63658">
        <ele>488.4</ele>
        <time>2013-04-14T10:20:59Z</time>
      </trkpt>
      <trkpt lat="45.02275" lon="5.63652">
        <ele>488.5</ele>
        <time>2013-04-14T10:21:02Z</time>
      </trkpt>
      <trkpt lat="45.02268" lon="5.63643">
        <ele>488.9</ele>
        <time>2013-04-14T10:21:05Z</time>
      </trkpt>
      <trkpt lat="45.02263" lon="5.63637">
        <ele>489.1</ele>
        <time>2013-04-14T10:21:07Z</time>
      </trkpt>
      <trkpt lat="45.02259" lon="5.63631">
        <ele>489.1</ele>
        <time>2013-04-14T10:21:09Z</time>
      </trkpt>
      <trkpt lat="45.02254" lon="5.63625">
        <ele>489.6</ele>
        <time>2013-04-14T10:21:11Z</time>
      </trkpt>
      <trkpt lat="45.02249" lon="5.63619">
        <ele>490.3</ele>
        <time>2013-04-14T10:21:13Z</time>
      </trkpt>
      <trkpt lat="45.02245" lon="5.63612">
        <ele>491</ele>
        <time>2013-04-14T10:21:15Z</time>
      </trkpt>
      <trkpt lat="45.0224" lon="5.63606">
        <ele>491.5</ele>
        <time>2013-04-14T10:21:17Z</time>
      </trkpt>
      <trkpt lat="45.02235" lon="5.63596">
        <ele>491.9</ele>
        <time>2013-04-14T10:21:20Z</time>
      </trkpt>
      <trkpt lat="45.02229" lon="5.63586">
        <ele>492.7</ele>
        <time>2013-04-14T10:21:23Z</time>
      </trkpt>
      <trkpt lat="45.02225" lon="5.63576">
        <ele>494</ele>
        <time>2013-04-14T10:21:26Z</time>
      </trkpt>
      <trkpt lat="45.02221" lon="5.63566">
        <ele>494.6</ele>
        <time>2013-04-14T10:21:29Z</time>
      </trkpt>
      <trkpt lat="45.02217" lon="5.63558">
        <ele>496.2</ele>
        <time>2013-04-14T10:21:44Z</time>
      </trkpt>
      <trkpt lat="45.02214" lon="5.63549">
        <ele>496.4</ele>
        <time>2013-04-14T10:21:47Z</time>
      </trkpt>
      <trkpt lat="45.02213" lon="5.63546">
        <ele>496.6</ele>
        <time>2013-04-14T10:21:48Z</time>
      </trkpt>
      <trkpt lat="45.02208" lon="5.63531">
        <ele>497.6</ele>
        <time>2013-04-14T10:21:53Z</time>
      </trkpt>
      <trkpt lat="45.02205" lon="5.63523">
        <ele>498.8</ele>
        <time>2013-04-14T10:21:56Z</time>
      </trkpt>
      <trkpt lat="45.02201" lon="5.63512">
        <ele>499.2</ele>
        <time>2013-04-14T10:21:59Z</time>
      </trkpt>
      <trkpt lat="45.02199" lon="5.63505">
        <ele>499.6</ele>
        <time>2013-04-14T10:22:01Z</time>
      </trkpt>
      <trkpt lat="45.02196" lon="5.63496">
        <ele>500.1</ele>
        <time>2013-04-14T10:22:03Z</time>
      </trkpt>
      <trkpt lat="45.02192" lon="5.63489">
        <ele>500.5</ele>
        <time>2013-04-14T10:22:05Z</time>
      </trkpt>
      <trkpt lat="45.02185" lon="5.6348">
        <ele>501.5</ele>
        <time>2013-04-14T10:22:21Z</time>
      </trkpt>
      <trkpt lat="45.0218" lon="5.63476">
        <ele>501.4</ele>
        <time>2013-04-14T10:22:23Z</time>
      </trkpt>
      <trkpt lat="45.02174" lon="5.63472">
        <ele>501.5</ele>
        <time>2013-04-14T10:22:25Z</time>
      </trkpt>
      <trkpt lat="45.02166" lon="5.63468">
        <ele>501.9</ele>
        <time>2013-04-14T10:22:27Z</time>
      </trkpt>
      <trkpt lat="45.02158" lon="5.63467">
        <ele>502.3</ele>
        <time>2013-04-14T10:22:29Z</time>
      </trkpt>
      <trkpt lat="45.0215" lon="5.63468">
        <ele>502.5</ele>
        <time>2013-04-14T10:22:31Z</time>
      </trkpt>
      <trkpt lat="45.02143" lon="5.6347">
        <ele>502.8</ele>
        <time>2013-04-14T10:22:33Z</time>
      </trkpt>
      <trkpt lat="45.02135" lon="5.63471">
        <ele>503.2</ele>
        <time>2013-04-14T10:22:35Z</time>
      </trkpt>
      <trkpt lat="45.02128" lon="5.63471">
        <ele>503.7</ele>
        <time>2013-04-14T10:22:37Z</time>
      </trkpt>
      <trkpt lat="45.0212" lon="5.6347">
        <ele>504.1</ele>
        <time>2013-04-14T10:22:39Z</time>
      </trkpt>
      <trkpt lat="45.02113" lon="5.63467">
        <ele>505</ele>
        <time>2013-04-14T10:22:41Z</time>
      </trkpt>
      <trkpt lat="45.02105" lon="5.63463">
        <ele>505.1</ele>
        <time>2013-04-14T10:22:43Z</time>
      </trkpt>
      <trkpt lat="45.02097" lon="5.63462">
        <ele>505</ele>
        <time>2013-04-14T10:22:45Z</time>
      </trkpt>
      <trkpt lat="45.02089" lon="5.63463">
        <ele>505.4</ele>
        <time>2013-04-14T10:22:47Z</time>
      </trkpt>
      <trkpt lat="45.0208" lon="5.63464">
        <ele>505.4</ele>
        <time>2013-04-14T10:22:49Z</time>
      </trkpt>
      <trkpt lat="45.02076" lon="5.63465">
        <ele>505.3</ele>
        <time>2013-04-14T10:22:50Z</time>
      </trkpt>
      <trkpt lat="45.02063" lon="5.63466">
        <ele>505.1</ele>
        <time>2013-04-14T10:22:53Z</time>
      </trkpt>
      <trkpt lat="45.02054" lon="5.63467">
        <ele>505</ele>
        <time>2013-04-14T10:22:55Z</time>
      </trkpt>
      <trkpt lat="45.02049" lon="5.63467">
        <ele>506</ele>
        <time>2013-04-14T10:22:56Z</time>
      </trkpt>
      <trkpt lat="45.02045" lon="5.63468">
        <ele>506.7</ele>
        <time>2013-04-14T10:22:57Z</time>
      </trkpt>
      <trkpt lat="45.02039" lon="5.63469">
        <ele>507.2</ele>
        <time>2013-04-14T10:22:58Z</time>
      </trkpt>
      <trkpt lat="45.02034" lon="5.6347">
        <ele>506.7</ele>
        <time>2013-04-14T10:22:59Z</time>
      </trkpt>
      <trkpt lat="45.02028" lon="5.63472">
        <ele>506.4</ele>
        <time>2013-04-14T10:23:00Z</time>
      </trkpt>
      <trkpt lat="45.02021" lon="5.63474">
        <ele>506.1</ele>
        <time>2013-04-14T10:23:01Z</time>
      </trkpt>
      <trkpt lat="45.02015" lon="5.63477">
        <ele>505.5</ele>
        <time>2013-04-14T10:23:02Z</time>
      </trkpt>
      <trkpt lat="45.02008" lon="5.6348">
        <ele>505</ele>
        <time>2013-04-14T10:23:03Z</time>
      </trkpt>
      <trkpt lat="45.02002" lon="5.63484">
        <ele>504.7</ele>
        <time>2013-04-14T10:23:04Z</time>
      </trkpt>
      <trkpt lat="45.01995" lon="5.63488">
        <ele>504.3</ele>
        <time>2013-04-14T10:23:05Z</time>
      </trkpt>
      <trkpt lat="45.01988" lon="5.63492">
        <ele>504.1</ele>
        <time>2013-04-14T10:23:06Z</time>
      </trkpt>
      <trkpt lat="45.01981" lon="5.63495">
        <ele>503.9</ele>
        <time>2013-04-14T10:23:07Z</time>
      </trkpt>
      <trkpt lat="45.01973" lon="5.63498">
        <ele>503.4</ele>
        <time>2013-04-14T10:23:08Z</time>
      </trkpt>
      <trkpt lat="45.01966" lon="5.63502">
        <ele>503.1</ele>
        <time>2013-04-14T10:23:09Z</time>
      </trkpt>
      <trkpt lat="45.01958" lon="5.63505">
        <ele>502.8</ele>
        <time>2013-04-14T10:23:10Z</time>
      </trkpt>
      <trkpt lat="45.0195" lon="5.63508">
        <ele>502.7</ele>
        <time>2013-04-14T10:23:11Z</time>
      </trkpt>
      <trkpt lat="45.01942" lon="5.63512">
        <ele>502.6</ele>
        <time>2013-04-14T10:23:12Z</time>
      </trkpt>
      <trkpt lat="45.01935" lon="5.63515">
        <ele>502.6</ele>
        <time>2013-04-14T10:23:13Z</time>
      </trkpt>
      <trkpt lat="45.01927" lon="5.63518">
        <ele>502.5</ele>
        <time>2013-04-14T10:23:14Z</time>
      </trkpt>
      <trkpt lat="45.01918" lon="5.63522">
        <ele>501.9</ele>
        <time>2013-04-14T10:23:15Z</time>
      </trkpt>
      <trkpt lat="45.0191" lon="5.63525">
        <ele>501.5</ele>
        <time>2013-04-14T10:23:16Z</time>
      </trkpt>
      <trkpt lat="45.01901" lon="5.63527">
        <ele>501.2</ele>
        <time>2013-04-14T10:23:17Z</time>
      </trkpt>
      <trkpt lat="45.01893" lon="5.6353">
        <ele>500.6</ele>
        <time>2013-04-14T10:23:18Z</time>
      </trkpt>
      <trkpt lat="45.01884" lon="5.63531">
        <ele>500.2</ele>
        <time>2013-04-14T10:23:19Z</time>
      </trkpt>
      <trkpt lat="45.01876" lon="5.63532">
        <ele>499.9</ele>
        <time>2013-04-14T10:23:20Z</time>
      </trkpt>
      <trkpt lat="45.01868" lon="5.63534">
        <ele>499.5</ele>
        <time>2013-04-14T10:23:21Z</time>
      </trkpt>
      <trkpt lat="45.0186" lon="5.63536">
        <ele>499.1</ele>
        <time>2013-04-14T10:23:22Z</time>
      </trkpt>
      <trkpt lat="45.01852" lon="5.63538">
        <ele>498.8</ele>
        <time>2013-04-14T10:23:23Z</time>
      </trkpt>
      <trkpt lat="45.01845" lon="5.6354">
        <ele>498.5</ele>
        <time>2013-04-14T10:23:24Z</time>
      </trkpt>
      <trkpt lat="45.01838" lon="5.63542">
        <ele>498.2</ele>
        <time>2013-04-14T10:23:25Z</time>
      </trkpt>
      <trkpt lat="45.0183" lon="5.63544">
        <ele>498</ele>
        <time>2013-04-14T10:23:26Z</time>
      </trkpt>
      <trkpt lat="45.01823" lon="5.63545">
        <ele>497.5</ele>
        <time>2013-04-14T10:23:27Z</time>
      </trkpt>
      <trkpt lat="45.01816" lon="5.63546">
        <ele>497.2</ele>
        <time>2013-04-14T10:23:28Z</time>
      </trkpt>
      <trkpt lat="45.01809" lon="5.63546">
        <ele>496.9</ele>
        <time>2013-04-14T10:23:29Z</time>
      </trkpt>
      <trkpt lat="45.01801" lon="5.63545">
        <ele>496.7</ele>
        <time>2013-04-14T10:23:30Z</time>
      </trkpt>
      <trkpt lat="45.01794" lon="5.63544">
        <ele>496.9</ele>
        <time>2013-04-14T10:23:31Z</time>
      </trkpt>
      <trkpt lat="45.01787" lon="5.63542">
        <ele>497</ele>
        <time>2013-04-14T10:23:32Z</time>
      </trkpt>
      <trkpt lat="45.0178" lon="5.6354">
        <ele>497.1</ele>
        <time>2013-04-14T10:23:33Z</time>
      </trkpt>
      <trkpt lat="45.01773" lon="5.63538">
        <ele>497</ele>
        <time>2013-04-14T10:23:34Z</time>
      </trkpt>
      <trkpt lat="45.01766" lon="5.63536">
        <ele>497</ele>
        <time>2013-04-14T10:23:35Z</time>
      </trkpt>
      <trkpt lat="45.01759" lon="5.63535">
        <ele>497</ele>
        <time>2013-04-14T10:23:36Z</time>
      </trkpt>
      <trkpt lat="45.01752" lon="5.63534">
        <ele>496.4</ele>
        <time>2013-04-14T10:23:37Z</time>
      </trkpt>
      <trkpt lat="45.01745" lon="5.63532">
        <ele>495.9</ele>
        <time>2013-04-14T10:23:38Z</time>
      </trkpt>
      <trkpt lat="45.01738" lon="5.6353">
        <ele>495.6</ele>
        <time>2013-04-14T10:23:39Z</time>
      </trkpt>
      <trkpt lat="45.0173" lon="5.63527">
        <ele>495.9</ele>
        <time>2013-04-14T10:23:40Z</time>
      </trkpt>
      <trkpt lat="45.01723" lon="5.63525">
        <ele>496.2</ele>
        <time>2013-04-14T10:23:41Z</time>
      </trkpt>
      <trkpt lat="45.01716" lon="5.63522">
        <ele>496.4</ele>
        <time>2013-04-14T10:23:42Z</time>
      </trkpt>
      <trkpt lat="45.01709" lon="5.63519">
        <ele>496.9</ele>
        <time>2013-04-14T10:23:43Z</time>
      </trkpt>
      <trkpt lat="45.01702" lon="5.63515">
        <ele>497.3</ele>
        <time>2013-04-14T10:23:44Z</time>
      </trkpt>
      <trkpt lat="45.01694" lon="5.63512">
        <ele>497.5</ele>
        <time>2013-04-14T10:23:45Z</time>
      </trkpt>
      <trkpt lat="45.01687" lon="5.63509">
        <ele>497.8</ele>
        <time>2013-04-14T10:23:46Z</time>
      </trkpt>
      <trkpt lat="45.01679" lon="5.63506">
        <ele>498</ele>
        <time>2013-04-14T10:23:47Z</time>
      </trkpt>
      <trkpt lat="45.01671" lon="5.63503">
        <ele>498.1</ele>
        <time>2013-04-14T10:23:48Z</time>
      </trkpt>
      <trkpt lat="45.01664" lon="5.635">
        <ele>498.2</ele>
        <time>2013-04-14T10:23:49Z</time>
      </trkpt>
      <trkpt lat="45.01656" lon="5.63498">
        <ele>498.5</ele>
        <time>2013-04-14T10:23:50Z</time>
      </trkpt>
      <trkpt lat="45.01648" lon="5.63497">
        <ele>498.6</ele>
        <time>2013-04-14T10:23:51Z</time>
      </trkpt>
      <trkpt lat="45.01639" lon="5.63497">
        <ele>498.8</ele>
        <time>2013-04-14T10:23:52Z</time>
      </trkpt>
      <trkpt lat="45.0163" lon="5.63497">
        <ele>498.3</ele>
        <time>2013-04-14T10:23:53Z</time>
      </trkpt>
      <trkpt lat="45.01621" lon="5.63496">
        <ele>497.9</ele>
        <time>2013-04-14T10:23:54Z</time>
      </trkpt>
      <trkpt lat="45.01612" lon="5.63496">
        <ele>497.7</ele>
        <time>2013-04-14T10:23:55Z</time>
      </trkpt>
      <trkpt lat="45.01603" lon="5.63496">
        <ele>497.2</ele>
        <time>2013-04-14T10:23:56Z</time>
      </trkpt>
      <trkpt lat="45.01594" lon="5.63496">
        <ele>496.9</ele>
        <time>2013-04-14T10:23:57Z</time>
      </trkpt>
      <trkpt lat="45.01585" lon="5.63496">
        <ele>496.7</ele>
        <time>2013-04-14T10:23:58Z</time>
      </trkpt>
      <trkpt lat="45.01577" lon="5.63495">
        <ele>496.5</ele>
        <time>2013-04-14T10:23:59Z</time>
      </trkpt>
      <trkpt lat="45.01568" lon="5.63495">
        <ele>496.3</ele>
        <time>2013-04-14T10:24:00Z</time>
      </trkpt>
      <trkpt lat="45.0156" lon="5.63495">
        <ele>496.2</ele>
        <time>2013-04-14T10:24:01Z</time>
      </trkpt>
      <trkpt lat="45.01552" lon="5.63495">
        <ele>496.2</ele>
        <time>2013-04-14T10:24:02Z</time>
      </trkpt>
      <trkpt lat="45.01544" lon="5.63494">
        <ele>496</ele>
        <time>2013-04-14T10:24:03Z</time>
      </trkpt>
      <trkpt lat="45.01536" lon="5.63493">
        <ele>495.8</ele>
        <time>2013-04-14T10:24:04Z</time>
      </trkpt>
      <trkpt lat="45.01528" lon="5.63492">
        <ele>495.7</ele>
        <time>2013-04-14T10:24:05Z</time>
      </trkpt>
      <trkpt lat="45.0152" lon="5.6349">
        <ele>495.8</ele>
        <time>2013-04-14T10:24:06Z</time>
      </trkpt>
      <trkpt lat="45.01513" lon="5.63489">
        <ele>495.9</ele>
        <time>2013-04-14T10:24:07Z</time>
      </trkpt>
      <trkpt lat="45.01505" lon="5.63488">
        <ele>495.9</ele>
        <time>2013-04-14T10:24:08Z</time>
      </trkpt>
      <trkpt lat="45.01497" lon="5.63487">
        <ele>495.5</ele>
        <time>2013-04-14T10:24:09Z</time>
      </trkpt>
      <trkpt lat="45.01489" lon="5.63486">
        <ele>495.2</ele>
        <time>2013-04-14T10:24:10Z</time>
      </trkpt>
      <trkpt lat="45.01481" lon="5.63485">
        <ele>495</ele>
        <time>2013-04-14T10:24:11Z</time>
      </trkpt>
      <trkpt lat="45.01474" lon="5.63483">
        <ele>495.1</ele>
        <time>2013-04-14T10:24:12Z</time>
      </trkpt>
      <trkpt lat="45.01467" lon="5.6348">
        <ele>495.2</ele>
        <time>2013-04-14T10:24:13Z</time>
      </trkpt>
      <trkpt lat="45.01462" lon="5.63475">
        <ele>495.3</ele>
        <time>2013-04-14T10:24:14Z</time>
      </trkpt>
      <trkpt lat="45.01458" lon="5.63467">
        <ele>494.4</ele>
        <time>2013-04-14T10:24:15Z</time>
      </trkpt>
      <trkpt lat="45.01456" lon="5.63457">
        <ele>493.7</ele>
        <time>2013-04-14T10:24:16Z</time>
      </trkpt>
      <trkpt lat="45.01455" lon="5.63447">
        <ele>493.2</ele>
        <time>2013-04-14T10:24:17Z</time>
      </trkpt>
      <trkpt lat="45.01454" lon="5.63437">
        <ele>492.7</ele>
        <time>2013-04-14T10:24:18Z</time>
      </trkpt>
      <trkpt lat="45.01453" lon="5.63427">
        <ele>492.3</ele>
        <time>2013-04-14T10:24:19Z</time>
      </trkpt>
      <trkpt lat="45.01451" lon="5.63418">
        <ele>492.1</ele>
        <time>2013-04-14T10:24:20Z</time>
      </trkpt>
      <trkpt lat="45.01449" lon="5.6341">
        <ele>491.9</ele>
        <time>2013-04-14T10:24:21Z</time>
      </trkpt>
      <trkpt lat="45.01446" lon="5.63403">
        <ele>491.6</ele>
        <time>2013-04-14T10:24:22Z</time>
      </trkpt>
      <trkpt lat="45.01439" lon="5.63396">
        <ele>491.3</ele>
        <time>2013-04-14T10:24:24Z</time>
      </trkpt>
      <trkpt lat="45.01431" lon="5.63393">
        <ele>491.8</ele>
        <time>2013-04-14T10:24:26Z</time>
      </trkpt>
      <trkpt lat="45.01423" lon="5.6339">
        <ele>492.5</ele>
        <time>2013-04-14T10:24:28Z</time>
      </trkpt>
      <trkpt lat="45.01414" lon="5.63387">
        <ele>493.1</ele>
        <time>2013-04-14T10:24:30Z</time>
      </trkpt>
      <trkpt lat="45.01406" lon="5.63386">
        <ele>494.4</ele>
        <time>2013-04-14T10:24:32Z</time>
      </trkpt>
      <trkpt lat="45.01398" lon="5.63386">
        <ele>495.3</ele>
        <time>2013-04-14T10:24:34Z</time>
      </trkpt>
      <trkpt lat="45.01391" lon="5.63387">
        <ele>495.9</ele>
        <time>2013-04-14T10:24:36Z</time>
      </trkpt>
      <trkpt lat="45.01384" lon="5.63389">
        <ele>496.8</ele>
        <time>2013-04-14T10:24:38Z</time>
      </trkpt>
      <trkpt lat="45.01379" lon="5.63393">
        <ele>497.8</ele>
        <time>2013-04-14T10:24:40Z</time>
      </trkpt>
      <trkpt lat="45.01372" lon="5.63398">
        <ele>498.6</ele>
        <time>2013-04-14T10:24:43Z</time>
      </trkpt>
      <trkpt lat="45.01367" lon="5.63407">
        <ele>500.8</ele>
        <time>2013-04-14T10:24:47Z</time>
      </trkpt>
      <trkpt lat="45.0136" lon="5.63413">
        <ele>501.6</ele>
        <time>2013-04-14T10:24:50Z</time>
      </trkpt>
      <trkpt lat="45.01352" lon="5.63414">
        <ele>501.8</ele>
        <time>2013-04-14T10:24:53Z</time>
      </trkpt>
      <trkpt lat="45.01348" lon="5.63415">
        <ele>502.2</ele>
        <time>2013-04-14T10:24:54Z</time>
      </trkpt>
      <trkpt lat="45.01338" lon="5.63416">
        <ele>502.8</ele>
        <time>2013-04-14T10:24:57Z</time>
      </trkpt>
      <trkpt lat="45.01332" lon="5.63415">
        <ele>502.8</ele>
        <time>2013-04-14T10:24:59Z</time>
      </trkpt>
      <trkpt lat="45.01323" lon="5.63412">
        <ele>503.7</ele>
        <time>2013-04-14T10:25:02Z</time>
      </trkpt>
      <trkpt lat="45.01316" lon="5.63407">
        <ele>505</ele>
        <time>2013-04-14T10:25:05Z</time>
      </trkpt>
      <trkpt lat="45.0131" lon="5.63399">
        <ele>505.2</ele>
        <time>2013-04-14T10:25:08Z</time>
      </trkpt>
      <trkpt lat="45.01304" lon="5.63392">
        <ele>506.2</ele>
        <time>2013-04-14T10:25:11Z</time>
      </trkpt>
      <trkpt lat="45.01297" lon="5.63386">
        <ele>506.4</ele>
        <time>2013-04-14T10:25:14Z</time>
      </trkpt>
      <trkpt lat="45.01291" lon="5.63379">
        <ele>507.7</ele>
        <time>2013-04-14T10:25:17Z</time>
      </trkpt>
      <trkpt lat="45.01285" lon="5.63372">
        <ele>509.2</ele>
        <time>2013-04-14T10:25:20Z</time>
      </trkpt>
      <trkpt lat="45.01279" lon="5.63365">
        <ele>510</ele>
        <time>2013-04-14T10:25:23Z</time>
      </trkpt>
      <trkpt lat="45.01274" lon="5.63357">
        <ele>510.8</ele>
        <time>2013-04-14T10:25:26Z</time>
      </trkpt>
      <trkpt lat="45.01269" lon="5.6335">
        <ele>511.8</ele>
        <time>2013-04-14T10:25:29Z</time>
      </trkpt>
      <trkpt lat="45.01264" lon="5.63342">
        <ele>512.5</ele>
        <time>2013-04-14T10:25:32Z</time>
      </trkpt>
      <trkpt lat="45.01259" lon="5.63334">
        <ele>513.2</ele>
        <time>2013-04-14T10:25:36Z</time>
      </trkpt>
      <trkpt lat="45.01252" lon="5.63326">
        <ele>514</ele>
        <time>2013-04-14T10:25:43Z</time>
      </trkpt>
      <trkpt lat="45.01248" lon="5.63317">
        <ele>515.8</ele>
        <time>2013-04-14T10:26:01Z</time>
      </trkpt>
      <trkpt lat="45.01246" lon="5.63315">
        <ele>515.7</ele>
        <time>2013-04-14T10:26:02Z</time>
      </trkpt>
      <trkpt lat="45.01236" lon="5.63302">
        <ele>517.3</ele>
        <time>2013-04-14T10:26:08Z</time>
      </trkpt>
      <trkpt lat="45.01231" lon="5.63295">
        <ele>517.5</ele>
        <time>2013-04-14T10:26:11Z</time>
      </trkpt>
      <trkpt lat="45.01226" lon="5.63287">
        <ele>518.2</ele>
        <time>2013-04-14T10:26:14Z</time>
      </trkpt>
      <trkpt lat="45.01221" lon="5.63279">
        <ele>519.1</ele>
        <time>2013-04-14T10:26:17Z</time>
      </trkpt>
      <trkpt lat="45.01217" lon="5.63272">
        <ele>520.8</ele>
        <time>2013-04-14T10:26:20Z</time>
      </trkpt>
      <trkpt lat="45.01213" lon="5.63264">
        <ele>522.1</ele>
        <time>2013-04-14T10:26:23Z</time>
      </trkpt>
      <trkpt lat="45.01209" lon="5.63256">
        <ele>522.8</ele>
        <time>2013-04-14T10:26:26Z</time>
      </trkpt>
      <trkpt lat="45.01205" lon="5.63248">
        <ele>523.8</ele>
        <time>2013-04-14T10:26:29Z</time>
      </trkpt>
      <trkpt lat="45.01201" lon="5.6324">
        <ele>524.6</ele>
        <time>2013-04-14T10:26:32Z</time>
      </trkpt>
      <trkpt lat="45.01197" lon="5.63229">
        <ele>524.8</ele>
        <time>2013-04-14T10:26:36Z</time>
      </trkpt>
      <trkpt lat="45.01195" lon="5.63218">
        <ele>527</ele>
        <time>2013-04-14T10:26:40Z</time>
      </trkpt>
      <trkpt lat="45.01192" lon="5.63206">
        <ele>528.6</ele>
        <time>2013-04-14T10:26:45Z</time>
      </trkpt>
      <trkpt lat="45.0119" lon="5.63194">
        <ele>528.9</ele>
        <time>2013-04-14T10:26:50Z</time>
      </trkpt>
      <trkpt lat="45.01189" lon="5.63184">
        <ele>529.9</ele>
        <time>2013-04-14T10:26:54Z</time>
      </trkpt>
      <trkpt lat="45.01187" lon="5.63172">
        <ele>531.5</ele>
        <time>2013-04-14T10:26:59Z</time>
      </trkpt>
      <trkpt lat="45.01185" lon="5.63161">
        <ele>533</ele>
        <time>2013-04-14T10:27:04Z</time>
      </trkpt>
      <trkpt lat="45.01185" lon="5.63158">
        <ele>533.1</ele>
        <time>2013-04-14T10:27:05Z</time>
      </trkpt>
      <trkpt lat="45.01181" lon="5.63138">
        <ele>534.9</ele>
        <time>2013-04-14T10:27:14Z</time>
      </trkpt>
      <trkpt lat="45.01178" lon="5.63127">
        <ele>536.1</ele>
        <time>2013-04-14T10:27:19Z</time>
      </trkpt>
      <trkpt lat="45.01174" lon="5.63116">
        <ele>536.9</ele>
        <time>2013-04-14T10:27:24Z</time>
      </trkpt>
      <trkpt lat="45.01169" lon="5.63106">
        <ele>537.6</ele>
        <time>2013-04-14T10:27:29Z</time>
      </trkpt>
      <trkpt lat="45.01166" lon="5.63096">
        <ele>539</ele>
        <time>2013-04-14T10:27:34Z</time>
      </trkpt>
      <trkpt lat="45.01162" lon="5.63086">
        <ele>540.8</ele>
        <time>2013-04-14T10:27:40Z</time>
      </trkpt>
      <trkpt lat="45.01166" lon="5.63076">
        <ele>541.7</ele>
        <time>2013-04-14T10:27:46Z</time>
      </trkpt>
      <trkpt lat="45.01175" lon="5.63078">
        <ele>543.3</ele>
        <time>2013-04-14T10:27:51Z</time>
      </trkpt>
      <trkpt lat="45.01182" lon="5.63084">
        <ele>543.8</ele>
        <time>2013-04-14T10:27:56Z</time>
      </trkpt>
      <trkpt lat="45.01189" lon="5.6309">
        <ele>544.5</ele>
        <time>2013-04-14T10:28:01Z</time>
      </trkpt>
      <trkpt lat="45.01196" lon="5.63095">
        <ele>546.3</ele>
        <time>2013-04-14T10:28:06Z</time>
      </trkpt>
      <trkpt lat="45.01198" lon="5.63097">
        <ele>546.4</ele>
        <time>2013-04-14T10:28:07Z</time>
      </trkpt>
      <trkpt lat="45.01211" lon="5.63105">
        <ele>547.9</ele>
        <time>2013-04-14T10:28:16Z</time>
      </trkpt>
      <trkpt lat="45.0122" lon="5.63109">
        <ele>549.6</ele>
        <time>2013-04-14T10:28:21Z</time>
      </trkpt>
      <trkpt lat="45.01226" lon="5.63112">
        <ele>551.5</ele>
        <time>2013-04-14T10:28:25Z</time>
      </trkpt>
      <trkpt lat="45.01235" lon="5.63115">
        <ele>551.6</ele>
        <time>2013-04-14T10:28:30Z</time>
      </trkpt>
      <trkpt lat="45.01243" lon="5.63118">
        <ele>553.9</ele>
        <time>2013-04-14T10:28:35Z</time>
      </trkpt>
      <trkpt lat="45.0125" lon="5.6312">
        <ele>554.1</ele>
        <time>2013-04-14T10:28:40Z</time>
      </trkpt>
      <trkpt lat="45.01258" lon="5.6312">
        <ele>554.8</ele>
        <time>2013-04-14T10:28:45Z</time>
      </trkpt>
      <trkpt lat="45.01265" lon="5.63121">
        <ele>555.5</ele>
        <time>2013-04-14T10:28:50Z</time>
      </trkpt>
      <trkpt lat="45.01273" lon="5.6312">
        <ele>557.1</ele>
        <time>2013-04-14T10:28:55Z</time>
      </trkpt>
      <trkpt lat="45.01281" lon="5.63119">
        <ele>558.2</ele>
        <time>2013-04-14T10:29:00Z</time>
      </trkpt>
      <trkpt lat="45.01289" lon="5.63117">
        <ele>559.7</ele>
        <time>2013-04-14T10:29:06Z</time>
      </trkpt>
      <trkpt lat="45.01297" lon="5.63115">
        <ele>560.8</ele>
        <time>2013-04-14T10:29:11Z</time>
      </trkpt>
      <trkpt lat="45.01298" lon="5.63114">
        <ele>561</ele>
        <time>2013-04-14T10:29:12Z</time>
      </trkpt>
      <trkpt lat="45.01313" lon="5.6311">
        <ele>562.8</ele>
        <time>2013-04-14T10:29:22Z</time>
      </trkpt>
      <trkpt lat="45.01322" lon="5.63109">
        <ele>563.8</ele>
        <time>2013-04-14T10:29:28Z</time>
      </trkpt>
      <trkpt lat="45.0133" lon="5.63108">
        <ele>564.3</ele>
        <time>2013-04-14T10:29:33Z</time>
      </trkpt>
      <trkpt lat="45.01338" lon="5.63106">
        <ele>565.1</ele>
        <time>2013-04-14T10:29:38Z</time>
      </trkpt>
      <trkpt lat="45.01346" lon="5.63104">
        <ele>566.6</ele>
        <time>2013-04-14T10:29:43Z</time>
      </trkpt>
      <trkpt lat="45.01354" lon="5.63103">
        <ele>567.1</ele>
        <time>2013-04-14T10:29:48Z</time>
      </trkpt>
      <trkpt lat="45.01362" lon="5.63102">
        <ele>568.9</ele>
        <time>2013-04-14T10:29:53Z</time>
      </trkpt>
      <trkpt lat="45.01369" lon="5.63102">
        <ele>569.7</ele>
        <time>2013-04-14T10:29:58Z</time>
      </trkpt>
      <trkpt lat="45.01378" lon="5.63104">
        <ele>570.5</ele>
        <time>2013-04-14T10:30:04Z</time>
      </trkpt>
      <trkpt lat="45.01386" lon="5.63099">
        <ele>572.2</ele>
        <time>2013-04-14T10:30:10Z</time>
      </trkpt>
      <trkpt lat="45.01382" lon="5.63088">
        <ele>573.4</ele>
        <time>2013-04-14T10:30:17Z</time>
      </trkpt>
      <trkpt lat="45.01381" lon="5.63087">
        <ele>573.6</ele>
        <time>2013-04-14T10:30:18Z</time>
      </trkpt>
      <trkpt lat="45.01367" lon="5.63081">
        <ele>575.7</ele>
        <time>2013-04-14T10:30:28Z</time>
      </trkpt>
      <trkpt lat="45.0136" lon="5.63077">
        <ele>576.8</ele>
        <time>2013-04-14T10:30:33Z</time>
      </trkpt>
      <trkpt lat="45.01353" lon="5.63071">
        <ele>577</ele>
        <time>2013-04-14T10:30:39Z</time>
      </trkpt>
      <trkpt lat="45.01346" lon="5.63064">
        <ele>578.9</ele>
        <time>2013-04-14T10:30:45Z</time>
      </trkpt>
      <trkpt lat="45.01339" lon="5.63057">
        <ele>581</ele>
        <time>2013-04-14T10:30:51Z</time>
      </trkpt>
      <trkpt lat="45.01332" lon="5.63051">
        <ele>581.6</ele>
        <time>2013-04-14T10:30:57Z</time>
      </trkpt>
      <trkpt lat="45.01325" lon="5.63044">
        <ele>583.8</ele>
        <time>2013-04-14T10:31:03Z</time>
      </trkpt>
      <trkpt lat="45.01318" lon="5.63037">
        <ele>584.4</ele>
        <time>2013-04-14T10:31:10Z</time>
      </trkpt>
      <trkpt lat="45.01311" lon="5.6303">
        <ele>586.2</ele>
        <time>2013-04-14T10:31:17Z</time>
      </trkpt>
      <trkpt lat="45.01304" lon="5.63024">
        <ele>589.1</ele>
        <time>2013-04-14T10:31:33Z</time>
      </trkpt>
      <trkpt lat="45.01303" lon="5.63024">
        <ele>588.8</ele>
        <time>2013-04-14T10:31:34Z</time>
      </trkpt>
      <trkpt lat="45.01292" lon="5.63006">
        <ele>604.2</ele>
        <time>2013-04-14T10:37:41Z</time>
      </trkpt>
      <trkpt lat="45.01291" lon="5.63004">
        <ele>604.8</ele>
        <time>2013-04-14T10:37:42Z</time>
      </trkpt>
      <trkpt lat="45.0128" lon="5.62992">
        <ele>604.7</ele>
        <time>2013-04-14T10:37:52Z</time>
      </trkpt>
      <trkpt lat="45.01272" lon="5.62987">
        <ele>606</ele>
        <time>2013-04-14T10:37:57Z</time>
      </trkpt>
      <trkpt lat="45.01265" lon="5.62982">
        <ele>608.3</ele>
        <time>2013-04-14T10:38:02Z</time>
      </trkpt>
      <trkpt lat="45.01257" lon="5.62978">
        <ele>608.9</ele>
        <time>2013-04-14T10:38:08Z</time>
      </trkpt>
      <trkpt lat="45.01249" lon="5.62973">
        <ele>610.6</ele>
        <time>2013-04-14T10:38:14Z</time>
      </trkpt>
      <trkpt lat="45.01242" lon="5.6297">
        <ele>611.5</ele>
        <time>2013-04-14T10:38:19Z</time>
      </trkpt>
      <trkpt lat="45.01235" lon="5.62965">
        <ele>612.6</ele>
        <time>2013-04-14T10:38:24Z</time>
      </trkpt>
      <trkpt lat="45.01229" lon="5.62958">
        <ele>614.3</ele>
        <time>2013-04-14T10:38:29Z</time>
      </trkpt>
      <trkpt lat="45.01222" lon="5.62952">
        <ele>615</ele>
        <time>2013-04-14T10:38:34Z</time>
      </trkpt>
      <trkpt lat="45.01215" lon="5.62944">
        <ele>616</ele>
        <time>2013-04-14T10:38:40Z</time>
      </trkpt>
      <trkpt lat="45.0121" lon="5.62934">
        <ele>619.2</ele>
        <time>2013-04-14T10:38:46Z</time>
      </trkpt>
      <trkpt lat="45.01209" lon="5.62932">
        <ele>618.9</ele>
        <time>2013-04-14T10:38:47Z</time>
      </trkpt>
      <trkpt lat="45.01199" lon="5.6292">
        <ele>620.5</ele>
        <time>2013-04-14T10:38:56Z</time>
      </trkpt>
      <trkpt lat="45.01192" lon="5.62912">
        <ele>620.7</ele>
        <time>2013-04-14T10:39:02Z</time>
      </trkpt>
      <trkpt lat="45.01185" lon="5.62905">
        <ele>622.4</ele>
        <time>2013-04-14T10:39:08Z</time>
      </trkpt>
      <trkpt lat="45.01177" lon="5.62899">
        <ele>624.6</ele>
        <time>2013-04-14T10:39:14Z</time>
      </trkpt>
      <trkpt lat="45.01171" lon="5.62894">
        <ele>624.6</ele>
        <time>2013-04-14T10:39:19Z</time>
      </trkpt>
      <trkpt lat="45.01164" lon="5.62889">
        <ele>625.1</ele>
        <time>2013-04-14T10:39:24Z</time>
      </trkpt>
      <trkpt lat="45.01157" lon="5.62883">
        <ele>627.3</ele>
        <time>2013-04-14T10:39:29Z</time>
      </trkpt>
      <trkpt lat="45.0115" lon="5.62877">
        <ele>629</ele>
        <time>2013-04-14T10:39:34Z</time>
      </trkpt>
      <trkpt lat="45.01143" lon="5.62871">
        <ele>629.3</ele>
        <time>2013-04-14T10:39:39Z</time>
      </trkpt>
      <trkpt lat="45.01137" lon="5.62865">
        <ele>631.4</ele>
        <time>2013-04-14T10:39:44Z</time>
      </trkpt>
      <trkpt lat="45.0113" lon="5.62858">
        <ele>631.8</ele>
        <time>2013-04-14T10:39:49Z</time>
      </trkpt>
      <trkpt lat="45.01128" lon="5.62857">
        <ele>631.7</ele>
        <time>2013-04-14T10:39:50Z</time>
      </trkpt>
      <trkpt lat="45.01117" lon="5.62845">
        <ele>633.5</ele>
        <time>2013-04-14T10:39:59Z</time>
      </trkpt>
      <trkpt lat="45.01113" lon="5.62835">
        <ele>634.8</ele>
        <time>2013-04-14T10:40:04Z</time>
      </trkpt>
      <trkpt lat="45.01109" lon="5.62824">
        <ele>636.3</ele>
        <time>2013-04-14T10:40:10Z</time>
      </trkpt>
      <trkpt lat="45.01108" lon="5.62812">
        <ele>637.7</ele>
        <time>2013-04-14T10:40:16Z</time>
      </trkpt>
      <trkpt lat="45.01107" lon="5.62801">
        <ele>638.9</ele>
        <time>2013-04-14T10:40:22Z</time>
      </trkpt>
      <trkpt lat="45.01104" lon="5.62789">
        <ele>640</ele>
        <time>2013-04-14T10:40:28Z</time>
      </trkpt>
      <trkpt lat="45.011" lon="5.62779">
        <ele>641.8</ele>
        <time>2013-04-14T10:40:34Z</time>
      </trkpt>
      <trkpt lat="45.01095" lon="5.62771">
        <ele>643.3</ele>
        <time>2013-04-14T10:40:40Z</time>
      </trkpt>
      <trkpt lat="45.01091" lon="5.62761">
        <ele>644.2</ele>
        <time>2013-04-14T10:40:46Z</time>
      </trkpt>
      <trkpt lat="45.0109" lon="5.62749">
        <ele>646.8</ele>
        <time>2013-04-14T10:40:53Z</time>
      </trkpt>
      <trkpt lat="45.0109" lon="5.62747">
        <ele>647.4</ele>
        <time>2013-04-14T10:40:54Z</time>
      </trkpt>
      <trkpt lat="45.01082" lon="5.62729">
        <ele>649.8</ele>
        <time>2013-04-14T10:41:06Z</time>
      </trkpt>
      <trkpt lat="45.01075" lon="5.62723">
        <ele>651.5</ele>
        <time>2013-04-14T10:41:12Z</time>
      </trkpt>
      <trkpt lat="45.01067" lon="5.6272">
        <ele>652.6</ele>
        <time>2013-04-14T10:41:18Z</time>
      </trkpt>
      <trkpt lat="45.01059" lon="5.62719">
        <ele>653.6</ele>
        <time>2013-04-14T10:41:24Z</time>
      </trkpt>
      <trkpt lat="45.01051" lon="5.62717">
        <ele>655</ele>
        <time>2013-04-14T10:41:31Z</time>
      </trkpt>
      <trkpt lat="45.01043" lon="5.6271">
        <ele>656</ele>
        <time>2013-04-14T10:41:38Z</time>
      </trkpt>
      <trkpt lat="45.01039" lon="5.627">
        <ele>657.6</ele>
        <time>2013-04-14T10:41:45Z</time>
      </trkpt>
      <trkpt lat="45.01035" lon="5.62689">
        <ele>657.8</ele>
        <time>2013-04-14T10:41:52Z</time>
      </trkpt>
      <trkpt lat="45.0103" lon="5.6268">
        <ele>660.1</ele>
        <time>2013-04-14T10:41:59Z</time>
      </trkpt>
      <trkpt lat="45.01029" lon="5.62679">
        <ele>660.4</ele>
        <time>2013-04-14T10:42:00Z</time>
      </trkpt>
      <trkpt lat="45.01014" lon="5.62672">
        <ele>663.7</ele>
        <time>2013-04-14T10:42:13Z</time>
      </trkpt>
      <trkpt lat="45.01005" lon="5.6267">
        <ele>664</ele>
        <time>2013-04-14T10:42:20Z</time>
      </trkpt>
      <trkpt lat="45.00997" lon="5.62665">
        <ele>670.1</ele>
        <time>2013-04-14T10:44:02Z</time>
      </trkpt>
      <trkpt lat="45.00997" lon="5.62664">
        <ele>670.2</ele>
        <time>2013-04-14T10:44:03Z</time>
      </trkpt>
      <trkpt lat="45.00984" lon="5.62652">
        <ele>671.8</ele>
        <time>2013-04-14T10:44:19Z</time>
      </trkpt>
      <trkpt lat="45.00976" lon="5.62645">
        <ele>673.6</ele>
        <time>2013-04-14T10:44:27Z</time>
      </trkpt>
      <trkpt lat="45.00967" lon="5.62643">
        <ele>675.4</ele>
        <time>2013-04-14T10:44:35Z</time>
      </trkpt>
      <trkpt lat="45.0096" lon="5.62639">
        <ele>676.7</ele>
        <time>2013-04-14T10:44:43Z</time>
      </trkpt>
      <trkpt lat="45.00952" lon="5.62634">
        <ele>678.6</ele>
        <time>2013-04-14T10:44:52Z</time>
      </trkpt>
      <trkpt lat="45.00945" lon="5.62628">
        <ele>679.2</ele>
        <time>2013-04-14T10:45:00Z</time>
      </trkpt>
      <trkpt lat="45.00938" lon="5.6262">
        <ele>681</ele>
        <time>2013-04-14T10:45:08Z</time>
      </trkpt>
      <trkpt lat="45.00937" lon="5.62619">
        <ele>681.1</ele>
        <time>2013-04-14T10:45:09Z</time>
      </trkpt>
      <trkpt lat="45.00926" lon="5.62603">
        <ele>684.1</ele>
        <time>2013-04-14T10:45:24Z</time>
      </trkpt>
      <trkpt lat="45.00922" lon="5.62592">
        <ele>685.9</ele>
        <time>2013-04-14T10:45:33Z</time>
      </trkpt>
      <trkpt lat="45.00919" lon="5.62581">
        <ele>686.9</ele>
        <time>2013-04-14T10:45:42Z</time>
      </trkpt>
      <trkpt lat="45.00916" lon="5.6257">
        <ele>688.2</ele>
        <time>2013-04-14T10:45:51Z</time>
      </trkpt>
      <trkpt lat="45.00911" lon="5.62559">
        <ele>690.7</ele>
        <time>2013-04-14T10:46:00Z</time>
      </trkpt>
      <trkpt lat="45.00905" lon="5.6255">
        <ele>691.2</ele>
        <time>2013-04-14T10:46:09Z</time>
      </trkpt>
      <trkpt lat="45.00904" lon="5.62549">
        <ele>691.4</ele>
        <time>2013-04-14T10:46:10Z</time>
      </trkpt>
      <trkpt lat="45.0089" lon="5.62538">
        <ele>694.1</ele>
        <time>2013-04-14T10:46:25Z</time>
      </trkpt>
      <trkpt lat="45.00883" lon="5.62531">
        <ele>695.2</ele>
        <time>2013-04-14T10:46:34Z</time>
      </trkpt>
      <trkpt lat="45.00878" lon="5.62521">
        <ele>697.3</ele>
        <time>2013-04-14T10:46:42Z</time>
      </trkpt>
      <trkpt lat="45.00875" lon="5.62511">
        <ele>698.7</ele>
        <time>2013-04-14T10:46:50Z</time>
      </trkpt>
      <trkpt lat="45.00873" lon="5.62499">
        <ele>700.9</ele>
        <time>2013-04-14T10:46:59Z</time>
      </trkpt>
      <trkpt lat="45.00869" lon="5.62488">
        <ele>700.8</ele>
        <time>2013-04-14T10:47:07Z</time>
      </trkpt>
      <trkpt lat="45.00865" lon="5.62477">
        <ele>702.7</ele>
        <time>2013-04-14T10:47:14Z</time>
      </trkpt>
      <trkpt lat="45.00864" lon="5.62476">
        <ele>703</ele>
        <time>2013-04-14T10:47:15Z</time>
      </trkpt>
      <trkpt lat="45.00858" lon="5.62455">
        <ele>706</ele>
        <time>2013-04-14T10:47:28Z</time>
      </trkpt>
      <trkpt lat="45.00856" lon="5.62443">
        <ele>706.7</ele>
        <time>2013-04-14T10:47:35Z</time>
      </trkpt>
      <trkpt lat="45.00856" lon="5.6243">
        <ele>709</ele>
        <time>2013-04-14T10:47:42Z</time>
      </trkpt>
      <trkpt lat="45.00856" lon="5.62419">
        <ele>710.7</ele>
        <time>2013-04-14T10:47:48Z</time>
      </trkpt>
      <trkpt lat="45.00857" lon="5.62408">
        <ele>712.2</ele>
        <time>2013-04-14T10:47:54Z</time>
      </trkpt>
      <trkpt lat="45.00858" lon="5.62397">
        <ele>712.7</ele>
        <time>2013-04-14T10:48:00Z</time>
      </trkpt>
      <trkpt lat="45.00859" lon="5.62385">
        <ele>714.7</ele>
        <time>2013-04-14T10:48:07Z</time>
      </trkpt>
      <trkpt lat="45.00859" lon="5.62374">
        <ele>715.2</ele>
        <time>2013-04-14T10:48:13Z</time>
      </trkpt>
      <trkpt lat="45.0086" lon="5.62362">
        <ele>716.7</ele>
        <time>2013-04-14T10:48:18Z</time>
      </trkpt>
      <trkpt lat="45.0086" lon="5.6236">
        <ele>716.8</ele>
        <time>2013-04-14T10:48:19Z</time>
      </trkpt>
      <trkpt lat="45.00863" lon="5.62338">
        <ele>721.9</ele>
        <time>2013-04-14T10:48:35Z</time>
      </trkpt>
      <trkpt lat="45.00871" lon="5.62344">
        <ele>723.9</ele>
        <time>2013-04-14T10:48:43Z</time>
      </trkpt>
      <trkpt lat="45.00872" lon="5.62356">
        <ele>724.5</ele>
        <time>2013-04-14T10:48:49Z</time>
      </trkpt>
      <trkpt lat="45.00874" lon="5.62368">
        <ele>726.9</ele>
        <time>2013-04-14T10:48:55Z</time>
      </trkpt>
      <trkpt lat="45.00874" lon="5.6238">
        <ele>727.2</ele>
        <time>2013-04-14T10:49:01Z</time>
      </trkpt>
      <trkpt lat="45.00876" lon="5.62392">
        <ele>727.3</ele>
        <time>2013-04-14T10:49:07Z</time>
      </trkpt>
      <trkpt lat="45.00878" lon="5.62403">
        <ele>729.7</ele>
        <time>2013-04-14T10:49:13Z</time>
      </trkpt>
      <trkpt lat="45.0088" lon="5.62415">
        <ele>730.7</ele>
        <time>2013-04-14T10:49:19Z</time>
      </trkpt>
      <trkpt lat="45.0088" lon="5.62417">
        <ele>731.1</ele>
        <time>2013-04-14T10:49:20Z</time>
      </trkpt>
      <trkpt lat="45.00884" lon="5.62437">
        <ele>732.6</ele>
        <time>2013-04-14T10:49:31Z</time>
      </trkpt>
      <trkpt lat="45.00888" lon="5.62447">
        <ele>733.7</ele>
        <time>2013-04-14T10:49:37Z</time>
      </trkpt>
      <trkpt lat="45.00895" lon="5.62454">
        <ele>735.2</ele>
        <time>2013-04-14T10:49:44Z</time>
      </trkpt>
      <trkpt lat="45.00902" lon="5.62459">
        <ele>735.5</ele>
        <time>2013-04-14T10:49:50Z</time>
      </trkpt>
      <trkpt lat="45.0091" lon="5.62465">
        <ele>737.4</ele>
        <time>2013-04-14T10:49:57Z</time>
      </trkpt>
      <trkpt lat="45.00916" lon="5.62472">
        <ele>738.9</ele>
        <time>2013-04-14T10:50:03Z</time>
      </trkpt>
      <trkpt lat="45.00922" lon="5.62479">
        <ele>740.8</ele>
        <time>2013-04-14T10:50:09Z</time>
      </trkpt>
      <trkpt lat="45.00928" lon="5.62486">
        <ele>742.9</ele>
        <time>2013-04-14T10:50:15Z</time>
      </trkpt>
      <trkpt lat="45.00935" lon="5.62491">
        <ele>743.7</ele>
        <time>2013-04-14T10:50:21Z</time>
      </trkpt>
      <trkpt lat="45.00937" lon="5.62491">
        <ele>744</ele>
        <time>2013-04-14T10:50:22Z</time>
      </trkpt>
      <trkpt lat="45.00943" lon="5.62478">
        <ele>746.3</ele>
        <time>2013-04-14T10:50:35Z</time>
      </trkpt>
      <trkpt lat="45.00938" lon="5.62469">
        <ele>747.2</ele>
        <time>2013-04-14T10:50:41Z</time>
      </trkpt>
      <trkpt lat="45.00932" lon="5.62461">
        <ele>749.9</ele>
        <time>2013-04-14T10:50:47Z</time>
      </trkpt>
      <trkpt lat="45.00926" lon="5.62453">
        <ele>750.1</ele>
        <time>2013-04-14T10:50:53Z</time>
      </trkpt>
      <trkpt lat="45.00921" lon="5.62444">
        <ele>750.9</ele>
        <time>2013-04-14T10:50:59Z</time>
      </trkpt>
      <trkpt lat="45.00917" lon="5.62435">
        <ele>752.9</ele>
        <time>2013-04-14T10:51:05Z</time>
      </trkpt>
      <trkpt lat="45.00912" lon="5.62426">
        <ele>754.7</ele>
        <time>2013-04-14T10:51:11Z</time>
      </trkpt>
      <trkpt lat="45.00911" lon="5.62414">
        <ele>755.8</ele>
        <time>2013-04-14T10:51:17Z</time>
      </trkpt>
      <trkpt lat="45.00911" lon="5.62402">
        <ele>757.7</ele>
        <time>2013-04-14T10:51:23Z</time>
      </trkpt>
      <trkpt lat="45.00911" lon="5.624">
        <ele>757.8</ele>
        <time>2013-04-14T10:51:24Z</time>
      </trkpt>
      <trkpt lat="45.00912" lon="5.62378">
        <ele>759.7</ele>
        <time>2013-04-14T10:51:35Z</time>
      </trkpt>
      <trkpt lat="45.00913" lon="5.62367">
        <ele>760.9</ele>
        <time>2013-04-14T10:51:41Z</time>
      </trkpt>
      <trkpt lat="45.00912" lon="5.62356">
        <ele>762</ele>
        <time>2013-04-14T10:51:47Z</time>
      </trkpt>
      <trkpt lat="45.00911" lon="5.62344">
        <ele>762.3</ele>
        <time>2013-04-14T10:51:53Z</time>
      </trkpt>
      <trkpt lat="45.00912" lon="5.62332">
        <ele>764.1</ele>
        <time>2013-04-14T10:51:59Z</time>
      </trkpt>
      <trkpt lat="45.00913" lon="5.62321">
        <ele>764.6</ele>
        <time>2013-04-14T10:52:05Z</time>
      </trkpt>
      <trkpt lat="45.00914" lon="5.6231">
        <ele>765.7</ele>
        <time>2013-04-14T10:52:11Z</time>
      </trkpt>
      <trkpt lat="45.00916" lon="5.62297">
        <ele>767.7</ele>
        <time>2013-04-14T10:52:18Z</time>
      </trkpt>
      <trkpt lat="45.00917" lon="5.62285">
        <ele>768.7</ele>
        <time>2013-04-14T10:52:25Z</time>
      </trkpt>
      <trkpt lat="45.00918" lon="5.62284">
        <ele>768.8</ele>
        <time>2013-04-14T10:52:26Z</time>
      </trkpt>
      <trkpt lat="45.00923" lon="5.62263">
        <ele>770.4</ele>
        <time>2013-04-14T10:52:38Z</time>
      </trkpt>
      <trkpt lat="45.00924" lon="5.62251">
        <ele>771.7</ele>
        <time>2013-04-14T10:52:44Z</time>
      </trkpt>
      <trkpt lat="45.00927" lon="5.6224">
        <ele>771.5</ele>
        <time>2013-04-14T10:52:50Z</time>
      </trkpt>
      <trkpt lat="45.0093" lon="5.62228">
        <ele>772.9</ele>
        <time>2013-04-14T10:52:57Z</time>
      </trkpt>
      <trkpt lat="45.00933" lon="5.62218">
        <ele>772.8</ele>
        <time>2013-04-14T10:53:03Z</time>
      </trkpt>
      <trkpt lat="45.00936" lon="5.62208">
        <ele>774.8</ele>
        <time>2013-04-14T10:53:09Z</time>
      </trkpt>
      <trkpt lat="45.0094" lon="5.62196">
        <ele>775.1</ele>
        <time>2013-04-14T10:53:16Z</time>
      </trkpt>
      <trkpt lat="45.00943" lon="5.62185">
        <ele>777.2</ele>
        <time>2013-04-14T10:53:23Z</time>
      </trkpt>
      <trkpt lat="45.00945" lon="5.62176">
        <ele>777.2</ele>
        <time>2013-04-14T10:53:28Z</time>
      </trkpt>
      <trkpt lat="45.00946" lon="5.62171">
        <ele>777.4</ele>
        <time>2013-04-14T10:53:29Z</time>
      </trkpt>
      <trkpt lat="45.00951" lon="5.62154">
        <ele>778.3</ele>
        <time>2013-04-14T10:53:39Z</time>
      </trkpt>
      <trkpt lat="45.00956" lon="5.62143">
        <ele>779.4</ele>
        <time>2013-04-14T10:53:46Z</time>
      </trkpt>
      <trkpt lat="45.00959" lon="5.62133">
        <ele>781.5</ele>
        <time>2013-04-14T10:53:52Z</time>
      </trkpt>
      <trkpt lat="45.00961" lon="5.62121">
        <ele>782.3</ele>
        <time>2013-04-14T10:53:58Z</time>
      </trkpt>
      <trkpt lat="45.00962" lon="5.6211">
        <ele>783.5</ele>
        <time>2013-04-14T10:54:04Z</time>
      </trkpt>
      <trkpt lat="45.00965" lon="5.62099">
        <ele>784.3</ele>
        <time>2013-04-14T10:54:11Z</time>
      </trkpt>
      <trkpt lat="45.0097" lon="5.62088">
        <ele>785</ele>
        <time>2013-04-14T10:54:21Z</time>
      </trkpt>
      <trkpt lat="45.00968" lon="5.62077">
        <ele>786.7</ele>
        <time>2013-04-14T10:54:28Z</time>
      </trkpt>
      <trkpt lat="45.00966" lon="5.62065">
        <ele>787.2</ele>
        <time>2013-04-14T10:54:35Z</time>
      </trkpt>
      <trkpt lat="45.00966" lon="5.62064">
        <ele>787.6</ele>
        <time>2013-04-14T10:54:36Z</time>
      </trkpt>
      <trkpt lat="45.0095" lon="5.6206">
        <ele>787.9</ele>
        <time>2013-04-14T10:54:53Z</time>
      </trkpt>
      <trkpt lat="45.00942" lon="5.62061">
        <ele>789.8</ele>
        <time>2013-04-14T10:55:01Z</time>
      </trkpt>
      <trkpt lat="45.0093" lon="5.62055">
        <ele>791</ele>
        <time>2013-04-14T10:55:10Z</time>
      </trkpt>
      <trkpt lat="45.00922" lon="5.62047">
        <ele>793</ele>
        <time>2013-04-14T10:55:18Z</time>
      </trkpt>
      <trkpt lat="45.00916" lon="5.62039">
        <ele>793.3</ele>
        <time>2013-04-14T10:55:26Z</time>
      </trkpt>
      <trkpt lat="45.00909" lon="5.62031">
        <ele>794</ele>
        <time>2013-04-14T10:55:34Z</time>
      </trkpt>
      <trkpt lat="45.00901" lon="5.62025">
        <ele>796</ele>
        <time>2013-04-14T10:55:43Z</time>
      </trkpt>
      <trkpt lat="45.009" lon="5.62025">
        <ele>796.1</ele>
        <time>2013-04-14T10:55:44Z</time>
      </trkpt>
      <trkpt lat="45.00885" lon="5.62025">
        <ele>797.9</ele>
        <time>2013-04-14T10:55:58Z</time>
      </trkpt>
      <trkpt lat="45.00877" lon="5.62029">
        <ele>798.4</ele>
        <time>2013-04-14T10:56:05Z</time>
      </trkpt>
      <trkpt lat="45.0087" lon="5.62033">
        <ele>799.4</ele>
        <time>2013-04-14T10:56:11Z</time>
      </trkpt>
      <trkpt lat="45.00862" lon="5.62038">
        <ele>800.6</ele>
        <time>2013-04-14T10:56:18Z</time>
      </trkpt>
      <trkpt lat="45.00854" lon="5.62036">
        <ele>801.9</ele>
        <time>2013-04-14T10:56:29Z</time>
      </trkpt>
      <trkpt lat="45.00854" lon="5.62025">
        <ele>803.6</ele>
        <time>2013-04-14T10:56:35Z</time>
      </trkpt>
      <trkpt lat="45.00856" lon="5.62013">
        <ele>804.9</ele>
        <time>2013-04-14T10:56:41Z</time>
      </trkpt>
      <trkpt lat="45.00859" lon="5.62001">
        <ele>804.9</ele>
        <time>2013-04-14T10:56:47Z</time>
      </trkpt>
      <trkpt lat="45.00859" lon="5.62">
        <ele>804.9</ele>
        <time>2013-04-14T10:56:48Z</time>
      </trkpt>
      <trkpt lat="45.00866" lon="5.61979">
        <ele>806.9</ele>
        <time>2013-04-14T10:56:59Z</time>
      </trkpt>
      <trkpt lat="45.0087" lon="5.61969">
        <ele>806.6</ele>
        <time>2013-04-14T10:57:05Z</time>
      </trkpt>
      <trkpt lat="45.00874" lon="5.61958">
        <ele>807.7</ele>
        <time>2013-04-14T10:57:12Z</time>
      </trkpt>
      <trkpt lat="45.00875" lon="5.61946">
        <ele>809.5</ele>
        <time>2013-04-14T10:57:20Z</time>
      </trkpt>
      <trkpt lat="45.00872" lon="5.61934">
        <ele>809.3</ele>
        <time>2013-04-14T10:58:16Z</time>
      </trkpt>
      <trkpt lat="45.00872" lon="5.61934">
        <ele>809.2</ele>
        <time>2013-04-14T10:58:17Z</time>
      </trkpt>
      <trkpt lat="45.00856" lon="5.61924">
        <ele>808.8</ele>
        <time>2013-04-14T11:00:03Z</time>
      </trkpt>
      <trkpt lat="45.00856" lon="5.61923">
        <ele>808.8</ele>
        <time>2013-04-14T11:00:04Z</time>
      </trkpt>
      <trkpt lat="45.00863" lon="5.61914">
        <ele>811.1</ele>
        <time>2013-04-14T11:05:02Z</time>
      </trkpt>
      <trkpt lat="45.00867" lon="5.61894">
        <ele>813.7</ele>
        <time>2013-04-14T11:05:18Z</time>
      </trkpt>
      <trkpt lat="45.00869" lon="5.61882">
        <ele>814</ele>
        <time>2013-04-14T11:05:27Z</time>
      </trkpt>
      <trkpt lat="45.00871" lon="5.61871">
        <ele>816.2</ele>
        <time>2013-04-14T11:05:36Z</time>
      </trkpt>
      <trkpt lat="45.00874" lon="5.6186">
        <ele>818.1</ele>
        <time>2013-04-14T11:05:51Z</time>
      </trkpt>
      <trkpt lat="45.00877" lon="5.61849">
        <ele>819.3</ele>
        <time>2013-04-14T11:06:01Z</time>
      </trkpt>
      <trkpt lat="45.00883" lon="5.6184">
        <ele>822.1</ele>
        <time>2013-04-14T11:06:15Z</time>
      </trkpt>
      <trkpt lat="45.00884" lon="5.61839">
        <ele>822.1</ele>
        <time>2013-04-14T11:06:16Z</time>
      </trkpt>
      <trkpt lat="45.00895" lon="5.61823">
        <ele>823.4</ele>
        <time>2013-04-14T11:06:31Z</time>
      </trkpt>
      <trkpt lat="45.009" lon="5.61814">
        <ele>823.6</ele>
        <time>2013-04-14T11:06:38Z</time>
      </trkpt>
      <trkpt lat="45.00905" lon="5.61804">
        <ele>825.6</ele>
        <time>2013-04-14T11:06:45Z</time>
      </trkpt>
      <trkpt lat="45.00909" lon="5.61793">
        <ele>826.3</ele>
        <time>2013-04-14T11:06:52Z</time>
      </trkpt>
      <trkpt lat="45.00914" lon="5.61783">
        <ele>827.1</ele>
        <time>2013-04-14T11:06:59Z</time>
      </trkpt>
      <trkpt lat="45.00918" lon="5.61774">
        <ele>827.8</ele>
        <time>2013-04-14T11:07:05Z</time>
      </trkpt>
      <trkpt lat="45.00922" lon="5.61764">
        <ele>829.2</ele>
        <time>2013-04-14T11:07:11Z</time>
      </trkpt>
      <trkpt lat="45.00925" lon="5.61753">
        <ele>830.2</ele>
        <time>2013-04-14T11:07:18Z</time>
      </trkpt>
      <trkpt lat="45.00925" lon="5.61751">
        <ele>830.4</ele>
        <time>2013-04-14T11:07:19Z</time>
      </trkpt>
      <trkpt lat="45.00929" lon="5.61729">
        <ele>833</ele>
        <time>2013-04-14T11:07:37Z</time>
      </trkpt>
      <trkpt lat="45.00932" lon="5.61717">
        <ele>834.6</ele>
        <time>2013-04-14T11:07:46Z</time>
      </trkpt>
      <trkpt lat="45.00931" lon="5.61704">
        <ele>836.3</ele>
        <time>2013-04-14T11:07:55Z</time>
      </trkpt>
      <trkpt lat="45.00929" lon="5.61692">
        <ele>837.2</ele>
        <time>2013-04-14T11:08:04Z</time>
      </trkpt>
      <trkpt lat="45.00925" lon="5.61681">
        <ele>838</ele>
        <time>2013-04-14T11:08:12Z</time>
      </trkpt>
      <trkpt lat="45.0092" lon="5.61672">
        <ele>840.6</ele>
        <time>2013-04-14T11:08:20Z</time>
      </trkpt>
      <trkpt lat="45.0092" lon="5.61671">
        <ele>841</ele>
        <time>2013-04-14T11:08:21Z</time>
      </trkpt>
      <trkpt lat="45.0091" lon="5.61652">
        <ele>842.5</ele>
        <time>2013-04-14T11:08:38Z</time>
      </trkpt>
      <trkpt lat="45.00905" lon="5.61642">
        <ele>844.4</ele>
        <time>2013-04-14T11:08:48Z</time>
      </trkpt>
      <trkpt lat="45.00898" lon="5.61634">
        <ele>845.9</ele>
        <time>2013-04-14T11:08:58Z</time>
      </trkpt>
      <trkpt lat="45.00892" lon="5.61625">
        <ele>847.2</ele>
        <time>2013-04-14T11:09:09Z</time>
      </trkpt>
      <trkpt lat="45.00888" lon="5.61614">
        <ele>848.3</ele>
        <time>2013-04-14T11:09:19Z</time>
      </trkpt>
      <trkpt lat="45.00885" lon="5.61603">
        <ele>850.1</ele>
        <time>2013-04-14T11:09:28Z</time>
      </trkpt>
      <trkpt lat="45.00885" lon="5.61602">
        <ele>850.5</ele>
        <time>2013-04-14T11:09:29Z</time>
      </trkpt>
      <trkpt lat="45.00878" lon="5.61583">
        <ele>851.7</ele>
        <time>2013-04-14T11:09:44Z</time>
      </trkpt>
      <trkpt lat="45.00874" lon="5.61572">
        <ele>854.8</ele>
        <time>2013-04-14T11:09:53Z</time>
      </trkpt>
      <trkpt lat="45.00869" lon="5.61563">
        <ele>853.6</ele>
        <time>2013-04-14T11:10:03Z</time>
      </trkpt>
      <trkpt lat="45.00863" lon="5.61553">
        <ele>855.6</ele>
        <time>2013-04-14T11:10:13Z</time>
      </trkpt>
      <trkpt lat="45.00858" lon="5.61544">
        <ele>856.1</ele>
        <time>2013-04-14T11:10:22Z</time>
      </trkpt>
      <trkpt lat="45.00851" lon="5.61536">
        <ele>859.4</ele>
        <time>2013-04-14T11:10:38Z</time>
      </trkpt>
      <trkpt lat="45.00851" lon="5.61536">
        <ele>859.6</ele>
        <time>2013-04-14T11:10:39Z</time>
      </trkpt>
      <trkpt lat="45.0084" lon="5.61518">
        <ele>862.8</ele>
        <time>2013-04-14T11:11:04Z</time>
      </trkpt>
      <trkpt lat="45.00834" lon="5.6151">
        <ele>863</ele>
        <time>2013-04-14T11:11:16Z</time>
      </trkpt>
      <trkpt lat="45.00828" lon="5.61502">
        <ele>866.1</ele>
        <time>2013-04-14T11:11:27Z</time>
      </trkpt>
      <trkpt lat="45.00822" lon="5.61494">
        <ele>868.2</ele>
        <time>2013-04-14T11:11:37Z</time>
      </trkpt>
      <trkpt lat="45.00817" lon="5.61483">
        <ele>869.7</ele>
        <time>2013-04-14T11:11:47Z</time>
      </trkpt>
      <trkpt lat="45.00817" lon="5.61482">
        <ele>869.7</ele>
        <time>2013-04-14T11:11:48Z</time>
      </trkpt>
      <trkpt lat="45.0081" lon="5.61462">
        <ele>871.3</ele>
        <time>2013-04-14T11:12:05Z</time>
      </trkpt>
      <trkpt lat="45.00807" lon="5.61452">
        <ele>873.8</ele>
        <time>2013-04-14T11:12:17Z</time>
      </trkpt>
      <trkpt lat="45.00804" lon="5.61441">
        <ele>873.5</ele>
        <time>2013-04-14T11:12:26Z</time>
      </trkpt>
      <trkpt lat="45.00803" lon="5.61429">
        <ele>874.6</ele>
        <time>2013-04-14T11:12:35Z</time>
      </trkpt>
      <trkpt lat="45.00799" lon="5.61418">
        <ele>876.2</ele>
        <time>2013-04-14T11:12:44Z</time>
      </trkpt>
      <trkpt lat="45.00793" lon="5.61409">
        <ele>876.9</ele>
        <time>2013-04-14T11:12:51Z</time>
      </trkpt>
      <trkpt lat="45.00793" lon="5.61407">
        <ele>876.8</ele>
        <time>2013-04-14T11:12:52Z</time>
      </trkpt>
      <trkpt lat="45.00784" lon="5.61389">
        <ele>878.6</ele>
        <time>2013-04-14T11:13:04Z</time>
      </trkpt>
      <trkpt lat="45.00779" lon="5.6138">
        <ele>880.6</ele>
        <time>2013-04-14T11:13:11Z</time>
      </trkpt>
      <trkpt lat="45.00772" lon="5.61372">
        <ele>881</ele>
        <time>2013-04-14T11:13:19Z</time>
      </trkpt>
      <trkpt lat="45.00766" lon="5.61364">
        <ele>882.6</ele>
        <time>2013-04-14T11:13:26Z</time>
      </trkpt>
      <trkpt lat="45.00762" lon="5.61355">
        <ele>883.8</ele>
        <time>2013-04-14T11:13:33Z</time>
      </trkpt>
      <trkpt lat="45.00756" lon="5.61346">
        <ele>884.6</ele>
        <time>2013-04-14T11:13:40Z</time>
      </trkpt>
      <trkpt lat="45.00749" lon="5.61338">
        <ele>884.9</ele>
        <time>2013-04-14T11:13:48Z</time>
      </trkpt>
      <trkpt lat="45.00743" lon="5.6133">
        <ele>886.1</ele>
        <time>2013-04-14T11:13:54Z</time>
      </trkpt>
      <trkpt lat="45.00742" lon="5.61329">
        <ele>886.2</ele>
        <time>2013-04-14T11:13:55Z</time>
      </trkpt>
      <trkpt lat="45.00729" lon="5.61315">
        <ele>887.6</ele>
        <time>2013-04-14T11:14:08Z</time>
      </trkpt>
      <trkpt lat="45.00722" lon="5.61309">
        <ele>887.7</ele>
        <time>2013-04-14T11:14:14Z</time>
      </trkpt>
      <trkpt lat="45.00714" lon="5.61304">
        <ele>890.1</ele>
        <time>2013-04-14T11:14:21Z</time>
      </trkpt>
      <trkpt lat="45.00707" lon="5.61297">
        <ele>890.6</ele>
        <time>2013-04-14T11:14:28Z</time>
      </trkpt>
      <trkpt lat="45.007" lon="5.61292">
        <ele>891.5</ele>
        <time>2013-04-14T11:14:35Z</time>
      </trkpt>
      <trkpt lat="45.00693" lon="5.61287">
        <ele>893.6</ele>
        <time>2013-04-14T11:14:42Z</time>
      </trkpt>
      <trkpt lat="45.00686" lon="5.6128">
        <ele>893.5</ele>
        <time>2013-04-14T11:14:49Z</time>
      </trkpt>
      <trkpt lat="45.00679" lon="5.61274">
        <ele>895</ele>
        <time>2013-04-14T11:14:56Z</time>
      </trkpt>
      <trkpt lat="45.00678" lon="5.61273">
        <ele>895.5</ele>
        <time>2013-04-14T11:14:57Z</time>
      </trkpt>
      <trkpt lat="45.00669" lon="5.61254">
        <ele>897.7</ele>
        <time>2013-04-14T11:15:14Z</time>
      </trkpt>
      <trkpt lat="45.00664" lon="5.61245">
        <ele>898.2</ele>
        <time>2013-04-14T11:15:22Z</time>
      </trkpt>
      <trkpt lat="45.00661" lon="5.61233">
        <ele>901</ele>
        <time>2013-04-14T11:15:32Z</time>
      </trkpt>
      <trkpt lat="45.0066" lon="5.61221">
        <ele>902.4</ele>
        <time>2013-04-14T11:15:42Z</time>
      </trkpt>
      <trkpt lat="45.00655" lon="5.61211">
        <ele>904.1</ele>
        <time>2013-04-14T11:15:51Z</time>
      </trkpt>
      <trkpt lat="45.00652" lon="5.61201">
        <ele>904.9</ele>
        <time>2013-04-14T11:15:58Z</time>
      </trkpt>
      <trkpt lat="45.00651" lon="5.61199">
        <ele>905</ele>
        <time>2013-04-14T11:15:59Z</time>
      </trkpt>
      <trkpt lat="45.00644" lon="5.61179">
        <ele>908.2</ele>
        <time>2013-04-14T11:16:14Z</time>
      </trkpt>
      <trkpt lat="45.0064" lon="5.61168">
        <ele>909.6</ele>
        <time>2013-04-14T11:16:23Z</time>
      </trkpt>
      <trkpt lat="45.00636" lon="5.61158">
        <ele>910.2</ele>
        <time>2013-04-14T11:16:32Z</time>
      </trkpt>
      <trkpt lat="45.00633" lon="5.61147">
        <ele>912.7</ele>
        <time>2013-04-14T11:16:41Z</time>
      </trkpt>
      <trkpt lat="45.00629" lon="5.61137">
        <ele>913.1</ele>
        <time>2013-04-14T11:16:49Z</time>
      </trkpt>
      <trkpt lat="45.00624" lon="5.61128">
        <ele>913.2</ele>
        <time>2013-04-14T11:16:56Z</time>
      </trkpt>
      <trkpt lat="45.00619" lon="5.61119">
        <ele>914.2</ele>
        <time>2013-04-14T11:17:03Z</time>
      </trkpt>
      <trkpt lat="45.00619" lon="5.61118">
        <ele>914.4</ele>
        <time>2013-04-14T11:17:04Z</time>
      </trkpt>
      <trkpt lat="45.00606" lon="5.61103">
        <ele>915.6</ele>
        <time>2013-04-14T11:17:20Z</time>
      </trkpt>
      <trkpt lat="45.00601" lon="5.61094">
        <ele>917.7</ele>
        <time>2013-04-14T11:17:29Z</time>
      </trkpt>
      <trkpt lat="45.00596" lon="5.61084">
        <ele>918.5</ele>
        <time>2013-04-14T11:17:39Z</time>
      </trkpt>
      <trkpt lat="45.00589" lon="5.61076">
        <ele>920.6</ele>
        <time>2013-04-14T11:17:49Z</time>
      </trkpt>
      <trkpt lat="45.00584" lon="5.61067">
        <ele>921.8</ele>
        <time>2013-04-14T11:18:00Z</time>
      </trkpt>
      <trkpt lat="45.00578" lon="5.61057">
        <ele>923</ele>
        <time>2013-04-14T11:18:10Z</time>
      </trkpt>
      <trkpt lat="45.00578" lon="5.61057">
        <ele>923.1</ele>
        <time>2013-04-14T11:18:11Z</time>
      </trkpt>
      <trkpt lat="45.00568" lon="5.61037">
        <ele>925.2</ele>
        <time>2013-04-14T11:18:30Z</time>
      </trkpt>
      <trkpt lat="45.00563" lon="5.61028">
        <ele>927.8</ele>
        <time>2013-04-14T11:18:39Z</time>
      </trkpt>
      <trkpt lat="45.00559" lon="5.61018">
        <ele>928.2</ele>
        <time>2013-04-14T11:18:48Z</time>
      </trkpt>
      <trkpt lat="45.00554" lon="5.61008">
        <ele>929.5</ele>
        <time>2013-04-14T11:18:56Z</time>
      </trkpt>
      <trkpt lat="45.0055" lon="5.60997">
        <ele>930.1</ele>
        <time>2013-04-14T11:19:04Z</time>
      </trkpt>
      <trkpt lat="45.00545" lon="5.60988">
        <ele>931.3</ele>
        <time>2013-04-14T11:19:12Z</time>
      </trkpt>
      <trkpt lat="45.00544" lon="5.60987">
        <ele>931.6</ele>
        <time>2013-04-14T11:19:13Z</time>
      </trkpt>
      <trkpt lat="45.00536" lon="5.60966">
        <ele>933.9</ele>
        <time>2013-04-14T11:19:30Z</time>
      </trkpt>
      <trkpt lat="45.00531" lon="5.60958">
        <ele>933.6</ele>
        <time>2013-04-14T11:19:36Z</time>
      </trkpt>
      <trkpt lat="45.00525" lon="5.6095">
        <ele>934.4</ele>
        <time>2013-04-14T11:19:42Z</time>
      </trkpt>
      <trkpt lat="45.00519" lon="5.60941">
        <ele>936.1</ele>
        <time>2013-04-14T11:19:49Z</time>
      </trkpt>
      <trkpt lat="45.00513" lon="5.60934">
        <ele>937.2</ele>
        <time>2013-04-14T11:19:55Z</time>
      </trkpt>
      <trkpt lat="45.00507" lon="5.60925">
        <ele>938.2</ele>
        <time>2013-04-14T11:20:02Z</time>
      </trkpt>
      <trkpt lat="45.00501" lon="5.60916">
        <ele>939.8</ele>
        <time>2013-04-14T11:20:09Z</time>
      </trkpt>
      <trkpt lat="45.00496" lon="5.60907">
        <ele>939.7</ele>
        <time>2013-04-14T11:20:17Z</time>
      </trkpt>
      <trkpt lat="45.00495" lon="5.60905">
        <ele>939.4</ele>
        <time>2013-04-14T11:20:18Z</time>
      </trkpt>
      <trkpt lat="45.00483" lon="5.60891">
        <ele>941.4</ele>
        <time>2013-04-14T11:20:34Z</time>
      </trkpt>
      <trkpt lat="45.00477" lon="5.60883">
        <ele>943.4</ele>
        <time>2013-04-14T11:20:44Z</time>
      </trkpt>
      <trkpt lat="45.00473" lon="5.60872">
        <ele>946.6</ele>
        <time>2013-04-14T11:21:52Z</time>
      </trkpt>
      <trkpt lat="45.00472" lon="5.60872">
        <ele>946.8</ele>
        <time>2013-04-14T11:21:53Z</time>
      </trkpt>
      <trkpt lat="45.00458" lon="5.60861">
        <ele>949.3</ele>
        <time>2013-04-14T11:22:23Z</time>
      </trkpt>
      <trkpt lat="45.0045" lon="5.60854">
        <ele>950.9</ele>
        <time>2013-04-14T11:22:34Z</time>
      </trkpt>
      <trkpt lat="45.00444" lon="5.60847">
        <ele>952.8</ele>
        <time>2013-04-14T11:22:44Z</time>
      </trkpt>
      <trkpt lat="45.00437" lon="5.6084">
        <ele>954.4</ele>
        <time>2013-04-14T11:22:54Z</time>
      </trkpt>
      <trkpt lat="45.00436" lon="5.6084">
        <ele>954.4</ele>
        <time>2013-04-14T11:22:55Z</time>
      </trkpt>
      <trkpt lat="45.00423" lon="5.60826">
        <ele>957.7</ele>
        <time>2013-04-14T11:23:14Z</time>
      </trkpt>
      <trkpt lat="45.00416" lon="5.60818">
        <ele>959.2</ele>
        <time>2013-04-14T11:23:25Z</time>
      </trkpt>
      <trkpt lat="45.0041" lon="5.60809">
        <ele>960.7</ele>
        <time>2013-04-14T11:23:36Z</time>
      </trkpt>
      <trkpt lat="45.00401" lon="5.60805">
        <ele>963.6</ele>
        <time>2013-04-14T11:24:11Z</time>
      </trkpt>
      <trkpt lat="45.00401" lon="5.60805">
        <ele>963.7</ele>
        <time>2013-04-14T11:24:12Z</time>
      </trkpt>
      <trkpt lat="45.00392" lon="5.60785">
        <ele>969.2</ele>
        <time>2013-04-14T11:24:39Z</time>
      </trkpt>
      <trkpt lat="45.00388" lon="5.60775">
        <ele>971</ele>
        <time>2013-04-14T11:24:48Z</time>
      </trkpt>
      <trkpt lat="45.00385" lon="5.60764">
        <ele>973.6</ele>
        <time>2013-04-14T11:25:02Z</time>
      </trkpt>
      <trkpt lat="45.00378" lon="5.60756">
        <ele>977.5</ele>
        <time>2013-04-14T11:25:29Z</time>
      </trkpt>
      <trkpt lat="45.00377" lon="5.60756">
        <ele>977.7</ele>
        <time>2013-04-14T11:25:30Z</time>
      </trkpt>
      <trkpt lat="45.00361" lon="5.60757">
        <ele>981.4</ele>
        <time>2013-04-14T11:25:58Z</time>
      </trkpt>
      <trkpt lat="45.00353" lon="5.60753">
        <ele>982.1</ele>
        <time>2013-04-14T11:26:09Z</time>
      </trkpt>
      <trkpt lat="45.00349" lon="5.60742">
        <ele>983.5</ele>
        <time>2013-04-14T11:26:23Z</time>
      </trkpt>
      <trkpt lat="45.00353" lon="5.60731">
        <ele>985.1</ele>
        <time>2013-04-14T11:26:43Z</time>
      </trkpt>
      <trkpt lat="45.00353" lon="5.6073">
        <ele>985.4</ele>
        <time>2013-04-14T11:26:44Z</time>
      </trkpt>
      <trkpt lat="45.00369" lon="5.60725">
        <ele>988</ele>
        <time>2013-04-14T11:27:12Z</time>
      </trkpt>
      <trkpt lat="45.00378" lon="5.60726">
        <ele>990.4</ele>
        <time>2013-04-14T11:27:25Z</time>
      </trkpt>
      <trkpt lat="45.00387" lon="5.60726">
        <ele>990.8</ele>
        <time>2013-04-14T11:27:43Z</time>
      </trkpt>
      <trkpt lat="45.00395" lon="5.60722">
        <ele>990.9</ele>
        <time>2013-04-14T11:28:16Z</time>
      </trkpt>
      <trkpt lat="45.00396" lon="5.60722">
        <ele>991.1</ele>
        <time>2013-04-14T11:28:17Z</time>
      </trkpt>
      <trkpt lat="45.00405" lon="5.60724">
        <ele>993.1</ele>
        <time>2013-04-14T11:29:29Z</time>
      </trkpt>
      <trkpt lat="45.00417" lon="5.60728">
        <ele>993.4</ele>
        <time>2013-04-14T11:29:34Z</time>
      </trkpt>
      <trkpt lat="45.00424" lon="5.60729">
        <ele>992.8</ele>
        <time>2013-04-14T11:29:37Z</time>
      </trkpt>
      <trkpt lat="45.00432" lon="5.6073">
        <ele>992.5</ele>
        <time>2013-04-14T11:29:40Z</time>
      </trkpt>
      <trkpt lat="45.00439" lon="5.60735">
        <ele>992.3</ele>
        <time>2013-04-14T11:29:42Z</time>
      </trkpt>
      <trkpt lat="45.00445" lon="5.60744">
        <ele>992.1</ele>
        <time>2013-04-14T11:29:44Z</time>
      </trkpt>
      <trkpt lat="45.00448" lon="5.60755">
        <ele>991.9</ele>
        <time>2013-04-14T11:29:46Z</time>
      </trkpt>
      <trkpt lat="45.00451" lon="5.60762">
        <ele>991.9</ele>
        <time>2013-04-14T11:29:47Z</time>
      </trkpt>
      <trkpt lat="45.00453" lon="5.60768">
        <ele>991.5</ele>
        <time>2013-04-14T11:29:48Z</time>
      </trkpt>
      <trkpt lat="45.00457" lon="5.60773">
        <ele>991.2</ele>
        <time>2013-04-14T11:29:49Z</time>
      </trkpt>
      <trkpt lat="45.00461" lon="5.60778">
        <ele>991</ele>
        <time>2013-04-14T11:29:50Z</time>
      </trkpt>
      <trkpt lat="45.00466" lon="5.60781">
        <ele>991.1</ele>
        <time>2013-04-14T11:29:51Z</time>
      </trkpt>
      <trkpt lat="45.00472" lon="5.60783">
        <ele>991.1</ele>
        <time>2013-04-14T11:29:52Z</time>
      </trkpt>
      <trkpt lat="45.00477" lon="5.60784">
        <ele>991.2</ele>
        <time>2013-04-14T11:29:53Z</time>
      </trkpt>
      <trkpt lat="45.00483" lon="5.60783">
        <ele>991</ele>
        <time>2013-04-14T11:29:54Z</time>
      </trkpt>
      <trkpt lat="45.00489" lon="5.60783">
        <ele>991</ele>
        <time>2013-04-14T11:29:55Z</time>
      </trkpt>
      <trkpt lat="45.00494" lon="5.60783">
        <ele>990.9</ele>
        <time>2013-04-14T11:29:56Z</time>
      </trkpt>
      <trkpt lat="45.005" lon="5.60783">
        <ele>990.3</ele>
        <time>2013-04-14T11:29:57Z</time>
      </trkpt>
      <trkpt lat="45.00506" lon="5.60783">
        <ele>989.9</ele>
        <time>2013-04-14T11:29:58Z</time>
      </trkpt>
      <trkpt lat="45.00512" lon="5.60784">
        <ele>989.5</ele>
        <time>2013-04-14T11:29:59Z</time>
      </trkpt>
      <trkpt lat="45.00518" lon="5.60786">
        <ele>989.4</ele>
        <time>2013-04-14T11:30:00Z</time>
      </trkpt>
      <trkpt lat="45.00524" lon="5.6079">
        <ele>989.3</ele>
        <time>2013-04-14T11:30:01Z</time>
      </trkpt>
      <trkpt lat="45.0053" lon="5.60794">
        <ele>989.2</ele>
        <time>2013-04-14T11:30:02Z</time>
      </trkpt>
      <trkpt lat="45.00535" lon="5.60799">
        <ele>989.2</ele>
        <time>2013-04-14T11:30:03Z</time>
      </trkpt>
      <trkpt lat="45.00541" lon="5.60804">
        <ele>988.8</ele>
        <time>2013-04-14T11:30:04Z</time>
      </trkpt>
      <trkpt lat="45.00546" lon="5.6081">
        <ele>988.6</ele>
        <time>2013-04-14T11:30:05Z</time>
      </trkpt>
      <trkpt lat="45.00551" lon="5.60816">
        <ele>988.4</ele>
        <time>2013-04-14T11:30:06Z</time>
      </trkpt>
      <trkpt lat="45.00557" lon="5.60821">
        <ele>987.8</ele>
        <time>2013-04-14T11:30:07Z</time>
      </trkpt>
      <trkpt lat="45.00563" lon="5.60827">
        <ele>987.4</ele>
        <time>2013-04-14T11:30:08Z</time>
      </trkpt>
      <trkpt lat="45.00569" lon="5.60833">
        <ele>987.1</ele>
        <time>2013-04-14T11:30:09Z</time>
      </trkpt>
      <trkpt lat="45.00575" lon="5.6084">
        <ele>986.8</ele>
        <time>2013-04-14T11:30:10Z</time>
      </trkpt>
      <trkpt lat="45.0058" lon="5.60848">
        <ele>986.7</ele>
        <time>2013-04-14T11:30:11Z</time>
      </trkpt>
      <trkpt lat="45.00585" lon="5.60858">
        <ele>986.6</ele>
        <time>2013-04-14T11:30:12Z</time>
      </trkpt>
      <trkpt lat="45.00588" lon="5.60869">
        <ele>986.1</ele>
        <time>2013-04-14T11:30:13Z</time>
      </trkpt>
      <trkpt lat="45.00589" lon="5.6088">
        <ele>985.8</ele>
        <time>2013-04-14T11:30:14Z</time>
      </trkpt>
      <trkpt lat="45.00591" lon="5.60891">
        <ele>985.5</ele>
        <time>2013-04-14T11:30:15Z</time>
      </trkpt>
      <trkpt lat="45.00594" lon="5.60902">
        <ele>985.5</ele>
        <time>2013-04-14T11:30:16Z</time>
      </trkpt>
      <trkpt lat="45.00599" lon="5.60911">
        <ele>985.4</ele>
        <time>2013-04-14T11:30:17Z</time>
      </trkpt>
      <trkpt lat="45.00605" lon="5.60919">
        <ele>985.4</ele>
        <time>2013-04-14T11:30:18Z</time>
      </trkpt>
      <trkpt lat="45.00611" lon="5.60925">
        <ele>984.9</ele>
        <time>2013-04-14T11:30:19Z</time>
      </trkpt>
      <trkpt lat="45.00617" lon="5.60932">
        <ele>984.6</ele>
        <time>2013-04-14T11:30:20Z</time>
      </trkpt>
      <trkpt lat="45.00624" lon="5.60937">
        <ele>984.3</ele>
        <time>2013-04-14T11:30:21Z</time>
      </trkpt>
      <trkpt lat="45.00631" lon="5.60943">
        <ele>984.2</ele>
        <time>2013-04-14T11:30:22Z</time>
      </trkpt>
      <trkpt lat="45.00638" lon="5.60949">
        <ele>983.8</ele>
        <time>2013-04-14T11:30:23Z</time>
      </trkpt>
      <trkpt lat="45.00645" lon="5.60955">
        <ele>983.6</ele>
        <time>2013-04-14T11:30:24Z</time>
      </trkpt>
      <trkpt lat="45.00652" lon="5.60962">
        <ele>983.4</ele>
        <time>2013-04-14T11:30:25Z</time>
      </trkpt>
      <trkpt lat="45.00658" lon="5.6097">
        <ele>983</ele>
        <time>2013-04-14T11:30:26Z</time>
      </trkpt>
      <trkpt lat="45.00664" lon="5.60978">
        <ele>982.7</ele>
        <time>2013-04-14T11:30:27Z</time>
      </trkpt>
      <trkpt lat="45.00671" lon="5.60986">
        <ele>982.5</ele>
        <time>2013-04-14T11:30:28Z</time>
      </trkpt>
      <trkpt lat="45.00677" lon="5.60994">
        <ele>982.4</ele>
        <time>2013-04-14T11:30:29Z</time>
      </trkpt>
      <trkpt lat="45.00683" lon="5.61001">
        <ele>982.4</ele>
        <time>2013-04-14T11:30:30Z</time>
      </trkpt>
      <trkpt lat="45.0069" lon="5.61008">
        <ele>982.3</ele>
        <time>2013-04-14T11:30:31Z</time>
      </trkpt>
      <trkpt lat="45.00697" lon="5.61014">
        <ele>981.5</ele>
        <time>2013-04-14T11:30:32Z</time>
      </trkpt>
      <trkpt lat="45.00704" lon="5.6102">
        <ele>980.9</ele>
        <time>2013-04-14T11:30:33Z</time>
      </trkpt>
      <trkpt lat="45.0071" lon="5.61026">
        <ele>980.5</ele>
        <time>2013-04-14T11:30:34Z</time>
      </trkpt>
      <trkpt lat="45.00715" lon="5.61033">
        <ele>980.3</ele>
        <time>2013-04-14T11:30:35Z</time>
      </trkpt>
      <trkpt lat="45.0072" lon="5.61042">
        <ele>980.3</ele>
        <time>2013-04-14T11:30:36Z</time>
      </trkpt>
      <trkpt lat="45.00724" lon="5.61051">
        <ele>980.2</ele>
        <time>2013-04-14T11:30:37Z</time>
      </trkpt>
      <trkpt lat="45.00729" lon="5.6106">
        <ele>980.2</ele>
        <time>2013-04-14T11:30:38Z</time>
      </trkpt>
      <trkpt lat="45.00735" lon="5.61066">
        <ele>979.9</ele>
        <time>2013-04-14T11:30:39Z</time>
      </trkpt>
      <trkpt lat="45.00741" lon="5.61072">
        <ele>979.7</ele>
        <time>2013-04-14T11:30:40Z</time>
      </trkpt>
      <trkpt lat="45.00748" lon="5.61077">
        <ele>979.5</ele>
        <time>2013-04-14T11:30:41Z</time>
      </trkpt>
      <trkpt lat="45.00754" lon="5.61081">
        <ele>978.9</ele>
        <time>2013-04-14T11:30:42Z</time>
      </trkpt>
      <trkpt lat="45.0076" lon="5.61086">
        <ele>978.4</ele>
        <time>2013-04-14T11:30:43Z</time>
      </trkpt>
      <trkpt lat="45.00765" lon="5.61091">
        <ele>978.1</ele>
        <time>2013-04-14T11:30:44Z</time>
      </trkpt>
      <trkpt lat="45.0077" lon="5.61095">
        <ele>977.5</ele>
        <time>2013-04-14T11:30:45Z</time>
      </trkpt>
      <trkpt lat="45.00775" lon="5.61099">
        <ele>977.1</ele>
        <time>2013-04-14T11:30:46Z</time>
      </trkpt>
      <trkpt lat="45.00781" lon="5.61103">
        <ele>976.9</ele>
        <time>2013-04-14T11:30:47Z</time>
      </trkpt>
      <trkpt lat="45.00788" lon="5.61106">
        <ele>976.2</ele>
        <time>2013-04-14T11:30:48Z</time>
      </trkpt>
      <trkpt lat="45.00795" lon="5.61108">
        <ele>975.7</ele>
        <time>2013-04-14T11:30:49Z</time>
      </trkpt>
      <trkpt lat="45.00801" lon="5.61111">
        <ele>975.3</ele>
        <time>2013-04-14T11:30:50Z</time>
      </trkpt>
      <trkpt lat="45.00808" lon="5.61115">
        <ele>974.8</ele>
        <time>2013-04-14T11:30:51Z</time>
      </trkpt>
      <trkpt lat="45.00814" lon="5.6112">
        <ele>974.4</ele>
        <time>2013-04-14T11:30:52Z</time>
      </trkpt>
      <trkpt lat="45.00821" lon="5.61124">
        <ele>974.1</ele>
        <time>2013-04-14T11:30:53Z</time>
      </trkpt>
      <trkpt lat="45.00826" lon="5.61129">
        <ele>973.9</ele>
        <time>2013-04-14T11:30:54Z</time>
      </trkpt>
      <trkpt lat="45.00832" lon="5.61134">
        <ele>973.5</ele>
        <time>2013-04-14T11:30:55Z</time>
      </trkpt>
      <trkpt lat="45.00838" lon="5.61138">
        <ele>973.2</ele>
        <time>2013-04-14T11:30:56Z</time>
      </trkpt>
      <trkpt lat="45.00844" lon="5.61143">
        <ele>973</ele>
        <time>2013-04-14T11:30:57Z</time>
      </trkpt>
      <trkpt lat="45.0085" lon="5.61148">
        <ele>972.7</ele>
        <time>2013-04-14T11:30:58Z</time>
      </trkpt>
      <trkpt lat="45.00856" lon="5.61152">
        <ele>972.4</ele>
        <time>2013-04-14T11:30:59Z</time>
      </trkpt>
      <trkpt lat="45.00862" lon="5.61157">
        <ele>972.2</ele>
        <time>2013-04-14T11:31:00Z</time>
      </trkpt>
      <trkpt lat="45.00869" lon="5.61162">
        <ele>972.1</ele>
        <time>2013-04-14T11:31:01Z</time>
      </trkpt>
      <trkpt lat="45.00874" lon="5.61168">
        <ele>972</ele>
        <time>2013-04-14T11:31:02Z</time>
      </trkpt>
      <trkpt lat="45.0088" lon="5.61174">
        <ele>971.9</ele>
        <time>2013-04-14T11:31:03Z</time>
      </trkpt>
      <trkpt lat="45.00885" lon="5.61182">
        <ele>971.7</ele>
        <time>2013-04-14T11:31:04Z</time>
      </trkpt>
      <trkpt lat="45.00891" lon="5.61189">
        <ele>971.5</ele>
        <time>2013-04-14T11:31:05Z</time>
      </trkpt>
      <trkpt lat="45.00897" lon="5.61195">
        <ele>971.4</ele>
        <time>2013-04-14T11:31:06Z</time>
      </trkpt>
      <trkpt lat="45.00903" lon="5.612">
        <ele>970.8</ele>
        <time>2013-04-14T11:31:07Z</time>
      </trkpt>
      <trkpt lat="45.0091" lon="5.61205">
        <ele>970.3</ele>
        <time>2013-04-14T11:31:08Z</time>
      </trkpt>
      <trkpt lat="45.00916" lon="5.61207">
        <ele>969.9</ele>
        <time>2013-04-14T11:31:09Z</time>
      </trkpt>
      <trkpt lat="45.00923" lon="5.61209">
        <ele>969.6</ele>
        <time>2013-04-14T11:31:10Z</time>
      </trkpt>
      <trkpt lat="45.00929" lon="5.61209">
        <ele>969.3</ele>
        <time>2013-04-14T11:31:11Z</time>
      </trkpt>
      <trkpt lat="45.00936" lon="5.61209">
        <ele>969.1</ele>
        <time>2013-04-14T11:31:12Z</time>
      </trkpt>
      <trkpt lat="45.00943" lon="5.61207">
        <ele>968.9</ele>
        <time>2013-04-14T11:31:13Z</time>
      </trkpt>
      <trkpt lat="45.0095" lon="5.61205">
        <ele>968.5</ele>
        <time>2013-04-14T11:31:14Z</time>
      </trkpt>
      <trkpt lat="45.00958" lon="5.61202">
        <ele>968.2</ele>
        <time>2013-04-14T11:31:15Z</time>
      </trkpt>
      <trkpt lat="45.00965" lon="5.61198">
        <ele>967.9</ele>
        <time>2013-04-14T11:31:16Z</time>
      </trkpt>
      <trkpt lat="45.00972" lon="5.61194">
        <ele>967.5</ele>
        <time>2013-04-14T11:31:17Z</time>
      </trkpt>
      <trkpt lat="45.0098" lon="5.6119">
        <ele>967.1</ele>
        <time>2013-04-14T11:31:18Z</time>
      </trkpt>
      <trkpt lat="45.00987" lon="5.61186">
        <ele>966.9</ele>
        <time>2013-04-14T11:31:19Z</time>
      </trkpt>
      <trkpt lat="45.00995" lon="5.61184">
        <ele>966.8</ele>
        <time>2013-04-14T11:31:20Z</time>
      </trkpt>
      <trkpt lat="45.01004" lon="5.61183">
        <ele>966.8</ele>
        <time>2013-04-14T11:31:21Z</time>
      </trkpt>
      <trkpt lat="45.01012" lon="5.61183">
        <ele>966.8</ele>
        <time>2013-04-14T11:31:22Z</time>
      </trkpt>
      <trkpt lat="45.01021" lon="5.61185">
        <ele>966.1</ele>
        <time>2013-04-14T11:31:23Z</time>
      </trkpt>
      <trkpt lat="45.01029" lon="5.61187">
        <ele>965.6</ele>
        <time>2013-04-14T11:31:24Z</time>
      </trkpt>
      <trkpt lat="45.01037" lon="5.6119">
        <ele>965.2</ele>
        <time>2013-04-14T11:31:25Z</time>
      </trkpt>
      <trkpt lat="45.01045" lon="5.61195">
        <ele>964.9</ele>
        <time>2013-04-14T11:31:26Z</time>
      </trkpt>
      <trkpt lat="45.01053" lon="5.612">
        <ele>964.8</ele>
        <time>2013-04-14T11:31:27Z</time>
      </trkpt>
      <trkpt lat="45.0106" lon="5.61205">
        <ele>964.7</ele>
        <time>2013-04-14T11:31:28Z</time>
      </trkpt>
      <trkpt lat="45.01068" lon="5.61211">
        <ele>964.6</ele>
        <time>2013-04-14T11:31:29Z</time>
      </trkpt>
      <trkpt lat="45.01075" lon="5.61217">
        <ele>963.8</ele>
        <time>2013-04-14T11:31:30Z</time>
      </trkpt>
      <trkpt lat="45.01083" lon="5.61224">
        <ele>963.2</ele>
        <time>2013-04-14T11:31:31Z</time>
      </trkpt>
      <trkpt lat="45.01091" lon="5.6123">
        <ele>962.7</ele>
        <time>2013-04-14T11:31:32Z</time>
      </trkpt>
      <trkpt lat="45.01099" lon="5.61236">
        <ele>962.5</ele>
        <time>2013-04-14T11:31:33Z</time>
      </trkpt>
      <trkpt lat="45.01107" lon="5.61242">
        <ele>962.3</ele>
        <time>2013-04-14T11:31:34Z</time>
      </trkpt>
      <trkpt lat="45.01116" lon="5.61246">
        <ele>962.1</ele>
        <time>2013-04-14T11:31:35Z</time>
      </trkpt>
      <trkpt lat="45.01125" lon="5.61249">
        <ele>961.4</ele>
        <time>2013-04-14T11:31:36Z</time>
      </trkpt>
      <trkpt lat="45.01134" lon="5.6125">
        <ele>960.8</ele>
        <time>2013-04-14T11:31:37Z</time>
      </trkpt>
      <trkpt lat="45.01144" lon="5.6125">
        <ele>960.4</ele>
        <time>2013-04-14T11:31:38Z</time>
      </trkpt>
      <trkpt lat="45.01154" lon="5.6125">
        <ele>959.5</ele>
        <time>2013-04-14T11:31:39Z</time>
      </trkpt>
      <trkpt lat="45.01164" lon="5.6125">
        <ele>958.8</ele>
        <time>2013-04-14T11:31:40Z</time>
      </trkpt>
      <trkpt lat="45.01173" lon="5.61251">
        <ele>958.2</ele>
        <time>2013-04-14T11:31:41Z</time>
      </trkpt>
      <trkpt lat="45.01183" lon="5.61252">
        <ele>957.8</ele>
        <time>2013-04-14T11:31:42Z</time>
      </trkpt>
      <trkpt lat="45.01192" lon="5.61254">
        <ele>957.2</ele>
        <time>2013-04-14T11:31:43Z</time>
      </trkpt>
      <trkpt lat="45.01202" lon="5.61256">
        <ele>956.7</ele>
        <time>2013-04-14T11:31:44Z</time>
      </trkpt>
      <trkpt lat="45.01212" lon="5.61259">
        <ele>956.4</ele>
        <time>2013-04-14T11:31:45Z</time>
      </trkpt>
      <trkpt lat="45.01223" lon="5.61261">
        <ele>955.9</ele>
        <time>2013-04-14T11:31:46Z</time>
      </trkpt>
      <trkpt lat="45.01233" lon="5.61264">
        <ele>955.6</ele>
        <time>2013-04-14T11:31:47Z</time>
      </trkpt>
      <trkpt lat="45.01243" lon="5.61266">
        <ele>955.3</ele>
        <time>2013-04-14T11:31:48Z</time>
      </trkpt>
      <trkpt lat="45.01254" lon="5.61267">
        <ele>954.5</ele>
        <time>2013-04-14T11:31:49Z</time>
      </trkpt>
      <trkpt lat="45.01264" lon="5.61268">
        <ele>953.9</ele>
        <time>2013-04-14T11:31:50Z</time>
      </trkpt>
      <trkpt lat="45.01275" lon="5.61269">
        <ele>953.5</ele>
        <time>2013-04-14T11:31:51Z</time>
      </trkpt>
      <trkpt lat="45.01285" lon="5.61271">
        <ele>952.8</ele>
        <time>2013-04-14T11:31:52Z</time>
      </trkpt>
      <trkpt lat="45.01295" lon="5.61275">
        <ele>952.2</ele>
        <time>2013-04-14T11:31:53Z</time>
      </trkpt>
      <trkpt lat="45.01305" lon="5.61279">
        <ele>951.8</ele>
        <time>2013-04-14T11:31:54Z</time>
      </trkpt>
      <trkpt lat="45.01314" lon="5.61284">
        <ele>951</ele>
        <time>2013-04-14T11:31:55Z</time>
      </trkpt>
      <trkpt lat="45.01324" lon="5.61288">
        <ele>950.4</ele>
        <time>2013-04-14T11:31:56Z</time>
      </trkpt>
      <trkpt lat="45.01334" lon="5.61293">
        <ele>949.9</ele>
        <time>2013-04-14T11:31:57Z</time>
      </trkpt>
      <trkpt lat="45.01343" lon="5.61298">
        <ele>949.5</ele>
        <time>2013-04-14T11:31:58Z</time>
      </trkpt>
      <trkpt lat="45.01353" lon="5.61302">
        <ele>949.1</ele>
        <time>2013-04-14T11:31:59Z</time>
      </trkpt>
      <trkpt lat="45.01363" lon="5.61307">
        <ele>948.9</ele>
        <time>2013-04-14T11:32:00Z</time>
      </trkpt>
      <trkpt lat="45.01372" lon="5.61311">
        <ele>948.7</ele>
        <time>2013-04-14T11:32:01Z</time>
      </trkpt>
      <trkpt lat="45.01381" lon="5.61315">
        <ele>948.1</ele>
        <time>2013-04-14T11:32:02Z</time>
      </trkpt>
      <trkpt lat="45.0139" lon="5.61319">
        <ele>947.7</ele>
        <time>2013-04-14T11:32:03Z</time>
      </trkpt>
      <trkpt lat="45.01398" lon="5.61324">
        <ele>947.4</ele>
        <time>2013-04-14T11:32:04Z</time>
      </trkpt>
      <trkpt lat="45.01406" lon="5.61329">
        <ele>947</ele>
        <time>2013-04-14T11:32:05Z</time>
      </trkpt>
      <trkpt lat="45.01413" lon="5.61334">
        <ele>946.8</ele>
        <time>2013-04-14T11:32:06Z</time>
      </trkpt>
      <trkpt lat="45.01419" lon="5.61339">
        <ele>946.7</ele>
        <time>2013-04-14T11:32:07Z</time>
      </trkpt>
      <trkpt lat="45.01424" lon="5.61344">
        <ele>946</ele>
        <time>2013-04-14T11:32:08Z</time>
      </trkpt>
      <trkpt lat="45.01429" lon="5.61348">
        <ele>945.6</ele>
        <time>2013-04-14T11:32:09Z</time>
      </trkpt>
      <trkpt lat="45.01433" lon="5.61353">
        <ele>945.2</ele>
        <time>2013-04-14T11:32:10Z</time>
      </trkpt>
      <trkpt lat="45.01437" lon="5.61358">
        <ele>945.2</ele>
        <time>2013-04-14T11:32:11Z</time>
      </trkpt>
      <trkpt lat="45.0144" lon="5.61363">
        <ele>945.2</ele>
        <time>2013-04-14T11:32:12Z</time>
      </trkpt>
      <trkpt lat="45.01443" lon="5.61368">
        <ele>945.2</ele>
        <time>2013-04-14T11:32:13Z</time>
      </trkpt>
      <trkpt lat="45.01449" lon="5.61375">
        <ele>945.1</ele>
        <time>2013-04-14T11:32:15Z</time>
      </trkpt>
      <trkpt lat="45.01447" lon="5.61366">
        <ele>945.5</ele>
        <time>2013-04-14T11:32:20Z</time>
      </trkpt>
      <trkpt lat="45.01443" lon="5.61359">
        <ele>945</ele>
        <time>2013-04-14T11:32:22Z</time>
      </trkpt>
      <trkpt lat="45.01439" lon="5.61349">
        <ele>944.6</ele>
        <time>2013-04-14T11:32:25Z</time>
      </trkpt>
      <trkpt lat="45.01437" lon="5.61361">
        <ele>945.2</ele>
        <time>2013-04-14T11:33:25Z</time>
      </trkpt>
      <trkpt lat="45.01439" lon="5.61364">
        <ele>945.1</ele>
        <time>2013-04-14T11:33:26Z</time>
      </trkpt>
      <trkpt lat="45.01449" lon="5.61376">
        <ele>945.1</ele>
        <time>2013-04-14T11:33:46Z</time>
      </trkpt>
      <trkpt lat="45.01454" lon="5.61382">
        <ele>945.5</ele>
        <time>2013-04-14T11:33:49Z</time>
      </trkpt>
      <trkpt lat="45.01459" lon="5.61389">
        <ele>945.7</ele>
        <time>2013-04-14T11:33:52Z</time>
      </trkpt>
      <trkpt lat="45.01466" lon="5.61396">
        <ele>946</ele>
        <time>2013-04-14T11:33:56Z</time>
      </trkpt>
      <trkpt lat="45.01472" lon="5.61405">
        <ele>947.2</ele>
        <time>2013-04-14T11:34:00Z</time>
      </trkpt>
      <trkpt lat="45.01478" lon="5.6141">
        <ele>947.8</ele>
        <time>2013-04-14T11:34:03Z</time>
      </trkpt>
      <trkpt lat="45.01485" lon="5.61418">
        <ele>948.3</ele>
        <time>2013-04-14T11:34:07Z</time>
      </trkpt>
      <trkpt lat="45.01492" lon="5.61426">
        <ele>949.5</ele>
        <time>2013-04-14T11:34:11Z</time>
      </trkpt>
      <trkpt lat="45.01498" lon="5.61433">
        <ele>949.9</ele>
        <time>2013-04-14T11:34:15Z</time>
      </trkpt>
      <trkpt lat="45.01503" lon="5.61441">
        <ele>951.4</ele>
        <time>2013-04-14T11:34:19Z</time>
      </trkpt>
      <trkpt lat="45.01509" lon="5.61451">
        <ele>951.7</ele>
        <time>2013-04-14T11:34:23Z</time>
      </trkpt>
      <trkpt lat="45.01516" lon="5.61459">
        <ele>952.2</ele>
        <time>2013-04-14T11:34:27Z</time>
      </trkpt>
      <trkpt lat="45.01518" lon="5.6146">
        <ele>952.2</ele>
        <time>2013-04-14T11:34:28Z</time>
      </trkpt>
      <trkpt lat="45.01531" lon="5.61465">
        <ele>953.9</ele>
        <time>2013-04-14T11:34:35Z</time>
      </trkpt>
      <trkpt lat="45.0154" lon="5.61465">
        <ele>955.7</ele>
        <time>2013-04-14T11:34:39Z</time>
      </trkpt>
      <trkpt lat="45.01548" lon="5.61464">
        <ele>956.4</ele>
        <time>2013-04-14T11:34:43Z</time>
      </trkpt>
      <trkpt lat="45.01556" lon="5.61463">
        <ele>956.2</ele>
        <time>2013-04-14T11:34:47Z</time>
      </trkpt>
      <trkpt lat="45.01563" lon="5.61458">
        <ele>957.6</ele>
        <time>2013-04-14T11:34:51Z</time>
      </trkpt>
      <trkpt lat="45.01568" lon="5.61452">
        <ele>958.5</ele>
        <time>2013-04-14T11:34:55Z</time>
      </trkpt>
      <trkpt lat="45.01574" lon="5.61445">
        <ele>959.5</ele>
        <time>2013-04-14T11:34:59Z</time>
      </trkpt>
      <trkpt lat="45.0158" lon="5.61438">
        <ele>959.9</ele>
        <time>2013-04-14T11:35:03Z</time>
      </trkpt>
      <trkpt lat="45.01586" lon="5.61432">
        <ele>960.9</ele>
        <time>2013-04-14T11:35:07Z</time>
      </trkpt>
      <trkpt lat="45.01592" lon="5.61423">
        <ele>961.9</ele>
        <time>2013-04-14T11:35:12Z</time>
      </trkpt>
      <trkpt lat="45.016" lon="5.61416">
        <ele>963.2</ele>
        <time>2013-04-14T11:35:17Z</time>
      </trkpt>
      <trkpt lat="45.01607" lon="5.61408">
        <ele>963.2</ele>
        <time>2013-04-14T11:35:22Z</time>
      </trkpt>
      <trkpt lat="45.01613" lon="5.61401">
        <ele>963.5</ele>
        <time>2013-04-14T11:35:27Z</time>
      </trkpt>
      <trkpt lat="45.01619" lon="5.61392">
        <ele>965.1</ele>
        <time>2013-04-14T11:35:32Z</time>
      </trkpt>
      <trkpt lat="45.0162" lon="5.61391">
        <ele>965.3</ele>
        <time>2013-04-14T11:35:33Z</time>
      </trkpt>
      <trkpt lat="45.01631" lon="5.61376">
        <ele>966.9</ele>
        <time>2013-04-14T11:35:42Z</time>
      </trkpt>
      <trkpt lat="45.01636" lon="5.61368">
        <ele>967.8</ele>
        <time>2013-04-14T11:35:47Z</time>
      </trkpt>
      <trkpt lat="45.01641" lon="5.6136">
        <ele>968.7</ele>
        <time>2013-04-14T11:35:52Z</time>
      </trkpt>
      <trkpt lat="45.01647" lon="5.61352">
        <ele>969.5</ele>
        <time>2013-04-14T11:35:57Z</time>
      </trkpt>
      <trkpt lat="45.01654" lon="5.61344">
        <ele>970.2</ele>
        <time>2013-04-14T11:36:02Z</time>
      </trkpt>
      <trkpt lat="45.01662" lon="5.61338">
        <ele>971.3</ele>
        <time>2013-04-14T11:36:07Z</time>
      </trkpt>
      <trkpt lat="45.01669" lon="5.61333">
        <ele>971.9</ele>
        <time>2013-04-14T11:36:12Z</time>
      </trkpt>
      <trkpt lat="45.01677" lon="5.61331">
        <ele>972.2</ele>
        <time>2013-04-14T11:36:16Z</time>
      </trkpt>
      <trkpt lat="45.01684" lon="5.61328">
        <ele>973</ele>
        <time>2013-04-14T11:36:20Z</time>
      </trkpt>
      <trkpt lat="45.01691" lon="5.61325">
        <ele>973</ele>
        <time>2013-04-14T11:36:24Z</time>
      </trkpt>
      <trkpt lat="45.01698" lon="5.61322">
        <ele>973.2</ele>
        <time>2013-04-14T11:36:28Z</time>
      </trkpt>
      <trkpt lat="45.01706" lon="5.6132">
        <ele>974.9</ele>
        <time>2013-04-14T11:36:32Z</time>
      </trkpt>
      <trkpt lat="45.01713" lon="5.61319">
        <ele>975.7</ele>
        <time>2013-04-14T11:36:36Z</time>
      </trkpt>
      <trkpt lat="45.01715" lon="5.6132">
        <ele>975.6</ele>
        <time>2013-04-14T11:36:37Z</time>
      </trkpt>
      <trkpt lat="45.01728" lon="5.61326">
        <ele>976.4</ele>
        <time>2013-04-14T11:36:45Z</time>
      </trkpt>
      <trkpt lat="45.01735" lon="5.61333">
        <ele>977.3</ele>
        <time>2013-04-14T11:36:50Z</time>
      </trkpt>
      <trkpt lat="45.01743" lon="5.61339">
        <ele>978.7</ele>
        <time>2013-04-14T11:36:55Z</time>
      </trkpt>
      <trkpt lat="45.01751" lon="5.61345">
        <ele>979.7</ele>
        <time>2013-04-14T11:37:00Z</time>
      </trkpt>
      <trkpt lat="45.01758" lon="5.61349">
        <ele>980</ele>
        <time>2013-04-14T11:37:04Z</time>
      </trkpt>
      <trkpt lat="45.01765" lon="5.61351">
        <ele>981</ele>
        <time>2013-04-14T11:37:08Z</time>
      </trkpt>
      <trkpt lat="45.01774" lon="5.61351">
        <ele>981.2</ele>
        <time>2013-04-14T11:37:12Z</time>
      </trkpt>
      <trkpt lat="45.01782" lon="5.61349">
        <ele>981.4</ele>
        <time>2013-04-14T11:37:16Z</time>
      </trkpt>
      <trkpt lat="45.01789" lon="5.61345">
        <ele>981.5</ele>
        <time>2013-04-14T11:37:20Z</time>
      </trkpt>
      <trkpt lat="45.01797" lon="5.61341">
        <ele>981.5</ele>
        <time>2013-04-14T11:37:24Z</time>
      </trkpt>
      <trkpt lat="45.01805" lon="5.61337">
        <ele>982.6</ele>
        <time>2013-04-14T11:37:28Z</time>
      </trkpt>
      <trkpt lat="45.01813" lon="5.61334">
        <ele>982.6</ele>
        <time>2013-04-14T11:37:32Z</time>
      </trkpt>
      <trkpt lat="45.01821" lon="5.61332">
        <ele>983.8</ele>
        <time>2013-04-14T11:37:36Z</time>
      </trkpt>
      <trkpt lat="45.01829" lon="5.6133">
        <ele>984.5</ele>
        <time>2013-04-14T11:37:40Z</time>
      </trkpt>
      <trkpt lat="45.01831" lon="5.61329">
        <ele>984.7</ele>
        <time>2013-04-14T11:37:41Z</time>
      </trkpt>
      <trkpt lat="45.01846" lon="5.61327">
        <ele>984.7</ele>
        <time>2013-04-14T11:37:48Z</time>
      </trkpt>
      <trkpt lat="45.01853" lon="5.61326">
        <ele>985.1</ele>
        <time>2013-04-14T11:37:52Z</time>
      </trkpt>
      <trkpt lat="45.01861" lon="5.61325">
        <ele>986.4</ele>
        <time>2013-04-14T11:37:56Z</time>
      </trkpt>
      <trkpt lat="45.01868" lon="5.61324">
        <ele>987.1</ele>
        <time>2013-04-14T11:38:00Z</time>
      </trkpt>
      <trkpt lat="45.01875" lon="5.61322">
        <ele>987.8</ele>
        <time>2013-04-14T11:38:04Z</time>
      </trkpt>
      <trkpt lat="45.01883" lon="5.6132">
        <ele>988.7</ele>
        <time>2013-04-14T11:38:08Z</time>
      </trkpt>
      <trkpt lat="45.0189" lon="5.61318">
        <ele>989.3</ele>
        <time>2013-04-14T11:38:12Z</time>
      </trkpt>
      <trkpt lat="45.01897" lon="5.61314">
        <ele>989.7</ele>
        <time>2013-04-14T11:38:16Z</time>
      </trkpt>
      <trkpt lat="45.01906" lon="5.61311">
        <ele>990</ele>
        <time>2013-04-14T11:38:21Z</time>
      </trkpt>
      <trkpt lat="45.01914" lon="5.61307">
        <ele>990.5</ele>
        <time>2013-04-14T11:38:26Z</time>
      </trkpt>
      <trkpt lat="45.01922" lon="5.61303">
        <ele>991.7</ele>
        <time>2013-04-14T11:38:31Z</time>
      </trkpt>
      <trkpt lat="45.0193" lon="5.61298">
        <ele>992.5</ele>
        <time>2013-04-14T11:38:36Z</time>
      </trkpt>
      <trkpt lat="45.01938" lon="5.61292">
        <ele>994.3</ele>
        <time>2013-04-14T11:38:41Z</time>
      </trkpt>
      <trkpt lat="45.0194" lon="5.61291">
        <ele>994.5</ele>
        <time>2013-04-14T11:38:42Z</time>
      </trkpt>
      <trkpt lat="45.01953" lon="5.6128">
        <ele>996.6</ele>
        <time>2013-04-14T11:38:51Z</time>
      </trkpt>
      <trkpt lat="45.01961" lon="5.61274">
        <ele>997.3</ele>
        <time>2013-04-14T11:38:56Z</time>
      </trkpt>
      <trkpt lat="45.01968" lon="5.61269">
        <ele>999</ele>
        <time>2013-04-14T11:39:01Z</time>
      </trkpt>
      <trkpt lat="45.01975" lon="5.61262">
        <ele>998.9</ele>
        <time>2013-04-14T11:39:07Z</time>
      </trkpt>
      <trkpt lat="45.01982" lon="5.61256">
        <ele>1000.3</ele>
        <time>2013-04-14T11:39:13Z</time>
      </trkpt>
      <trkpt lat="45.0199" lon="5.61251">
        <ele>1001.5</ele>
        <time>2013-04-14T11:39:19Z</time>
      </trkpt>
      <trkpt lat="45.01998" lon="5.61244">
        <ele>1003.1</ele>
        <time>2013-04-14T11:39:26Z</time>
      </trkpt>
      <trkpt lat="45.02005" lon="5.6124">
        <ele>1003.8</ele>
        <time>2013-04-14T11:39:33Z</time>
      </trkpt>
      <trkpt lat="45.02011" lon="5.61232">
        <ele>1005.6</ele>
        <time>2013-04-14T11:39:42Z</time>
      </trkpt>
      <trkpt lat="45.02012" lon="5.61231">
        <ele>1005.7</ele>
        <time>2013-04-14T11:39:43Z</time>
      </trkpt>
      <trkpt lat="45.02025" lon="5.61218">
        <ele>1008</ele>
        <time>2013-04-14T11:39:58Z</time>
      </trkpt>
      <trkpt lat="45.02031" lon="5.6121">
        <ele>1008.7</ele>
        <time>2013-04-14T11:40:05Z</time>
      </trkpt>
      <trkpt lat="45.02037" lon="5.61204">
        <ele>1010.3</ele>
        <time>2013-04-14T11:40:11Z</time>
      </trkpt>
      <trkpt lat="45.02043" lon="5.61196">
        <ele>1011.6</ele>
        <time>2013-04-14T11:40:17Z</time>
      </trkpt>
      <trkpt lat="45.0205" lon="5.6119">
        <ele>1012.3</ele>
        <time>2013-04-14T11:40:23Z</time>
      </trkpt>
      <trkpt lat="45.02057" lon="5.61185">
        <ele>1013.5</ele>
        <time>2013-04-14T11:40:29Z</time>
      </trkpt>
      <trkpt lat="45.02064" lon="5.6118">
        <ele>1014.8</ele>
        <time>2013-04-14T11:40:35Z</time>
      </trkpt>
      <trkpt lat="45.02073" lon="5.61175">
        <ele>1016.5</ele>
        <time>2013-04-14T11:40:41Z</time>
      </trkpt>
      <trkpt lat="45.0208" lon="5.61171">
        <ele>1017.7</ele>
        <time>2013-04-14T11:40:46Z</time>
      </trkpt>
      <trkpt lat="45.02081" lon="5.6117">
        <ele>1017.9</ele>
        <time>2013-04-14T11:40:47Z</time>
      </trkpt>
      <trkpt lat="45.02094" lon="5.61163">
        <ele>1019.1</ele>
        <time>2013-04-14T11:40:56Z</time>
      </trkpt>
      <trkpt lat="45.02102" lon="5.61158">
        <ele>1021.7</ele>
        <time>2013-04-14T11:41:02Z</time>
      </trkpt>
      <trkpt lat="45.0211" lon="5.61155">
        <ele>1022.3</ele>
        <time>2013-04-14T11:41:07Z</time>
      </trkpt>
      <trkpt lat="45.02117" lon="5.61151">
        <ele>1023</ele>
        <time>2013-04-14T11:41:12Z</time>
      </trkpt>
      <trkpt lat="45.02124" lon="5.61147">
        <ele>1024.3</ele>
        <time>2013-04-14T11:41:17Z</time>
      </trkpt>
      <trkpt lat="45.02131" lon="5.61142">
        <ele>1024.7</ele>
        <time>2013-04-14T11:41:22Z</time>
      </trkpt>
      <trkpt lat="45.02139" lon="5.61137">
        <ele>1025.8</ele>
        <time>2013-04-14T11:41:27Z</time>
      </trkpt>
      <trkpt lat="45.02148" lon="5.61133">
        <ele>1027</ele>
        <time>2013-04-14T11:41:32Z</time>
      </trkpt>
      <trkpt lat="45.02155" lon="5.61128">
        <ele>1028.8</ele>
        <time>2013-04-14T11:41:37Z</time>
      </trkpt>
      <trkpt lat="45.02163" lon="5.61124">
        <ele>1030.6</ele>
        <time>2013-04-14T11:41:42Z</time>
      </trkpt>
      <trkpt lat="45.02171" lon="5.6112">
        <ele>1031.2</ele>
        <time>2013-04-14T11:41:47Z</time>
      </trkpt>
      <trkpt lat="45.02173" lon="5.61119">
        <ele>1031.1</ele>
        <time>2013-04-14T11:41:48Z</time>
      </trkpt>
      <trkpt lat="45.02187" lon="5.61112">
        <ele>1033.2</ele>
        <time>2013-04-14T11:41:57Z</time>
      </trkpt>
      <trkpt lat="45.02196" lon="5.6111">
        <ele>1034.7</ele>
        <time>2013-04-14T11:42:04Z</time>
      </trkpt>
      <trkpt lat="45.02203" lon="5.61108">
        <ele>1035.4</ele>
        <time>2013-04-14T11:42:09Z</time>
      </trkpt>
      <trkpt lat="45.02211" lon="5.61103">
        <ele>1036.7</ele>
        <time>2013-04-14T11:42:15Z</time>
      </trkpt>
      <trkpt lat="45.02219" lon="5.61099">
        <ele>1037.1</ele>
        <time>2013-04-14T11:42:20Z</time>
      </trkpt>
      <trkpt lat="45.02227" lon="5.61095">
        <ele>1039.9</ele>
        <time>2013-04-14T11:42:25Z</time>
      </trkpt>
      <trkpt lat="45.02234" lon="5.61091">
        <ele>1041</ele>
        <time>2013-04-14T11:42:30Z</time>
      </trkpt>
      <trkpt lat="45.02242" lon="5.61088">
        <ele>1042.3</ele>
        <time>2013-04-14T11:42:35Z</time>
      </trkpt>
      <trkpt lat="45.0225" lon="5.61085">
        <ele>1042.8</ele>
        <time>2013-04-14T11:42:40Z</time>
      </trkpt>
      <trkpt lat="45.02257" lon="5.61082">
        <ele>1043</ele>
        <time>2013-04-14T11:42:45Z</time>
      </trkpt>
      <trkpt lat="45.02265" lon="5.6108">
        <ele>1044.3</ele>
        <time>2013-04-14T11:42:50Z</time>
      </trkpt>
      <trkpt lat="45.02266" lon="5.6108">
        <ele>1044.4</ele>
        <time>2013-04-14T11:42:51Z</time>
      </trkpt>
      <trkpt lat="45.02281" lon="5.61079">
        <ele>1046.3</ele>
        <time>2013-04-14T11:43:01Z</time>
      </trkpt>
      <trkpt lat="45.02289" lon="5.61079">
        <ele>1047.6</ele>
        <time>2013-04-14T11:43:06Z</time>
      </trkpt>
      <trkpt lat="45.02297" lon="5.6108">
        <ele>1049.2</ele>
        <time>2013-04-14T11:43:11Z</time>
      </trkpt>
      <trkpt lat="45.02305" lon="5.6108">
        <ele>1050.2</ele>
        <time>2013-04-14T11:43:16Z</time>
      </trkpt>
      <trkpt lat="45.02313" lon="5.61079">
        <ele>1050.2</ele>
        <time>2013-04-14T11:43:21Z</time>
      </trkpt>
      <trkpt lat="45.0232" lon="5.61077">
        <ele>1052.3</ele>
        <time>2013-04-14T11:43:26Z</time>
      </trkpt>
      <trkpt lat="45.02328" lon="5.61077">
        <ele>1053.2</ele>
        <time>2013-04-14T11:43:31Z</time>
      </trkpt>
      <trkpt lat="45.02336" lon="5.61075">
        <ele>1054.2</ele>
        <time>2013-04-14T11:43:36Z</time>
      </trkpt>
      <trkpt lat="45.02343" lon="5.61073">
        <ele>1054.3</ele>
        <time>2013-04-14T11:43:41Z</time>
      </trkpt>
      <trkpt lat="45.02352" lon="5.6107">
        <ele>1056.5</ele>
        <time>2013-04-14T11:43:47Z</time>
      </trkpt>
      <trkpt lat="45.0236" lon="5.61067">
        <ele>1057.6</ele>
        <time>2013-04-14T11:43:53Z</time>
      </trkpt>
      <trkpt lat="45.02362" lon="5.61066">
        <ele>1058</ele>
        <time>2013-04-14T11:43:54Z</time>
      </trkpt>
      <trkpt lat="45.02375" lon="5.61063">
        <ele>1059</ele>
        <time>2013-04-14T11:44:03Z</time>
      </trkpt>
      <trkpt lat="45.02383" lon="5.61059">
        <ele>1060.8</ele>
        <time>2013-04-14T11:44:10Z</time>
      </trkpt>
      <trkpt lat="45.02391" lon="5.61057">
        <ele>1062.7</ele>
        <time>2013-04-14T11:44:17Z</time>
      </trkpt>
      <trkpt lat="45.024" lon="5.61055">
        <ele>1064.7</ele>
        <time>2013-04-14T11:44:27Z</time>
      </trkpt>
      <trkpt lat="45.02408" lon="5.61053">
        <ele>1064.9</ele>
        <time>2013-04-14T11:44:37Z</time>
      </trkpt>
      <trkpt lat="45.02417" lon="5.61051">
        <ele>1065.9</ele>
        <time>2013-04-14T11:44:46Z</time>
      </trkpt>
      <trkpt lat="45.02425" lon="5.61048">
        <ele>1067.5</ele>
        <time>2013-04-14T11:44:55Z</time>
      </trkpt>
      <trkpt lat="45.02426" lon="5.61048">
        <ele>1067.6</ele>
        <time>2013-04-14T11:44:56Z</time>
      </trkpt>
      <trkpt lat="45.02442" lon="5.61045">
        <ele>1070.2</ele>
        <time>2013-04-14T11:45:19Z</time>
      </trkpt>
      <trkpt lat="45.0245" lon="5.61045">
        <ele>1071</ele>
        <time>2013-04-14T11:45:28Z</time>
      </trkpt>
      <trkpt lat="45.02459" lon="5.61044">
        <ele>1074</ele>
        <time>2013-04-14T11:45:37Z</time>
      </trkpt>
      <trkpt lat="45.02468" lon="5.61042">
        <ele>1074.9</ele>
        <time>2013-04-14T11:45:46Z</time>
      </trkpt>
      <trkpt lat="45.02477" lon="5.6104">
        <ele>1076.2</ele>
        <time>2013-04-14T11:45:54Z</time>
      </trkpt>
      <trkpt lat="45.02485" lon="5.61039">
        <ele>1076.9</ele>
        <time>2013-04-14T11:46:03Z</time>
      </trkpt>
      <trkpt lat="45.02486" lon="5.61039">
        <ele>1076.6</ele>
        <time>2013-04-14T11:46:04Z</time>
      </trkpt>
      <trkpt lat="45.02502" lon="5.61039">
        <ele>1077.9</ele>
        <time>2013-04-14T11:46:19Z</time>
      </trkpt>
      <trkpt lat="45.02505" lon="5.61027">
        <ele>1080.2</ele>
        <time>2013-04-14T11:46:34Z</time>
      </trkpt>
      <trkpt lat="45.02502" lon="5.61017">
        <ele>1080.6</ele>
        <time>2013-04-14T11:46:42Z</time>
      </trkpt>
      <trkpt lat="45.02497" lon="5.61006">
        <ele>1081.5</ele>
        <time>2013-04-14T11:46:50Z</time>
      </trkpt>
      <trkpt lat="45.02491" lon="5.60998">
        <ele>1082.2</ele>
        <time>2013-04-14T11:46:58Z</time>
      </trkpt>
      <trkpt lat="45.02486" lon="5.60988">
        <ele>1081.5</ele>
        <time>2013-04-14T11:47:53Z</time>
      </trkpt>
      <trkpt lat="45.02486" lon="5.60987">
        <ele>1081.3</ele>
        <time>2013-04-14T11:47:54Z</time>
      </trkpt>
      <trkpt lat="45.02476" lon="5.60989">
        <ele>1082.1</ele>
        <time>2013-04-14T11:52:58Z</time>
      </trkpt>
      <trkpt lat="45.02465" lon="5.60997">
        <ele>1079.9</ele>
        <time>2013-04-14T11:53:04Z</time>
      </trkpt>
      <trkpt lat="45.02458" lon="5.60995">
        <ele>1079</ele>
        <time>2013-04-14T11:53:06Z</time>
      </trkpt>
      <trkpt lat="45.0245" lon="5.60998">
        <ele>1078.1</ele>
        <time>2013-04-14T11:53:08Z</time>
      </trkpt>
      <trkpt lat="45.02445" lon="5.61001">
        <ele>1077.9</ele>
        <time>2013-04-14T11:53:09Z</time>
      </trkpt>
      <trkpt lat="45.02441" lon="5.61005">
        <ele>1077.8</ele>
        <time>2013-04-14T11:53:10Z</time>
      </trkpt>
      <trkpt lat="45.02437" lon="5.61009">
        <ele>1077.6</ele>
        <time>2013-04-14T11:53:11Z</time>
      </trkpt>
      <trkpt lat="45.0243" lon="5.61015">
        <ele>1075.9</ele>
        <time>2013-04-14T11:53:13Z</time>
      </trkpt>
      <trkpt lat="45.02423" lon="5.61022">
        <ele>1074.4</ele>
        <time>2013-04-14T11:53:15Z</time>
      </trkpt>
      <trkpt lat="45.02416" lon="5.6103">
        <ele>1073.1</ele>
        <time>2013-04-14T11:53:17Z</time>
      </trkpt>
      <trkpt lat="45.02413" lon="5.61034">
        <ele>1071.9</ele>
        <time>2013-04-14T11:53:18Z</time>
      </trkpt>
      <trkpt lat="45.02406" lon="5.61042">
        <ele>1070.3</ele>
        <time>2013-04-14T11:53:20Z</time>
      </trkpt>
      <trkpt lat="45.024" lon="5.61048">
        <ele>1068.7</ele>
        <time>2013-04-14T11:53:22Z</time>
      </trkpt>
      <trkpt lat="45.02393" lon="5.61054">
        <ele>1066.3</ele>
        <time>2013-04-14T11:53:25Z</time>
      </trkpt>
      <trkpt lat="45.02387" lon="5.61059">
        <ele>1064.5</ele>
        <time>2013-04-14T11:53:28Z</time>
      </trkpt>
      <trkpt lat="45.02381" lon="5.61061">
        <ele>1063.6</ele>
        <time>2013-04-14T11:53:30Z</time>
      </trkpt>
      <trkpt lat="45.02374" lon="5.61063">
        <ele>1062.7</ele>
        <time>2013-04-14T11:53:32Z</time>
      </trkpt>
      <trkpt lat="45.02369" lon="5.61064">
        <ele>1062.5</ele>
        <time>2013-04-14T11:53:33Z</time>
      </trkpt>
      <trkpt lat="45.02365" lon="5.61065">
        <ele>1061.9</ele>
        <time>2013-04-14T11:53:34Z</time>
      </trkpt>
      <trkpt lat="45.0236" lon="5.61067">
        <ele>1061.4</ele>
        <time>2013-04-14T11:53:35Z</time>
      </trkpt>
      <trkpt lat="45.02354" lon="5.61068">
        <ele>1061.1</ele>
        <time>2013-04-14T11:53:36Z</time>
      </trkpt>
      <trkpt lat="45.02348" lon="5.6107">
        <ele>1060.8</ele>
        <time>2013-04-14T11:53:37Z</time>
      </trkpt>
      <trkpt lat="45.02341" lon="5.61072">
        <ele>1060.3</ele>
        <time>2013-04-14T11:53:38Z</time>
      </trkpt>
      <trkpt lat="45.02334" lon="5.61074">
        <ele>1059.9</ele>
        <time>2013-04-14T11:53:39Z</time>
      </trkpt>
      <trkpt lat="45.02328" lon="5.61075">
        <ele>1059.6</ele>
        <time>2013-04-14T11:53:40Z</time>
      </trkpt>
      <trkpt lat="45.02321" lon="5.61076">
        <ele>1058.6</ele>
        <time>2013-04-14T11:53:41Z</time>
      </trkpt>
      <trkpt lat="45.02316" lon="5.61077">
        <ele>1057.9</ele>
        <time>2013-04-14T11:53:42Z</time>
      </trkpt>
      <trkpt lat="45.02309" lon="5.61077">
        <ele>1055.9</ele>
        <time>2013-04-14T11:53:44Z</time>
      </trkpt>
      <trkpt lat="45.02301" lon="5.61078">
        <ele>1050.8</ele>
        <time>2013-04-14T11:53:51Z</time>
      </trkpt>
      <trkpt lat="45.02293" lon="5.61078">
        <ele>1050.2</ele>
        <time>2013-04-14T11:53:57Z</time>
      </trkpt>
      <trkpt lat="45.02286" lon="5.61078">
        <ele>1049.9</ele>
        <time>2013-04-14T11:54:00Z</time>
      </trkpt>
      <trkpt lat="45.02282" lon="5.61078">
        <ele>1049.7</ele>
        <time>2013-04-14T11:54:01Z</time>
      </trkpt>
      <trkpt lat="45.02273" lon="5.61078">
        <ele>1049.3</ele>
        <time>2013-04-14T11:54:03Z</time>
      </trkpt>
      <trkpt lat="45.02267" lon="5.61078">
        <ele>1049.2</ele>
        <time>2013-04-14T11:54:04Z</time>
      </trkpt>
      <trkpt lat="45.02262" lon="5.61079">
        <ele>1049.1</ele>
        <time>2013-04-14T11:54:05Z</time>
      </trkpt>
      <trkpt lat="45.02256" lon="5.61079">
        <ele>1048.6</ele>
        <time>2013-04-14T11:54:06Z</time>
      </trkpt>
      <trkpt lat="45.02248" lon="5.61082">
        <ele>1048</ele>
        <time>2013-04-14T11:54:08Z</time>
      </trkpt>
      <trkpt lat="45.02244" lon="5.61084">
        <ele>1047.9</ele>
        <time>2013-04-14T11:54:09Z</time>
      </trkpt>
      <trkpt lat="45.02239" lon="5.61086">
        <ele>1047.4</ele>
        <time>2013-04-14T11:54:10Z</time>
      </trkpt>
      <trkpt lat="45.02234" lon="5.61088">
        <ele>1047.1</ele>
        <time>2013-04-14T11:54:11Z</time>
      </trkpt>
      <trkpt lat="45.02228" lon="5.6109">
        <ele>1046.8</ele>
        <time>2013-04-14T11:54:12Z</time>
      </trkpt>
      <trkpt lat="45.02223" lon="5.61093">
        <ele>1045.9</ele>
        <time>2013-04-14T11:54:13Z</time>
      </trkpt>
      <trkpt lat="45.02216" lon="5.61096">
        <ele>1045.2</ele>
        <time>2013-04-14T11:54:14Z</time>
      </trkpt>
      <trkpt lat="45.0221" lon="5.61099">
        <ele>1044.6</ele>
        <time>2013-04-14T11:54:15Z</time>
      </trkpt>
      <trkpt lat="45.02202" lon="5.61102">
        <ele>1043.8</ele>
        <time>2013-04-14T11:54:16Z</time>
      </trkpt>
      <trkpt lat="45.02195" lon="5.61105">
        <ele>1043.1</ele>
        <time>2013-04-14T11:54:17Z</time>
      </trkpt>
      <trkpt lat="45.02187" lon="5.61109">
        <ele>1042.7</ele>
        <time>2013-04-14T11:54:18Z</time>
      </trkpt>
      <trkpt lat="45.0218" lon="5.61112">
        <ele>1041.4</ele>
        <time>2013-04-14T11:54:19Z</time>
      </trkpt>
      <trkpt lat="45.02174" lon="5.61115">
        <ele>1040.5</ele>
        <time>2013-04-14T11:54:20Z</time>
      </trkpt>
      <trkpt lat="45.02168" lon="5.61118">
        <ele>1039.8</ele>
        <time>2013-04-14T11:54:21Z</time>
      </trkpt>
      <trkpt lat="45.02163" lon="5.61121">
        <ele>1038.4</ele>
        <time>2013-04-14T11:54:22Z</time>
      </trkpt>
      <trkpt lat="45.02158" lon="5.61123">
        <ele>1037.3</ele>
        <time>2013-04-14T11:54:23Z</time>
      </trkpt>
      <trkpt lat="45.02154" lon="5.61126">
        <ele>1036.5</ele>
        <time>2013-04-14T11:54:24Z</time>
      </trkpt>
      <trkpt lat="45.02149" lon="5.61129">
        <ele>1035.7</ele>
        <time>2013-04-14T11:54:25Z</time>
      </trkpt>
      <trkpt lat="45.02143" lon="5.61133">
        <ele>1035.1</ele>
        <time>2013-04-14T11:54:26Z</time>
      </trkpt>
      <trkpt lat="45.02137" lon="5.61136">
        <ele>1034.7</ele>
        <time>2013-04-14T11:54:27Z</time>
      </trkpt>
      <trkpt lat="45.02129" lon="5.6114">
        <ele>1034.4</ele>
        <time>2013-04-14T11:54:28Z</time>
      </trkpt>
      <trkpt lat="45.02122" lon="5.61143">
        <ele>1033.4</ele>
        <time>2013-04-14T11:54:29Z</time>
      </trkpt>
      <trkpt lat="45.02113" lon="5.61148">
        <ele>1032.8</ele>
        <time>2013-04-14T11:54:30Z</time>
      </trkpt>
      <trkpt lat="45.02105" lon="5.61152">
        <ele>1032.2</ele>
        <time>2013-04-14T11:54:31Z</time>
      </trkpt>
      <trkpt lat="45.02095" lon="5.61158">
        <ele>1030.6</ele>
        <time>2013-04-14T11:54:32Z</time>
      </trkpt>
      <trkpt lat="45.02085" lon="5.61163">
        <ele>1029.4</ele>
        <time>2013-04-14T11:54:33Z</time>
      </trkpt>
      <trkpt lat="45.02075" lon="5.61169">
        <ele>1028.6</ele>
        <time>2013-04-14T11:54:34Z</time>
      </trkpt>
      <trkpt lat="45.02065" lon="5.61175">
        <ele>1027.1</ele>
        <time>2013-04-14T11:54:35Z</time>
      </trkpt>
      <trkpt lat="45.02054" lon="5.61182">
        <ele>1026</ele>
        <time>2013-04-14T11:54:36Z</time>
      </trkpt>
      <trkpt lat="45.02045" lon="5.61189">
        <ele>1025.2</ele>
        <time>2013-04-14T11:54:37Z</time>
      </trkpt>
      <trkpt lat="45.02037" lon="5.61197">
        <ele>1023.5</ele>
        <time>2013-04-14T11:54:38Z</time>
      </trkpt>
      <trkpt lat="45.0203" lon="5.61205">
        <ele>1022.2</ele>
        <time>2013-04-14T11:54:39Z</time>
      </trkpt>
      <trkpt lat="45.02024" lon="5.61212">
        <ele>1021.2</ele>
        <time>2013-04-14T11:54:40Z</time>
      </trkpt>
      <trkpt lat="45.02017" lon="5.61219">
        <ele>1019.2</ele>
        <time>2013-04-14T11:54:41Z</time>
      </trkpt>
      <trkpt lat="45.0201" lon="5.61226">
        <ele>1017.7</ele>
        <time>2013-04-14T11:54:42Z</time>
      </trkpt>
      <trkpt lat="45.02002" lon="5.61234">
        <ele>1016.6</ele>
        <time>2013-04-14T11:54:43Z</time>
      </trkpt>
      <trkpt lat="45.01994" lon="5.6124">
        <ele>1015.7</ele>
        <time>2013-04-14T11:54:44Z</time>
      </trkpt>
      <trkpt lat="45.01988" lon="5.61246">
        <ele>1014.6</ele>
        <time>2013-04-14T11:54:45Z</time>
      </trkpt>
      <trkpt lat="45.01983" lon="5.6125">
        <ele>1013.8</ele>
        <time>2013-04-14T11:54:46Z</time>
      </trkpt>
      <trkpt lat="45.01976" lon="5.61255">
        <ele>1009.5</ele>
        <time>2013-04-14T11:54:49Z</time>
      </trkpt>
      <trkpt lat="45.0197" lon="5.6126">
        <ele>1006.6</ele>
        <time>2013-04-14T11:54:52Z</time>
      </trkpt>
      <trkpt lat="45.01963" lon="5.61265">
        <ele>1005.6</ele>
        <time>2013-04-14T11:54:56Z</time>
      </trkpt>
      <trkpt lat="45.01958" lon="5.6127">
        <ele>1005.2</ele>
        <time>2013-04-14T11:54:58Z</time>
      </trkpt>
      <trkpt lat="45.01954" lon="5.61273">
        <ele>1005</ele>
        <time>2013-04-14T11:54:59Z</time>
      </trkpt>
      <trkpt lat="45.0195" lon="5.61277">
        <ele>1004.9</ele>
        <time>2013-04-14T11:55:00Z</time>
      </trkpt>
      <trkpt lat="45.01945" lon="5.61281">
        <ele>1004.7</ele>
        <time>2013-04-14T11:55:01Z</time>
      </trkpt>
      <trkpt lat="45.0194" lon="5.61286">
        <ele>1004.6</ele>
        <time>2013-04-14T11:55:02Z</time>
      </trkpt>
      <trkpt lat="45.01934" lon="5.6129">
        <ele>1004.5</ele>
        <time>2013-04-14T11:55:03Z</time>
      </trkpt>
      <trkpt lat="45.01928" lon="5.61294">
        <ele>1003.4</ele>
        <time>2013-04-14T11:55:04Z</time>
      </trkpt>
      <trkpt lat="45.01921" lon="5.61298">
        <ele>1002.6</ele>
        <time>2013-04-14T11:55:05Z</time>
      </trkpt>
      <trkpt lat="45.01914" lon="5.61302">
        <ele>1001.9</ele>
        <time>2013-04-14T11:55:06Z</time>
      </trkpt>
      <trkpt lat="45.01908" lon="5.61305">
        <ele>1001.5</ele>
        <time>2013-04-14T11:55:07Z</time>
      </trkpt>
      <trkpt lat="45.01901" lon="5.61308">
        <ele>1000.8</ele>
        <time>2013-04-14T11:55:09Z</time>
      </trkpt>
      <trkpt lat="45.01895" lon="5.61311">
        <ele>999.1</ele>
        <time>2013-04-14T11:55:11Z</time>
      </trkpt>
      <trkpt lat="45.01887" lon="5.61314">
        <ele>998.2</ele>
        <time>2013-04-14T11:55:13Z</time>
      </trkpt>
      <trkpt lat="45.01882" lon="5.61317">
        <ele>998</ele>
        <time>2013-04-14T11:55:14Z</time>
      </trkpt>
      <trkpt lat="45.01876" lon="5.61319">
        <ele>997.8</ele>
        <time>2013-04-14T11:55:15Z</time>
      </trkpt>
      <trkpt lat="45.01871" lon="5.6132">
        <ele>997.6</ele>
        <time>2013-04-14T11:55:16Z</time>
      </trkpt>
      <trkpt lat="45.01864" lon="5.61321">
        <ele>996.8</ele>
        <time>2013-04-14T11:55:17Z</time>
      </trkpt>
      <trkpt lat="45.01858" lon="5.61322">
        <ele>996.3</ele>
        <time>2013-04-14T11:55:18Z</time>
      </trkpt>
      <trkpt lat="45.01851" lon="5.61323">
        <ele>995.8</ele>
        <time>2013-04-14T11:55:19Z</time>
      </trkpt>
      <trkpt lat="45.01844" lon="5.61324">
        <ele>995</ele>
        <time>2013-04-14T11:55:20Z</time>
      </trkpt>
      <trkpt lat="45.01837" lon="5.61325">
        <ele>994.3</ele>
        <time>2013-04-14T11:55:21Z</time>
      </trkpt>
      <trkpt lat="45.01829" lon="5.61326">
        <ele>993.8</ele>
        <time>2013-04-14T11:55:22Z</time>
      </trkpt>
      <trkpt lat="45.01822" lon="5.61327">
        <ele>992.7</ele>
        <time>2013-04-14T11:55:23Z</time>
      </trkpt>
      <trkpt lat="45.01814" lon="5.61329">
        <ele>991.8</ele>
        <time>2013-04-14T11:55:24Z</time>
      </trkpt>
      <trkpt lat="45.01807" lon="5.61332">
        <ele>991.2</ele>
        <time>2013-04-14T11:55:25Z</time>
      </trkpt>
      <trkpt lat="45.01801" lon="5.61335">
        <ele>990.8</ele>
        <time>2013-04-14T11:55:26Z</time>
      </trkpt>
      <trkpt lat="45.01792" lon="5.61337">
        <ele>989.9</ele>
        <time>2013-04-14T11:55:29Z</time>
      </trkpt>
      <trkpt lat="45.0179" lon="5.61326">
        <ele>989.5</ele>
        <time>2013-04-14T11:55:34Z</time>
      </trkpt>
      <trkpt lat="45.01793" lon="5.61316">
        <ele>989.7</ele>
        <time>2013-04-14T11:55:40Z</time>
      </trkpt>
      <trkpt lat="45.01798" lon="5.61305">
        <ele>991.5</ele>
        <time>2013-04-14T11:55:49Z</time>
      </trkpt>
      <trkpt lat="45.01796" lon="5.61292">
        <ele>992.5</ele>
        <time>2013-04-14T11:57:32Z</time>
      </trkpt>
      <trkpt lat="45.01796" lon="5.61292">
        <ele>992.4</ele>
        <time>2013-04-14T11:57:33Z</time>
      </trkpt>
      <trkpt lat="45.01805" lon="5.61296">
        <ele>993.1</ele>
        <time>2013-04-14T11:59:23Z</time>
      </trkpt>
      <trkpt lat="45.01819" lon="5.61285">
        <ele>993.5</ele>
        <time>2013-04-14T11:59:34Z</time>
      </trkpt>
      <trkpt lat="45.01825" lon="5.61276">
        <ele>994.8</ele>
        <time>2013-04-14T11:59:39Z</time>
      </trkpt>
      <trkpt lat="45.01829" lon="5.61268">
        <ele>996.1</ele>
        <time>2013-04-14T11:59:44Z</time>
      </trkpt>
      <trkpt lat="45.01833" lon="5.61257">
        <ele>996</ele>
        <time>2013-04-14T11:59:49Z</time>
      </trkpt>
      <trkpt lat="45.01838" lon="5.61247">
        <ele>996.6</ele>
        <time>2013-04-14T11:59:54Z</time>
      </trkpt>
      <trkpt lat="45.01843" lon="5.61238">
        <ele>997.4</ele>
        <time>2013-04-14T11:59:59Z</time>
      </trkpt>
      <trkpt lat="45.01849" lon="5.61231">
        <ele>998.3</ele>
        <time>2013-04-14T12:00:04Z</time>
      </trkpt>
      <trkpt lat="45.01857" lon="5.61234">
        <ele>999.2</ele>
        <time>2013-04-14T12:00:08Z</time>
      </trkpt>
      <trkpt lat="45.01863" lon="5.6124">
        <ele>999.5</ele>
        <time>2013-04-14T12:00:12Z</time>
      </trkpt>
      <trkpt lat="45.01869" lon="5.61246">
        <ele>999.8</ele>
        <time>2013-04-14T12:00:15Z</time>
      </trkpt>
      <trkpt lat="45.01875" lon="5.61251">
        <ele>999.8</ele>
        <time>2013-04-14T12:00:18Z</time>
      </trkpt>
      <trkpt lat="45.01882" lon="5.61256">
        <ele>1000.1</ele>
        <time>2013-04-14T12:00:22Z</time>
      </trkpt>
      <trkpt lat="45.01887" lon="5.61262">
        <ele>999</ele>
        <time>2013-04-14T12:00:25Z</time>
      </trkpt>
      <trkpt lat="45.01889" lon="5.61266">
        <ele>999.4</ele>
        <time>2013-04-14T12:00:26Z</time>
      </trkpt>
      <trkpt lat="45.01894" lon="5.6128">
        <ele>999.6</ele>
        <time>2013-04-14T12:00:29Z</time>
      </trkpt>
      <trkpt lat="45.01896" lon="5.61291">
        <ele>999.2</ele>
        <time>2013-04-14T12:00:31Z</time>
      </trkpt>
      <trkpt lat="45.01897" lon="5.61301">
        <ele>998.9</ele>
        <time>2013-04-14T12:00:33Z</time>
      </trkpt>
      <trkpt lat="45.01895" lon="5.6131">
        <ele>998.6</ele>
        <time>2013-04-14T12:00:35Z</time>
      </trkpt>
      <trkpt lat="45.01891" lon="5.61319">
        <ele>998.4</ele>
        <time>2013-04-14T12:00:37Z</time>
      </trkpt>
      <trkpt lat="45.01892" lon="5.61329">
        <ele>998.2</ele>
        <time>2013-04-14T12:00:39Z</time>
      </trkpt>
      <trkpt lat="45.01893" lon="5.61341">
        <ele>997.3</ele>
        <time>2013-04-14T12:00:43Z</time>
      </trkpt>
      <trkpt lat="45.01896" lon="5.61352">
        <ele>998.1</ele>
        <time>2013-04-14T12:00:47Z</time>
      </trkpt>
      <trkpt lat="45.01899" lon="5.6136">
        <ele>998.8</ele>
        <time>2013-04-14T12:00:50Z</time>
      </trkpt>
      <trkpt lat="45.01904" lon="5.61367">
        <ele>999.2</ele>
        <time>2013-04-14T12:00:53Z</time>
      </trkpt>
      <trkpt lat="45.01911" lon="5.61374">
        <ele>999.4</ele>
        <time>2013-04-14T12:00:56Z</time>
      </trkpt>
      <trkpt lat="45.01917" lon="5.6138">
        <ele>999.5</ele>
        <time>2013-04-14T12:00:58Z</time>
      </trkpt>
      <trkpt lat="45.0192" lon="5.61384">
        <ele>999.5</ele>
        <time>2013-04-14T12:00:59Z</time>
      </trkpt>
      <trkpt lat="45.01924" lon="5.6139">
        <ele>999.5</ele>
        <time>2013-04-14T12:01:00Z</time>
      </trkpt>
      <trkpt lat="45.01926" lon="5.61397">
        <ele>998.7</ele>
        <time>2013-04-14T12:01:01Z</time>
      </trkpt>
      <trkpt lat="45.01926" lon="5.61406">
        <ele>998.1</ele>
        <time>2013-04-14T12:01:02Z</time>
      </trkpt>
      <trkpt lat="45.01923" lon="5.61413">
        <ele>997.7</ele>
        <time>2013-04-14T12:01:03Z</time>
      </trkpt>
      <trkpt lat="45.01919" lon="5.6142">
        <ele>997.3</ele>
        <time>2013-04-14T12:01:04Z</time>
      </trkpt>
      <trkpt lat="45.01915" lon="5.61425">
        <ele>997.2</ele>
        <time>2013-04-14T12:01:05Z</time>
      </trkpt>
      <trkpt lat="45.01912" lon="5.61431">
        <ele>997.2</ele>
        <time>2013-04-14T12:01:06Z</time>
      </trkpt>
      <trkpt lat="45.01909" lon="5.61437">
        <ele>997.1</ele>
        <time>2013-04-14T12:01:07Z</time>
      </trkpt>
      <trkpt lat="45.01905" lon="5.61448">
        <ele>996.3</ele>
        <time>2013-04-14T12:01:09Z</time>
      </trkpt>
      <trkpt lat="45.01904" lon="5.6146">
        <ele>996.7</ele>
        <time>2013-04-14T12:01:12Z</time>
      </trkpt>
      <trkpt lat="45.01905" lon="5.61471">
        <ele>996.9</ele>
        <time>2013-04-14T12:01:16Z</time>
      </trkpt>
      <trkpt lat="45.01908" lon="5.61481">
        <ele>999.1</ele>
        <time>2013-04-14T12:01:20Z</time>
      </trkpt>
      <trkpt lat="45.01916" lon="5.61486">
        <ele>999.7</ele>
        <time>2013-04-14T12:01:25Z</time>
      </trkpt>
      <trkpt lat="45.01923" lon="5.61484">
        <ele>1001</ele>
        <time>2013-04-14T12:01:29Z</time>
      </trkpt>
      <trkpt lat="45.01925" lon="5.61483">
        <ele>1000.9</ele>
        <time>2013-04-14T12:01:30Z</time>
      </trkpt>
      <trkpt lat="45.01938" lon="5.61478">
        <ele>1001.7</ele>
        <time>2013-04-14T12:01:37Z</time>
      </trkpt>
      <trkpt lat="45.01944" lon="5.61485">
        <ele>1003.1</ele>
        <time>2013-04-14T12:01:41Z</time>
      </trkpt>
      <trkpt lat="45.01945" lon="5.61497">
        <ele>1003.9</ele>
        <time>2013-04-14T12:01:45Z</time>
      </trkpt>
      <trkpt lat="45.01945" lon="5.61507">
        <ele>1003.8</ele>
        <time>2013-04-14T12:01:49Z</time>
      </trkpt>
      <trkpt lat="45.01945" lon="5.61519">
        <ele>1004.7</ele>
        <time>2013-04-14T12:01:53Z</time>
      </trkpt>
      <trkpt lat="45.01944" lon="5.61532">
        <ele>1005.5</ele>
        <time>2013-04-14T12:01:57Z</time>
      </trkpt>
      <trkpt lat="45.01945" lon="5.61542">
        <ele>1006.8</ele>
        <time>2013-04-14T12:02:00Z</time>
      </trkpt>
      <trkpt lat="45.01945" lon="5.61552">
        <ele>1007.2</ele>
        <time>2013-04-14T12:02:03Z</time>
      </trkpt>
      <trkpt lat="45.01945" lon="5.61562">
        <ele>1007.5</ele>
        <time>2013-04-14T12:02:06Z</time>
      </trkpt>
      <trkpt lat="45.01945" lon="5.61573">
        <ele>1007.8</ele>
        <time>2013-04-14T12:02:09Z</time>
      </trkpt>
      <trkpt lat="45.01946" lon="5.61584">
        <ele>1008.1</ele>
        <time>2013-04-14T12:02:12Z</time>
      </trkpt>
      <trkpt lat="45.01946" lon="5.61595">
        <ele>1008</ele>
        <time>2013-04-14T12:02:15Z</time>
      </trkpt>
      <trkpt lat="45.01946" lon="5.61606">
        <ele>1008</ele>
        <time>2013-04-14T12:02:18Z</time>
      </trkpt>
      <trkpt lat="45.01946" lon="5.61616">
        <ele>1008.9</ele>
        <time>2013-04-14T12:02:21Z</time>
      </trkpt>
      <trkpt lat="45.01947" lon="5.61623">
        <ele>1009.4</ele>
        <time>2013-04-14T12:02:23Z</time>
      </trkpt>
      <trkpt lat="45.02012" lon="5.61676">
        <ele>1010.9</ele>
        <time>2013-04-14T12:03:08Z</time>
      </trkpt>
      <trkpt lat="45.0202" lon="5.61679">
        <ele>1015.9</ele>
        <time>2013-04-14T12:03:13Z</time>
      </trkpt>
      <trkpt lat="45.02029" lon="5.61682">
        <ele>1016.2</ele>
        <time>2013-04-14T12:03:18Z</time>
      </trkpt>
      <trkpt lat="45.02038" lon="5.61683">
        <ele>1017.3</ele>
        <time>2013-04-14T12:03:23Z</time>
      </trkpt>
      <trkpt lat="45.02046" lon="5.61685">
        <ele>1018.8</ele>
        <time>2013-04-14T12:03:28Z</time>
      </trkpt>
      <trkpt lat="45.02055" lon="5.61687">
        <ele>1019.8</ele>
        <time>2013-04-14T12:03:33Z</time>
      </trkpt>
      <trkpt lat="45.02062" lon="5.6169">
        <ele>1020.3</ele>
        <time>2013-04-14T12:03:37Z</time>
      </trkpt>
      <trkpt lat="45.02069" lon="5.61693">
        <ele>1021</ele>
        <time>2013-04-14T12:03:41Z</time>
      </trkpt>
      <trkpt lat="45.02077" lon="5.61695">
        <ele>1022.3</ele>
        <time>2013-04-14T12:03:46Z</time>
      </trkpt>
      <trkpt lat="45.02085" lon="5.61699">
        <ele>1023.7</ele>
        <time>2013-04-14T12:03:51Z</time>
      </trkpt>
      <trkpt lat="45.02091" lon="5.61707">
        <ele>1024.1</ele>
        <time>2013-04-14T12:03:56Z</time>
      </trkpt>
      <trkpt lat="45.02095" lon="5.61716">
        <ele>1025.9</ele>
        <time>2013-04-14T12:04:00Z</time>
      </trkpt>
      <trkpt lat="45.02097" lon="5.61726">
        <ele>1026.1</ele>
        <time>2013-04-14T12:04:04Z</time>
      </trkpt>
      <trkpt lat="45.02098" lon="5.61737">
        <ele>1027.1</ele>
        <time>2013-04-14T12:04:09Z</time>
      </trkpt>
      <trkpt lat="45.02097" lon="5.6174">
        <ele>1027.4</ele>
        <time>2013-04-14T12:04:10Z</time>
      </trkpt>
      <trkpt lat="45.02093" lon="5.61757">
        <ele>1027.9</ele>
        <time>2013-04-14T12:04:16Z</time>
      </trkpt>
      <trkpt lat="45.02081" lon="5.61781">
        <ele>1027.7</ele>
        <time>2013-04-14T12:04:24Z</time>
      </trkpt>
      <trkpt lat="45.02079" lon="5.61787">
        <ele>1027.7</ele>
        <time>2013-04-14T12:04:26Z</time>
      </trkpt>
      <trkpt lat="45.02064" lon="5.61845">
        <ele>1027.7</ele>
        <time>2013-04-14T12:04:43Z</time>
      </trkpt>
      <trkpt lat="45.02059" lon="5.6186">
        <ele>1027.5</ele>
        <time>2013-04-14T12:04:48Z</time>
      </trkpt>
      <trkpt lat="45.02057" lon="5.61869">
        <ele>1027.2</ele>
        <time>2013-04-14T12:04:51Z</time>
      </trkpt>
      <trkpt lat="45.02055" lon="5.61881">
        <ele>1027.3</ele>
        <time>2013-04-14T12:04:55Z</time>
      </trkpt>
      <trkpt lat="45.02054" lon="5.61892">
        <ele>1027.3</ele>
        <time>2013-04-14T12:04:59Z</time>
      </trkpt>
      <trkpt lat="45.02053" lon="5.61902">
        <ele>1027</ele>
        <time>2013-04-14T12:05:03Z</time>
      </trkpt>
      <trkpt lat="45.02053" lon="5.61912">
        <ele>1027.3</ele>
        <time>2013-04-14T12:05:06Z</time>
      </trkpt>
      <trkpt lat="45.02053" lon="5.61922">
        <ele>1026.9</ele>
        <time>2013-04-14T12:05:09Z</time>
      </trkpt>
      <trkpt lat="45.02053" lon="5.61932">
        <ele>1027.7</ele>
        <time>2013-04-14T12:05:12Z</time>
      </trkpt>
      <trkpt lat="45.02053" lon="5.61935">
        <ele>1027.7</ele>
        <time>2013-04-14T12:05:13Z</time>
      </trkpt>
      <trkpt lat="45.02053" lon="5.61952">
        <ele>1028.3</ele>
        <time>2013-04-14T12:05:18Z</time>
      </trkpt>
      <trkpt lat="45.02053" lon="5.61962">
        <ele>1028.5</ele>
        <time>2013-04-14T12:05:21Z</time>
      </trkpt>
      <trkpt lat="45.02054" lon="5.61974">
        <ele>1028.3</ele>
        <time>2013-04-14T12:05:25Z</time>
      </trkpt>
      <trkpt lat="45.02054" lon="5.61985">
        <ele>1027.4</ele>
        <time>2013-04-14T12:05:29Z</time>
      </trkpt>
      <trkpt lat="45.02051" lon="5.61997">
        <ele>1028.3</ele>
        <time>2013-04-14T12:05:33Z</time>
      </trkpt>
      <trkpt lat="45.02048" lon="5.62006">
        <ele>1028.9</ele>
        <time>2013-04-14T12:05:36Z</time>
      </trkpt>
      <trkpt lat="45.02046" lon="5.62015">
        <ele>1029.5</ele>
        <time>2013-04-14T12:05:39Z</time>
      </trkpt>
      <trkpt lat="45.02043" lon="5.62024">
        <ele>1029.9</ele>
        <time>2013-04-14T12:05:42Z</time>
      </trkpt>
      <trkpt lat="45.0204" lon="5.62033">
        <ele>1029.6</ele>
        <time>2013-04-14T12:05:45Z</time>
      </trkpt>
      <trkpt lat="45.02037" lon="5.62042">
        <ele>1029.2</ele>
        <time>2013-04-14T12:05:48Z</time>
      </trkpt>
      <trkpt lat="45.02034" lon="5.62051">
        <ele>1029</ele>
        <time>2013-04-14T12:05:51Z</time>
      </trkpt>
      <trkpt lat="45.02031" lon="5.6206">
        <ele>1029.5</ele>
        <time>2013-04-14T12:05:54Z</time>
      </trkpt>
      <trkpt lat="45.02028" lon="5.62069">
        <ele>1029.7</ele>
        <time>2013-04-14T12:05:57Z</time>
      </trkpt>
      <trkpt lat="45.02026" lon="5.62082">
        <ele>1029.7</ele>
        <time>2013-04-14T12:06:01Z</time>
      </trkpt>
      <trkpt lat="45.02024" lon="5.62091">
        <ele>1030.4</ele>
        <time>2013-04-14T12:06:04Z</time>
      </trkpt>
      <trkpt lat="45.02023" lon="5.621">
        <ele>1030.5</ele>
        <time>2013-04-14T12:06:07Z</time>
      </trkpt>
      <trkpt lat="45.0202" lon="5.6211">
        <ele>1030.7</ele>
        <time>2013-04-14T12:06:10Z</time>
      </trkpt>
      <trkpt lat="45.02017" lon="5.62119">
        <ele>1032.4</ele>
        <time>2013-04-14T12:06:13Z</time>
      </trkpt>
      <trkpt lat="45.02016" lon="5.62123">
        <ele>1032.6</ele>
        <time>2013-04-14T12:06:14Z</time>
      </trkpt>
      <trkpt lat="45.02012" lon="5.62139">
        <ele>1033.9</ele>
        <time>2013-04-14T12:06:19Z</time>
      </trkpt>
      <trkpt lat="45.0201" lon="5.62149">
        <ele>1034.2</ele>
        <time>2013-04-14T12:06:22Z</time>
      </trkpt>
      <trkpt lat="45.02007" lon="5.6216">
        <ele>1035</ele>
        <time>2013-04-14T12:06:26Z</time>
      </trkpt>
      <trkpt lat="45.02005" lon="5.62169">
        <ele>1036.3</ele>
        <time>2013-04-14T12:06:29Z</time>
      </trkpt>
      <trkpt lat="45.02003" lon="5.6218">
        <ele>1036.5</ele>
        <time>2013-04-14T12:06:32Z</time>
      </trkpt>
      <trkpt lat="45.02002" lon="5.62191">
        <ele>1037</ele>
        <time>2013-04-14T12:06:35Z</time>
      </trkpt>
      <trkpt lat="45.02001" lon="5.62202">
        <ele>1036.8</ele>
        <time>2013-04-14T12:06:38Z</time>
      </trkpt>
      <trkpt lat="45.02" lon="5.62213">
        <ele>1037.3</ele>
        <time>2013-04-14T12:06:41Z</time>
      </trkpt>
      <trkpt lat="45.01999" lon="5.62225">
        <ele>1037.5</ele>
        <time>2013-04-14T12:06:44Z</time>
      </trkpt>
      <trkpt lat="45.01997" lon="5.62235">
        <ele>1037.2</ele>
        <time>2013-04-14T12:06:47Z</time>
      </trkpt>
      <trkpt lat="45.01997" lon="5.62246">
        <ele>1037</ele>
        <time>2013-04-14T12:06:50Z</time>
      </trkpt>
      <trkpt lat="45.01996" lon="5.62255">
        <ele>1037.3</ele>
        <time>2013-04-14T12:06:53Z</time>
      </trkpt>
      <trkpt lat="45.01996" lon="5.62265">
        <ele>1037.8</ele>
        <time>2013-04-14T12:06:56Z</time>
      </trkpt>
      <trkpt lat="45.01997" lon="5.62277">
        <ele>1038</ele>
        <time>2013-04-14T12:06:59Z</time>
      </trkpt>
      <trkpt lat="45.01998" lon="5.62285">
        <ele>1037.8</ele>
        <time>2013-04-14T12:07:01Z</time>
      </trkpt>
      <trkpt lat="45.01998" lon="5.62295">
        <ele>1037.5</ele>
        <time>2013-04-14T12:07:03Z</time>
      </trkpt>
      <trkpt lat="45.01998" lon="5.62301">
        <ele>1037.4</ele>
        <time>2013-04-14T12:07:04Z</time>
      </trkpt>
      <trkpt lat="45.01998" lon="5.62308">
        <ele>1036.7</ele>
        <time>2013-04-14T12:07:05Z</time>
      </trkpt>
      <trkpt lat="45.01998" lon="5.6232">
        <ele>1035.7</ele>
        <time>2013-04-14T12:07:07Z</time>
      </trkpt>
      <trkpt lat="45.02002" lon="5.62331">
        <ele>1034.9</ele>
        <time>2013-04-14T12:07:33Z</time>
      </trkpt>
      <trkpt lat="45.02002" lon="5.62331">
        <ele>1035</ele>
        <time>2013-04-14T12:07:34Z</time>
      </trkpt>
      <trkpt lat="45.02012" lon="5.62338">
        <ele>1035</ele>
        <time>2013-04-14T12:08:37Z</time>
      </trkpt>
      <trkpt lat="45.02022" lon="5.62345">
        <ele>1034.9</ele>
        <time>2013-04-14T12:08:40Z</time>
      </trkpt>
      <trkpt lat="45.02026" lon="5.62347">
        <ele>1034.8</ele>
        <time>2013-04-14T12:08:41Z</time>
      </trkpt>
      <trkpt lat="45.02031" lon="5.6235">
        <ele>1034.8</ele>
        <time>2013-04-14T12:08:42Z</time>
      </trkpt>
      <trkpt lat="45.02036" lon="5.62352">
        <ele>1034.7</ele>
        <time>2013-04-14T12:08:43Z</time>
      </trkpt>
      <trkpt lat="45.02041" lon="5.62355">
        <ele>1034.5</ele>
        <time>2013-04-14T12:08:44Z</time>
      </trkpt>
      <trkpt lat="45.02047" lon="5.62359">
        <ele>1034.4</ele>
        <time>2013-04-14T12:08:45Z</time>
      </trkpt>
      <trkpt lat="45.02053" lon="5.62363">
        <ele>1034.2</ele>
        <time>2013-04-14T12:08:46Z</time>
      </trkpt>
      <trkpt lat="45.02059" lon="5.62368">
        <ele>1033.9</ele>
        <time>2013-04-14T12:08:47Z</time>
      </trkpt>
      <trkpt lat="45.02066" lon="5.62372">
        <ele>1033.6</ele>
        <time>2013-04-14T12:08:48Z</time>
      </trkpt>
      <trkpt lat="45.02073" lon="5.62376">
        <ele>1033.4</ele>
        <time>2013-04-14T12:08:49Z</time>
      </trkpt>
      <trkpt lat="45.02081" lon="5.62379">
        <ele>1032.6</ele>
        <time>2013-04-14T12:08:50Z</time>
      </trkpt>
      <trkpt lat="45.02089" lon="5.62381">
        <ele>1031.9</ele>
        <time>2013-04-14T12:08:51Z</time>
      </trkpt>
      <trkpt lat="45.02098" lon="5.62384">
        <ele>1031.4</ele>
        <time>2013-04-14T12:08:52Z</time>
      </trkpt>
      <trkpt lat="45.02106" lon="5.62386">
        <ele>1031</ele>
        <time>2013-04-14T12:08:53Z</time>
      </trkpt>
      <trkpt lat="45.02114" lon="5.62389">
        <ele>1030.7</ele>
        <time>2013-04-14T12:08:54Z</time>
      </trkpt>
      <trkpt lat="45.02123" lon="5.62392">
        <ele>1030.4</ele>
        <time>2013-04-14T12:08:55Z</time>
      </trkpt>
      <trkpt lat="45.02131" lon="5.62394">
        <ele>1030.2</ele>
        <time>2013-04-14T12:08:56Z</time>
      </trkpt>
      <trkpt lat="45.02139" lon="5.62396">
        <ele>1029.3</ele>
        <time>2013-04-14T12:08:57Z</time>
      </trkpt>
      <trkpt lat="45.02147" lon="5.62397">
        <ele>1028.7</ele>
        <time>2013-04-14T12:08:58Z</time>
      </trkpt>
      <trkpt lat="45.02155" lon="5.62398">
        <ele>1028.3</ele>
        <time>2013-04-14T12:08:59Z</time>
      </trkpt>
      <trkpt lat="45.02163" lon="5.62401">
        <ele>1028</ele>
        <time>2013-04-14T12:09:00Z</time>
      </trkpt>
      <trkpt lat="45.02171" lon="5.62404">
        <ele>1027.8</ele>
        <time>2013-04-14T12:09:01Z</time>
      </trkpt>
      <trkpt lat="45.0218" lon="5.62406">
        <ele>1027.6</ele>
        <time>2013-04-14T12:09:02Z</time>
      </trkpt>
      <trkpt lat="45.02188" lon="5.62409">
        <ele>1026.9</ele>
        <time>2013-04-14T12:09:03Z</time>
      </trkpt>
      <trkpt lat="45.02196" lon="5.62411">
        <ele>1026.4</ele>
        <time>2013-04-14T12:09:04Z</time>
      </trkpt>
      <trkpt lat="45.02204" lon="5.62413">
        <ele>1026</ele>
        <time>2013-04-14T12:09:05Z</time>
      </trkpt>
      <trkpt lat="45.02212" lon="5.62415">
        <ele>1025.3</ele>
        <time>2013-04-14T12:09:06Z</time>
      </trkpt>
      <trkpt lat="45.02219" lon="5.62418">
        <ele>1024.8</ele>
        <time>2013-04-14T12:09:07Z</time>
      </trkpt>
      <trkpt lat="45.02227" lon="5.62421">
        <ele>1024.4</ele>
        <time>2013-04-14T12:09:08Z</time>
      </trkpt>
      <trkpt lat="45.02234" lon="5.62424">
        <ele>1024.2</ele>
        <time>2013-04-14T12:09:09Z</time>
      </trkpt>
      <trkpt lat="45.02241" lon="5.62426">
        <ele>1023.3</ele>
        <time>2013-04-14T12:09:10Z</time>
      </trkpt>
      <trkpt lat="45.02247" lon="5.62427">
        <ele>1022.7</ele>
        <time>2013-04-14T12:09:11Z</time>
      </trkpt>
      <trkpt lat="45.02252" lon="5.62429">
        <ele>1022.2</ele>
        <time>2013-04-14T12:09:12Z</time>
      </trkpt>
      <trkpt lat="45.02255" lon="5.62433">
        <ele>1021.1</ele>
        <time>2013-04-14T12:09:13Z</time>
      </trkpt>
      <trkpt lat="45.02258" lon="5.6244">
        <ele>1020.2</ele>
        <time>2013-04-14T12:09:14Z</time>
      </trkpt>
      <trkpt lat="45.0226" lon="5.62447">
        <ele>1019.6</ele>
        <time>2013-04-14T12:09:15Z</time>
      </trkpt>
      <trkpt lat="45.02262" lon="5.62456">
        <ele>1018.4</ele>
        <time>2013-04-14T12:09:16Z</time>
      </trkpt>
      <trkpt lat="45.02263" lon="5.62467">
        <ele>1017.5</ele>
        <time>2013-04-14T12:09:17Z</time>
      </trkpt>
      <trkpt lat="45.02264" lon="5.62477">
        <ele>1016.8</ele>
        <time>2013-04-14T12:09:18Z</time>
      </trkpt>
      <trkpt lat="45.02264" lon="5.62488">
        <ele>1015.7</ele>
        <time>2013-04-14T12:09:19Z</time>
      </trkpt>
      <trkpt lat="45.02264" lon="5.625">
        <ele>1014.9</ele>
        <time>2013-04-14T12:09:20Z</time>
      </trkpt>
      <trkpt lat="45.02266" lon="5.62511">
        <ele>1014.3</ele>
        <time>2013-04-14T12:09:21Z</time>
      </trkpt>
      <trkpt lat="45.02268" lon="5.6252">
        <ele>1013.5</ele>
        <time>2013-04-14T12:09:22Z</time>
      </trkpt>
      <trkpt lat="45.02272" lon="5.62529">
        <ele>1013</ele>
        <time>2013-04-14T12:09:23Z</time>
      </trkpt>
      <trkpt lat="45.02276" lon="5.62537">
        <ele>1012.5</ele>
        <time>2013-04-14T12:09:24Z</time>
      </trkpt>
      <trkpt lat="45.02281" lon="5.62544">
        <ele>1012.2</ele>
        <time>2013-04-14T12:09:25Z</time>
      </trkpt>
      <trkpt lat="45.02286" lon="5.6255">
        <ele>1011.7</ele>
        <time>2013-04-14T12:09:26Z</time>
      </trkpt>
      <trkpt lat="45.0229" lon="5.62555">
        <ele>1011.3</ele>
        <time>2013-04-14T12:09:27Z</time>
      </trkpt>
      <trkpt lat="45.02294" lon="5.6256">
        <ele>1011</ele>
        <time>2013-04-14T12:09:28Z</time>
      </trkpt>
      <trkpt lat="45.023" lon="5.6257">
        <ele>1010.7</ele>
        <time>2013-04-14T12:09:30Z</time>
      </trkpt>
      <trkpt lat="45.02304" lon="5.62579">
        <ele>1011.1</ele>
        <time>2013-04-14T12:09:32Z</time>
      </trkpt>
      <trkpt lat="45.02309" lon="5.62588">
        <ele>1011.7</ele>
        <time>2013-04-14T12:09:34Z</time>
      </trkpt>
      <trkpt lat="45.02313" lon="5.62596">
        <ele>1011.3</ele>
        <time>2013-04-14T12:09:36Z</time>
      </trkpt>
      <trkpt lat="45.02317" lon="5.62605">
        <ele>1011</ele>
        <time>2013-04-14T12:09:38Z</time>
      </trkpt>
      <trkpt lat="45.02318" lon="5.6261">
        <ele>1010.9</ele>
        <time>2013-04-14T12:09:39Z</time>
      </trkpt>
      <trkpt lat="45.02323" lon="5.62622">
        <ele>1010.9</ele>
        <time>2013-04-14T12:09:42Z</time>
      </trkpt>
      <trkpt lat="45.02328" lon="5.62632">
        <ele>1011.3</ele>
        <time>2013-04-14T12:09:45Z</time>
      </trkpt>
      <trkpt lat="45.0233" lon="5.6264">
        <ele>1011.4</ele>
        <time>2013-04-14T12:09:47Z</time>
      </trkpt>
      <trkpt lat="45.02333" lon="5.62651">
        <ele>1011.3</ele>
        <time>2013-04-14T12:09:50Z</time>
      </trkpt>
      <trkpt lat="45.02336" lon="5.6266">
        <ele>1011.5</ele>
        <time>2013-04-14T12:09:53Z</time>
      </trkpt>
      <trkpt lat="45.02342" lon="5.6267">
        <ele>1013.2</ele>
        <time>2013-04-14T12:09:59Z</time>
      </trkpt>
      <trkpt lat="45.02336" lon="5.62661">
        <ele>1012.8</ele>
        <time>2013-04-14T12:10:12Z</time>
      </trkpt>
      <trkpt lat="45.02333" lon="5.62653">
        <ele>1012.6</ele>
        <time>2013-04-14T12:10:14Z</time>
      </trkpt>
      <trkpt lat="45.02332" lon="5.62647">
        <ele>1012.5</ele>
        <time>2013-04-14T12:10:15Z</time>
      </trkpt>
      <trkpt lat="45.02331" lon="5.6264">
        <ele>1012.4</ele>
        <time>2013-04-14T12:10:16Z</time>
      </trkpt>
      <trkpt lat="45.02328" lon="5.62633">
        <ele>1012.2</ele>
        <time>2013-04-14T12:10:17Z</time>
      </trkpt>
      <trkpt lat="45.02324" lon="5.62625">
        <ele>1012</ele>
        <time>2013-04-14T12:10:18Z</time>
      </trkpt>
      <trkpt lat="45.02322" lon="5.62618">
        <ele>1011.9</ele>
        <time>2013-04-14T12:10:19Z</time>
      </trkpt>
      <trkpt lat="45.02318" lon="5.6261">
        <ele>1012</ele>
        <time>2013-04-14T12:10:20Z</time>
      </trkpt>
      <trkpt lat="45.02315" lon="5.62601">
        <ele>1012</ele>
        <time>2013-04-14T12:10:21Z</time>
      </trkpt>
      <trkpt lat="45.02311" lon="5.62593">
        <ele>1012.1</ele>
        <time>2013-04-14T12:10:22Z</time>
      </trkpt>
      <trkpt lat="45.02307" lon="5.62585">
        <ele>1012</ele>
        <time>2013-04-14T12:10:23Z</time>
      </trkpt>
      <trkpt lat="45.02303" lon="5.62577">
        <ele>1012</ele>
        <time>2013-04-14T12:10:24Z</time>
      </trkpt>
      <trkpt lat="45.02299" lon="5.6257">
        <ele>1012</ele>
        <time>2013-04-14T12:10:25Z</time>
      </trkpt>
      <trkpt lat="45.02295" lon="5.62562">
        <ele>1011.7</ele>
        <time>2013-04-14T12:10:26Z</time>
      </trkpt>
      <trkpt lat="45.0229" lon="5.62555">
        <ele>1011.5</ele>
        <time>2013-04-14T12:10:27Z</time>
      </trkpt>
      <trkpt lat="45.02285" lon="5.62548">
        <ele>1011.3</ele>
        <time>2013-04-14T12:10:28Z</time>
      </trkpt>
      <trkpt lat="45.02281" lon="5.62542">
        <ele>1010.7</ele>
        <time>2013-04-14T12:10:29Z</time>
      </trkpt>
      <trkpt lat="45.02274" lon="5.62534">
        <ele>1010</ele>
        <time>2013-04-14T12:10:31Z</time>
      </trkpt>
      <trkpt lat="45.02271" lon="5.62542">
        <ele>1009.4</ele>
        <time>2013-04-14T12:10:34Z</time>
      </trkpt>
      <trkpt lat="45.02272" lon="5.62554">
        <ele>1008.7</ele>
        <time>2013-04-14T12:10:36Z</time>
      </trkpt>
      <trkpt lat="45.02274" lon="5.6256">
        <ele>1008.3</ele>
        <time>2013-04-14T12:10:37Z</time>
      </trkpt>
      <trkpt lat="45.02275" lon="5.62568">
        <ele>1008</ele>
        <time>2013-04-14T12:10:38Z</time>
      </trkpt>
      <trkpt lat="45.02277" lon="5.62577">
        <ele>1007.3</ele>
        <time>2013-04-14T12:10:39Z</time>
      </trkpt>
      <trkpt lat="45.02279" lon="5.62585">
        <ele>1006.8</ele>
        <time>2013-04-14T12:10:40Z</time>
      </trkpt>
      <trkpt lat="45.02281" lon="5.62597">
        <ele>1005.2</ele>
        <time>2013-04-14T12:10:42Z</time>
      </trkpt>
      <trkpt lat="45.02282" lon="5.62606">
        <ele>1003.7</ele>
        <time>2013-04-14T12:10:44Z</time>
      </trkpt>
      <trkpt lat="45.02283" lon="5.62616">
        <ele>1001.9</ele>
        <time>2013-04-14T12:10:46Z</time>
      </trkpt>
      <trkpt lat="45.02283" lon="5.62625">
        <ele>1000.9</ele>
        <time>2013-04-14T12:10:48Z</time>
      </trkpt>
      <trkpt lat="45.02285" lon="5.62638">
        <ele>999.5</ele>
        <time>2013-04-14T12:10:50Z</time>
      </trkpt>
      <trkpt lat="45.02285" lon="5.62645">
        <ele>999.1</ele>
        <time>2013-04-14T12:10:51Z</time>
      </trkpt>
      <trkpt lat="45.02286" lon="5.62653">
        <ele>998.4</ele>
        <time>2013-04-14T12:10:52Z</time>
      </trkpt>
      <trkpt lat="45.02286" lon="5.62659">
        <ele>997.8</ele>
        <time>2013-04-14T12:10:53Z</time>
      </trkpt>
      <trkpt lat="45.02287" lon="5.62665">
        <ele>997.4</ele>
        <time>2013-04-14T12:10:54Z</time>
      </trkpt>
      <trkpt lat="45.02287" lon="5.62673">
        <ele>996.4</ele>
        <time>2013-04-14T12:10:55Z</time>
      </trkpt>
      <trkpt lat="45.02287" lon="5.62681">
        <ele>995.6</ele>
        <time>2013-04-14T12:10:56Z</time>
      </trkpt>
      <trkpt lat="45.02288" lon="5.62693">
        <ele>994.6</ele>
        <time>2013-04-14T12:10:58Z</time>
      </trkpt>
      <trkpt lat="45.02289" lon="5.627">
        <ele>994.3</ele>
        <time>2013-04-14T12:10:59Z</time>
      </trkpt>
      <trkpt lat="45.02291" lon="5.62707">
        <ele>994.1</ele>
        <time>2013-04-14T12:11:00Z</time>
      </trkpt>
      <trkpt lat="45.02293" lon="5.62714">
        <ele>993.3</ele>
        <time>2013-04-14T12:11:01Z</time>
      </trkpt>
      <trkpt lat="45.02295" lon="5.6272">
        <ele>992.7</ele>
        <time>2013-04-14T12:11:02Z</time>
      </trkpt>
      <trkpt lat="45.02298" lon="5.62726">
        <ele>992.3</ele>
        <time>2013-04-14T12:11:03Z</time>
      </trkpt>
      <trkpt lat="45.02302" lon="5.62732">
        <ele>992</ele>
        <time>2013-04-14T12:11:04Z</time>
      </trkpt>
      <trkpt lat="45.02305" lon="5.62738">
        <ele>991.1</ele>
        <time>2013-04-14T12:11:05Z</time>
      </trkpt>
      <trkpt lat="45.02309" lon="5.62744">
        <ele>990.5</ele>
        <time>2013-04-14T12:11:06Z</time>
      </trkpt>
      <trkpt lat="45.02312" lon="5.62749">
        <ele>990.1</ele>
        <time>2013-04-14T12:11:07Z</time>
      </trkpt>
      <trkpt lat="45.02316" lon="5.62754">
        <ele>988.3</ele>
        <time>2013-04-14T12:11:08Z</time>
      </trkpt>
      <trkpt lat="45.0232" lon="5.62759">
        <ele>987</ele>
        <time>2013-04-14T12:11:09Z</time>
      </trkpt>
      <trkpt lat="45.02324" lon="5.62764">
        <ele>986</ele>
        <time>2013-04-14T12:11:10Z</time>
      </trkpt>
      <trkpt lat="45.02328" lon="5.62768">
        <ele>984.9</ele>
        <time>2013-04-14T12:11:11Z</time>
      </trkpt>
      <trkpt lat="45.02332" lon="5.62773">
        <ele>984</ele>
        <time>2013-04-14T12:11:12Z</time>
      </trkpt>
      <trkpt lat="45.02336" lon="5.62776">
        <ele>983.4</ele>
        <time>2013-04-14T12:11:13Z</time>
      </trkpt>
      <trkpt lat="45.02343" lon="5.62784">
        <ele>980.5</ele>
        <time>2013-04-14T12:11:15Z</time>
      </trkpt>
      <trkpt lat="45.0235" lon="5.62792">
        <ele>978.3</ele>
        <time>2013-04-14T12:11:17Z</time>
      </trkpt>
      <trkpt lat="45.02356" lon="5.62799">
        <ele>976.5</ele>
        <time>2013-04-14T12:11:19Z</time>
      </trkpt>
      <trkpt lat="45.0236" lon="5.62806">
        <ele>974.3</ele>
        <time>2013-04-14T12:11:21Z</time>
      </trkpt>
      <trkpt lat="45.02365" lon="5.62814">
        <ele>973</ele>
        <time>2013-04-14T12:11:23Z</time>
      </trkpt>
      <trkpt lat="45.02369" lon="5.62819">
        <ele>972.1</ele>
        <time>2013-04-14T12:11:24Z</time>
      </trkpt>
      <trkpt lat="45.02372" lon="5.62824">
        <ele>971.4</ele>
        <time>2013-04-14T12:11:25Z</time>
      </trkpt>
      <trkpt lat="45.02377" lon="5.62833">
        <ele>969.2</ele>
        <time>2013-04-14T12:11:27Z</time>
      </trkpt>
      <trkpt lat="45.02381" lon="5.6284">
        <ele>967</ele>
        <time>2013-04-14T12:11:29Z</time>
      </trkpt>
      <trkpt lat="45.02386" lon="5.62849">
        <ele>965.5</ele>
        <time>2013-04-14T12:11:31Z</time>
      </trkpt>
      <trkpt lat="45.02391" lon="5.62856">
        <ele>963.7</ele>
        <time>2013-04-14T12:11:33Z</time>
      </trkpt>
      <trkpt lat="45.02395" lon="5.62864">
        <ele>962</ele>
        <time>2013-04-14T12:11:35Z</time>
      </trkpt>
      <trkpt lat="45.02399" lon="5.62872">
        <ele>959.8</ele>
        <time>2013-04-14T12:11:37Z</time>
      </trkpt>
      <trkpt lat="45.02403" lon="5.62881">
        <ele>958.5</ele>
        <time>2013-04-14T12:11:39Z</time>
      </trkpt>
      <trkpt lat="45.02407" lon="5.62891">
        <ele>957.1</ele>
        <time>2013-04-14T12:11:41Z</time>
      </trkpt>
      <trkpt lat="45.0241" lon="5.62897">
        <ele>956.7</ele>
        <time>2013-04-14T12:11:42Z</time>
      </trkpt>
      <trkpt lat="45.02413" lon="5.62903">
        <ele>956.1</ele>
        <time>2013-04-14T12:11:43Z</time>
      </trkpt>
      <trkpt lat="45.02417" lon="5.62909">
        <ele>955.6</ele>
        <time>2013-04-14T12:11:44Z</time>
      </trkpt>
      <trkpt lat="45.02421" lon="5.62915">
        <ele>955.3</ele>
        <time>2013-04-14T12:11:45Z</time>
      </trkpt>
      <trkpt lat="45.02425" lon="5.62922">
        <ele>954.3</ele>
        <time>2013-04-14T12:11:46Z</time>
      </trkpt>
      <trkpt lat="45.02429" lon="5.62929">
        <ele>953.6</ele>
        <time>2013-04-14T12:11:47Z</time>
      </trkpt>
      <trkpt lat="45.02433" lon="5.62936">
        <ele>953</ele>
        <time>2013-04-14T12:11:48Z</time>
      </trkpt>
      <trkpt lat="45.02437" lon="5.62943">
        <ele>952.4</ele>
        <time>2013-04-14T12:11:49Z</time>
      </trkpt>
      <trkpt lat="45.02441" lon="5.6295">
        <ele>952</ele>
        <time>2013-04-14T12:11:50Z</time>
      </trkpt>
      <trkpt lat="45.02445" lon="5.62956">
        <ele>951.7</ele>
        <time>2013-04-14T12:11:51Z</time>
      </trkpt>
      <trkpt lat="45.02449" lon="5.62962">
        <ele>951.3</ele>
        <time>2013-04-14T12:11:52Z</time>
      </trkpt>
      <trkpt lat="45.02453" lon="5.62967">
        <ele>951</ele>
        <time>2013-04-14T12:11:53Z</time>
      </trkpt>
      <trkpt lat="45.02459" lon="5.62976">
        <ele>950.7</ele>
        <time>2013-04-14T12:11:55Z</time>
      </trkpt>
      <trkpt lat="45.02462" lon="5.62981">
        <ele>950.5</ele>
        <time>2013-04-14T12:11:56Z</time>
      </trkpt>
      <trkpt lat="45.02465" lon="5.62986">
        <ele>950.4</ele>
        <time>2013-04-14T12:11:57Z</time>
      </trkpt>
      <trkpt lat="45.02468" lon="5.62991">
        <ele>950.3</ele>
        <time>2013-04-14T12:11:58Z</time>
      </trkpt>
      <trkpt lat="45.02471" lon="5.62996">
        <ele>949.8</ele>
        <time>2013-04-14T12:11:59Z</time>
      </trkpt>
      <trkpt lat="45.02475" lon="5.63001">
        <ele>949.4</ele>
        <time>2013-04-14T12:12:00Z</time>
      </trkpt>
      <trkpt lat="45.02479" lon="5.63006">
        <ele>949.1</ele>
        <time>2013-04-14T12:12:01Z</time>
      </trkpt>
      <trkpt lat="45.02485" lon="5.63012">
        <ele>946.8</ele>
        <time>2013-04-14T12:12:03Z</time>
      </trkpt>
      <trkpt lat="45.02493" lon="5.63016">
        <ele>944.6</ele>
        <time>2013-04-14T12:12:06Z</time>
      </trkpt>
      <trkpt lat="45.02501" lon="5.63022">
        <ele>943</ele>
        <time>2013-04-14T12:12:09Z</time>
      </trkpt>
      <trkpt lat="45.02507" lon="5.63026">
        <ele>942.3</ele>
        <time>2013-04-14T12:12:11Z</time>
      </trkpt>
      <trkpt lat="45.02512" lon="5.63029">
        <ele>941.3</ele>
        <time>2013-04-14T12:12:12Z</time>
      </trkpt>
      <trkpt lat="45.02517" lon="5.63031">
        <ele>940.6</ele>
        <time>2013-04-14T12:12:13Z</time>
      </trkpt>
      <trkpt lat="45.02523" lon="5.63033">
        <ele>940</ele>
        <time>2013-04-14T12:12:14Z</time>
      </trkpt>
      <trkpt lat="45.02528" lon="5.63036">
        <ele>939.1</ele>
        <time>2013-04-14T12:12:15Z</time>
      </trkpt>
      <trkpt lat="45.02534" lon="5.63039">
        <ele>938.4</ele>
        <time>2013-04-14T12:12:16Z</time>
      </trkpt>
      <trkpt lat="45.02541" lon="5.63045">
        <ele>936.3</ele>
        <time>2013-04-14T12:12:18Z</time>
      </trkpt>
      <trkpt lat="45.02547" lon="5.63048">
        <ele>934.3</ele>
        <time>2013-04-14T12:12:20Z</time>
      </trkpt>
      <trkpt lat="45.02554" lon="5.6305">
        <ele>932.8</ele>
        <time>2013-04-14T12:12:22Z</time>
      </trkpt>
      <trkpt lat="45.02562" lon="5.63055">
        <ele>931.1</ele>
        <time>2013-04-14T12:12:24Z</time>
      </trkpt>
      <trkpt lat="45.0257" lon="5.63058">
        <ele>929.5</ele>
        <time>2013-04-14T12:12:26Z</time>
      </trkpt>
      <trkpt lat="45.02576" lon="5.63059">
        <ele>928.9</ele>
        <time>2013-04-14T12:12:27Z</time>
      </trkpt>
      <trkpt lat="45.02583" lon="5.6306">
        <ele>927.8</ele>
        <time>2013-04-14T12:12:28Z</time>
      </trkpt>
      <trkpt lat="45.02589" lon="5.63061">
        <ele>927</ele>
        <time>2013-04-14T12:12:29Z</time>
      </trkpt>
      <trkpt lat="45.02595" lon="5.63061">
        <ele>926.4</ele>
        <time>2013-04-14T12:12:30Z</time>
      </trkpt>
      <trkpt lat="45.02601" lon="5.63062">
        <ele>925.4</ele>
        <time>2013-04-14T12:12:31Z</time>
      </trkpt>
      <trkpt lat="45.02608" lon="5.63063">
        <ele>924.6</ele>
        <time>2013-04-14T12:12:32Z</time>
      </trkpt>
      <trkpt lat="45.02614" lon="5.63065">
        <ele>924.1</ele>
        <time>2013-04-14T12:12:33Z</time>
      </trkpt>
      <trkpt lat="45.02619" lon="5.63066">
        <ele>923.6</ele>
        <time>2013-04-14T12:12:34Z</time>
      </trkpt>
      <trkpt lat="45.02623" lon="5.63066">
        <ele>923.2</ele>
        <time>2013-04-14T12:12:35Z</time>
      </trkpt>
      <trkpt lat="45.02628" lon="5.63067">
        <ele>923</ele>
        <time>2013-04-14T12:12:36Z</time>
      </trkpt>
      <trkpt lat="45.02634" lon="5.63069">
        <ele>922.2</ele>
        <time>2013-04-14T12:12:37Z</time>
      </trkpt>
      <trkpt lat="45.0264" lon="5.63071">
        <ele>921.5</ele>
        <time>2013-04-14T12:12:38Z</time>
      </trkpt>
      <trkpt lat="45.02646" lon="5.63075">
        <ele>921.1</ele>
        <time>2013-04-14T12:12:39Z</time>
      </trkpt>
      <trkpt lat="45.02653" lon="5.63077">
        <ele>919.7</ele>
        <time>2013-04-14T12:12:40Z</time>
      </trkpt>
      <trkpt lat="45.02658" lon="5.63079">
        <ele>918.7</ele>
        <time>2013-04-14T12:12:41Z</time>
      </trkpt>
      <trkpt lat="45.02663" lon="5.63082">
        <ele>917.9</ele>
        <time>2013-04-14T12:12:42Z</time>
      </trkpt>
      <trkpt lat="45.02668" lon="5.63083">
        <ele>917.4</ele>
        <time>2013-04-14T12:12:43Z</time>
      </trkpt>
      <trkpt lat="45.02681" lon="5.63081">
        <ele>914.7</ele>
        <time>2013-04-14T12:12:46Z</time>
      </trkpt>
      <trkpt lat="45.02688" lon="5.63084">
        <ele>912.5</ele>
        <time>2013-04-14T12:12:48Z</time>
      </trkpt>
      <trkpt lat="45.02693" lon="5.63093">
        <ele>910.1</ele>
        <time>2013-04-14T12:12:50Z</time>
      </trkpt>
      <trkpt lat="45.027" lon="5.63099">
        <ele>908</ele>
        <time>2013-04-14T12:12:52Z</time>
      </trkpt>
      <trkpt lat="45.02704" lon="5.63103">
        <ele>906.8</ele>
        <time>2013-04-14T12:12:53Z</time>
      </trkpt>
      <trkpt lat="45.0271" lon="5.63106">
        <ele>905.9</ele>
        <time>2013-04-14T12:12:54Z</time>
      </trkpt>
      <trkpt lat="45.02716" lon="5.6311">
        <ele>905.2</ele>
        <time>2013-04-14T12:12:55Z</time>
      </trkpt>
      <trkpt lat="45.0272" lon="5.63113">
        <ele>903.9</ele>
        <time>2013-04-14T12:12:56Z</time>
      </trkpt>
      <trkpt lat="45.02728" lon="5.63118">
        <ele>902.1</ele>
        <time>2013-04-14T12:12:58Z</time>
      </trkpt>
      <trkpt lat="45.02734" lon="5.63122">
        <ele>899.6</ele>
        <time>2013-04-14T12:13:00Z</time>
      </trkpt>
      <trkpt lat="45.02741" lon="5.63125">
        <ele>898.2</ele>
        <time>2013-04-14T12:13:02Z</time>
      </trkpt>
      <trkpt lat="45.02748" lon="5.63128">
        <ele>895.3</ele>
        <time>2013-04-14T12:13:04Z</time>
      </trkpt>
      <trkpt lat="45.02753" lon="5.63132">
        <ele>893.1</ele>
        <time>2013-04-14T12:13:06Z</time>
      </trkpt>
      <trkpt lat="45.0276" lon="5.63136">
        <ele>891.6</ele>
        <time>2013-04-14T12:13:08Z</time>
      </trkpt>
      <trkpt lat="45.02764" lon="5.63139">
        <ele>890.8</ele>
        <time>2013-04-14T12:13:09Z</time>
      </trkpt>
      <trkpt lat="45.02768" lon="5.63143">
        <ele>890.2</ele>
        <time>2013-04-14T12:13:10Z</time>
      </trkpt>
      <trkpt lat="45.02772" lon="5.63146">
        <ele>889.7</ele>
        <time>2013-04-14T12:13:11Z</time>
      </trkpt>
      <trkpt lat="45.02776" lon="5.63149">
        <ele>888.4</ele>
        <time>2013-04-14T12:13:12Z</time>
      </trkpt>
      <trkpt lat="45.0278" lon="5.63152">
        <ele>887.3</ele>
        <time>2013-04-14T12:13:13Z</time>
      </trkpt>
      <trkpt lat="45.02785" lon="5.63156">
        <ele>886.5</ele>
        <time>2013-04-14T12:13:14Z</time>
      </trkpt>
      <trkpt lat="45.02792" lon="5.63161">
        <ele>884.5</ele>
        <time>2013-04-14T12:13:16Z</time>
      </trkpt>
      <trkpt lat="45.02799" lon="5.63168">
        <ele>883.3</ele>
        <time>2013-04-14T12:13:18Z</time>
      </trkpt>
      <trkpt lat="45.02805" lon="5.63177">
        <ele>882</ele>
        <time>2013-04-14T12:13:20Z</time>
      </trkpt>
      <trkpt lat="45.0281" lon="5.63187">
        <ele>880.8</ele>
        <time>2013-04-14T12:13:22Z</time>
      </trkpt>
      <trkpt lat="45.02815" lon="5.63196">
        <ele>879.8</ele>
        <time>2013-04-14T12:13:24Z</time>
      </trkpt>
      <trkpt lat="45.02821" lon="5.63203">
        <ele>878.1</ele>
        <time>2013-04-14T12:13:26Z</time>
      </trkpt>
      <trkpt lat="45.02829" lon="5.63208">
        <ele>876.3</ele>
        <time>2013-04-14T12:13:29Z</time>
      </trkpt>
      <trkpt lat="45.02836" lon="5.63201">
        <ele>874.8</ele>
        <time>2013-04-14T12:13:33Z</time>
      </trkpt>
      <trkpt lat="45.02837" lon="5.63189">
        <ele>872.2</ele>
        <time>2013-04-14T12:13:37Z</time>
      </trkpt>
      <trkpt lat="45.02835" lon="5.63177">
        <ele>870.2</ele>
        <time>2013-04-14T12:13:40Z</time>
      </trkpt>
      <trkpt lat="45.02834" lon="5.63166">
        <ele>866.4</ele>
        <time>2013-04-14T12:13:43Z</time>
      </trkpt>
      <trkpt lat="45.02833" lon="5.63163">
        <ele>865.4</ele>
        <time>2013-04-14T12:13:44Z</time>
      </trkpt>
      <trkpt lat="45.02828" lon="5.63143">
        <ele>860.5</ele>
        <time>2013-04-14T12:13:51Z</time>
      </trkpt>
      <trkpt lat="45.02828" lon="5.63135">
        <ele>859.8</ele>
        <time>2013-04-14T12:13:53Z</time>
      </trkpt>
      <trkpt lat="45.02832" lon="5.63126">
        <ele>858.2</ele>
        <time>2013-04-14T12:13:55Z</time>
      </trkpt>
      <trkpt lat="45.02838" lon="5.63119">
        <ele>856.5</ele>
        <time>2013-04-14T12:13:57Z</time>
      </trkpt>
      <trkpt lat="45.02844" lon="5.63111">
        <ele>855</ele>
        <time>2013-04-14T12:13:59Z</time>
      </trkpt>
      <trkpt lat="45.02849" lon="5.63106">
        <ele>852.5</ele>
        <time>2013-04-14T12:14:01Z</time>
      </trkpt>
      <trkpt lat="45.02855" lon="5.63097">
        <ele>849.8</ele>
        <time>2013-04-14T12:14:04Z</time>
      </trkpt>
      <trkpt lat="45.02861" lon="5.63089">
        <ele>847.9</ele>
        <time>2013-04-14T12:14:07Z</time>
      </trkpt>
      <trkpt lat="45.02867" lon="5.63086">
        <ele>846.8</ele>
        <time>2013-04-14T12:14:09Z</time>
      </trkpt>
      <trkpt lat="45.02875" lon="5.63082">
        <ele>844.3</ele>
        <time>2013-04-14T12:14:12Z</time>
      </trkpt>
      <trkpt lat="45.02882" lon="5.63083">
        <ele>840.4</ele>
        <time>2013-04-14T12:14:16Z</time>
      </trkpt>
      <trkpt lat="45.0289" lon="5.63081">
        <ele>837.8</ele>
        <time>2013-04-14T12:14:19Z</time>
      </trkpt>
      <trkpt lat="45.02896" lon="5.63079">
        <ele>835.6</ele>
        <time>2013-04-14T12:14:21Z</time>
      </trkpt>
      <trkpt lat="45.02903" lon="5.63076">
        <ele>833.2</ele>
        <time>2013-04-14T12:14:23Z</time>
      </trkpt>
      <trkpt lat="45.02911" lon="5.6307">
        <ele>831.9</ele>
        <time>2013-04-14T12:14:25Z</time>
      </trkpt>
      <trkpt lat="45.02918" lon="5.63062">
        <ele>829</ele>
        <time>2013-04-14T12:14:27Z</time>
      </trkpt>
      <trkpt lat="45.02924" lon="5.63056">
        <ele>826.3</ele>
        <time>2013-04-14T12:14:29Z</time>
      </trkpt>
      <trkpt lat="45.02931" lon="5.63049">
        <ele>823.9</ele>
        <time>2013-04-14T12:14:31Z</time>
      </trkpt>
      <trkpt lat="45.02938" lon="5.63043">
        <ele>820.7</ele>
        <time>2013-04-14T12:14:33Z</time>
      </trkpt>
      <trkpt lat="45.02941" lon="5.63041">
        <ele>819.6</ele>
        <time>2013-04-14T12:14:34Z</time>
      </trkpt>
      <trkpt lat="45.02946" lon="5.63038">
        <ele>818.2</ele>
        <time>2013-04-14T12:14:35Z</time>
      </trkpt>
      <trkpt lat="45.02951" lon="5.63035">
        <ele>817.1</ele>
        <time>2013-04-14T12:14:36Z</time>
      </trkpt>
      <trkpt lat="45.02956" lon="5.63032">
        <ele>816.2</ele>
        <time>2013-04-14T12:14:37Z</time>
      </trkpt>
      <trkpt lat="45.02963" lon="5.63026">
        <ele>814.5</ele>
        <time>2013-04-14T12:14:39Z</time>
      </trkpt>
      <trkpt lat="45.02968" lon="5.63016">
        <ele>813.5</ele>
        <time>2013-04-14T12:14:41Z</time>
      </trkpt>
      <trkpt lat="45.02971" lon="5.63004">
        <ele>811.5</ele>
        <time>2013-04-14T12:14:43Z</time>
      </trkpt>
      <trkpt lat="45.02976" lon="5.62996">
        <ele>809.8</ele>
        <time>2013-04-14T12:14:45Z</time>
      </trkpt>
      <trkpt lat="45.02978" lon="5.62994">
        <ele>809.1</ele>
        <time>2013-04-14T12:14:46Z</time>
      </trkpt>
      <trkpt lat="45.02988" lon="5.62986">
        <ele>806.8</ele>
        <time>2013-04-14T12:14:51Z</time>
      </trkpt>
      <trkpt lat="45.02996" lon="5.62985">
        <ele>806.3</ele>
        <time>2013-04-14T12:14:53Z</time>
      </trkpt>
      <trkpt lat="45.03004" lon="5.62987">
        <ele>805.6</ele>
        <time>2013-04-14T12:14:55Z</time>
      </trkpt>
      <trkpt lat="45.0301" lon="5.6299">
        <ele>805.2</ele>
        <time>2013-04-14T12:14:57Z</time>
      </trkpt>
      <trkpt lat="45.03019" lon="5.62994">
        <ele>803.7</ele>
        <time>2013-04-14T12:15:01Z</time>
      </trkpt>
      <trkpt lat="45.03025" lon="5.62989">
        <ele>801.9</ele>
        <time>2013-04-14T12:15:31Z</time>
      </trkpt>
      <trkpt lat="45.03034" lon="5.62986">
        <ele>801.7</ele>
        <time>2013-04-14T12:15:34Z</time>
      </trkpt>
      <trkpt lat="45.03041" lon="5.62984">
        <ele>801.1</ele>
        <time>2013-04-14T12:15:36Z</time>
      </trkpt>
      <trkpt lat="45.03045" lon="5.62984">
        <ele>800.6</ele>
        <time>2013-04-14T12:15:37Z</time>
      </trkpt>
      <trkpt lat="45.03054" lon="5.62983">
        <ele>799.4</ele>
        <time>2013-04-14T12:15:39Z</time>
      </trkpt>
      <trkpt lat="45.03059" lon="5.62981">
        <ele>798.8</ele>
        <time>2013-04-14T12:15:40Z</time>
      </trkpt>
      <trkpt lat="45.03064" lon="5.6298">
        <ele>798.3</ele>
        <time>2013-04-14T12:15:41Z</time>
      </trkpt>
      <trkpt lat="45.0307" lon="5.62978">
        <ele>798</ele>
        <time>2013-04-14T12:15:42Z</time>
      </trkpt>
      <trkpt lat="45.03075" lon="5.62977">
        <ele>797.8</ele>
        <time>2013-04-14T12:15:43Z</time>
      </trkpt>
      <trkpt lat="45.0308" lon="5.62974">
        <ele>797.6</ele>
        <time>2013-04-14T12:15:44Z</time>
      </trkpt>
      <trkpt lat="45.03085" lon="5.6297">
        <ele>796.6</ele>
        <time>2013-04-14T12:15:45Z</time>
      </trkpt>
      <trkpt lat="45.0309" lon="5.62965">
        <ele>795.9</ele>
        <time>2013-04-14T12:15:46Z</time>
      </trkpt>
      <trkpt lat="45.03094" lon="5.62961">
        <ele>795.4</ele>
        <time>2013-04-14T12:15:47Z</time>
      </trkpt>
      <trkpt lat="45.03099" lon="5.62959">
        <ele>795</ele>
        <time>2013-04-14T12:15:48Z</time>
      </trkpt>
      <trkpt lat="45.03104" lon="5.62959">
        <ele>793.9</ele>
        <time>2013-04-14T12:15:49Z</time>
      </trkpt>
      <trkpt lat="45.03109" lon="5.62959">
        <ele>793</ele>
        <time>2013-04-14T12:15:50Z</time>
      </trkpt>
      <trkpt lat="45.03114" lon="5.6296">
        <ele>792.4</ele>
        <time>2013-04-14T12:15:51Z</time>
      </trkpt>
      <trkpt lat="45.03119" lon="5.6296">
        <ele>790.9</ele>
        <time>2013-04-14T12:15:52Z</time>
      </trkpt>
      <trkpt lat="45.03118" lon="5.62969">
        <ele>785</ele>
        <time>2013-04-14T12:16:00Z</time>
      </trkpt>
      <trkpt lat="45.03115" lon="5.62972">
        <ele>784.1</ele>
        <time>2013-04-14T12:16:01Z</time>
      </trkpt>
      <trkpt lat="45.03111" lon="5.62978">
        <ele>783.4</ele>
        <time>2013-04-14T12:16:02Z</time>
      </trkpt>
      <trkpt lat="45.03108" lon="5.62983">
        <ele>782.9</ele>
        <time>2013-04-14T12:16:03Z</time>
      </trkpt>
      <trkpt lat="45.03104" lon="5.62988">
        <ele>782.5</ele>
        <time>2013-04-14T12:16:04Z</time>
      </trkpt>
      <trkpt lat="45.031" lon="5.62992">
        <ele>781.7</ele>
        <time>2013-04-14T12:16:05Z</time>
      </trkpt>
      <trkpt lat="45.03094" lon="5.62997">
        <ele>781</ele>
        <time>2013-04-14T12:16:06Z</time>
      </trkpt>
      <trkpt lat="45.03091" lon="5.63001">
        <ele>780.6</ele>
        <time>2013-04-14T12:16:07Z</time>
      </trkpt>
      <trkpt lat="45.03089" lon="5.63007">
        <ele>779.7</ele>
        <time>2013-04-14T12:16:08Z</time>
      </trkpt>
      <trkpt lat="45.03085" lon="5.63017">
        <ele>778.6</ele>
        <time>2013-04-14T12:16:10Z</time>
      </trkpt>
      <trkpt lat="45.0308" lon="5.63027">
        <ele>775.9</ele>
        <time>2013-04-14T12:16:13Z</time>
      </trkpt>
      <trkpt lat="45.03086" lon="5.63035">
        <ele>772.8</ele>
        <time>2013-04-14T12:16:17Z</time>
      </trkpt>
      <trkpt lat="45.03093" lon="5.6303">
        <ele>771.9</ele>
        <time>2013-04-14T12:16:19Z</time>
      </trkpt>
      <trkpt lat="45.03099" lon="5.63025">
        <ele>770.5</ele>
        <time>2013-04-14T12:16:21Z</time>
      </trkpt>
      <trkpt lat="45.03108" lon="5.63024">
        <ele>769.2</ele>
        <time>2013-04-14T12:16:23Z</time>
      </trkpt>
      <trkpt lat="45.03113" lon="5.63025">
        <ele>767.8</ele>
        <time>2013-04-14T12:16:24Z</time>
      </trkpt>
      <trkpt lat="45.03119" lon="5.63026">
        <ele>766.8</ele>
        <time>2013-04-14T12:16:25Z</time>
      </trkpt>
      <trkpt lat="45.03124" lon="5.63028">
        <ele>766</ele>
        <time>2013-04-14T12:16:26Z</time>
      </trkpt>
      <trkpt lat="45.03129" lon="5.63031">
        <ele>765</ele>
        <time>2013-04-14T12:16:27Z</time>
      </trkpt>
      <trkpt lat="45.03133" lon="5.63035">
        <ele>764.3</ele>
        <time>2013-04-14T12:16:28Z</time>
      </trkpt>
      <trkpt lat="45.03139" lon="5.63045">
        <ele>762.4</ele>
        <time>2013-04-14T12:16:30Z</time>
      </trkpt>
      <trkpt lat="45.03142" lon="5.63057">
        <ele>760.8</ele>
        <time>2013-04-14T12:16:32Z</time>
      </trkpt>
      <trkpt lat="45.03146" lon="5.63066">
        <ele>757.7</ele>
        <time>2013-04-14T12:16:34Z</time>
      </trkpt>
      <trkpt lat="45.03153" lon="5.63074">
        <ele>755.8</ele>
        <time>2013-04-14T12:16:36Z</time>
      </trkpt>
      <trkpt lat="45.03157" lon="5.63078">
        <ele>755.1</ele>
        <time>2013-04-14T12:16:37Z</time>
      </trkpt>
      <trkpt lat="45.03163" lon="5.63086">
        <ele>754.1</ele>
        <time>2013-04-14T12:16:39Z</time>
      </trkpt>
      <trkpt lat="45.03169" lon="5.63095">
        <ele>752.8</ele>
        <time>2013-04-14T12:16:41Z</time>
      </trkpt>
      <trkpt lat="45.03176" lon="5.63099">
        <ele>751.3</ele>
        <time>2013-04-14T12:16:43Z</time>
      </trkpt>
      <trkpt lat="45.03184" lon="5.63101">
        <ele>750</ele>
        <time>2013-04-14T12:16:45Z</time>
      </trkpt>
      <trkpt lat="45.03191" lon="5.63099">
        <ele>747.9</ele>
        <time>2013-04-14T12:16:47Z</time>
      </trkpt>
      <trkpt lat="45.03195" lon="5.63097">
        <ele>747.2</ele>
        <time>2013-04-14T12:16:48Z</time>
      </trkpt>
      <trkpt lat="45.03207" lon="5.63104">
        <ele>744.9</ele>
        <time>2013-04-14T12:16:51Z</time>
      </trkpt>
      <trkpt lat="45.03211" lon="5.63109">
        <ele>744.5</ele>
        <time>2013-04-14T12:16:52Z</time>
      </trkpt>
      <trkpt lat="45.03216" lon="5.63114">
        <ele>743.2</ele>
        <time>2013-04-14T12:16:53Z</time>
      </trkpt>
      <trkpt lat="45.03223" lon="5.63118">
        <ele>742.2</ele>
        <time>2013-04-14T12:16:54Z</time>
      </trkpt>
      <trkpt lat="45.03229" lon="5.63122">
        <ele>741.5</ele>
        <time>2013-04-14T12:16:55Z</time>
      </trkpt>
      <trkpt lat="45.03235" lon="5.63128">
        <ele>740.1</ele>
        <time>2013-04-14T12:16:56Z</time>
      </trkpt>
      <trkpt lat="45.03239" lon="5.63133">
        <ele>739.1</ele>
        <time>2013-04-14T12:16:57Z</time>
      </trkpt>
      <trkpt lat="45.03244" lon="5.63138">
        <ele>738.3</ele>
        <time>2013-04-14T12:16:58Z</time>
      </trkpt>
      <trkpt lat="45.03247" lon="5.63144">
        <ele>737.2</ele>
        <time>2013-04-14T12:16:59Z</time>
      </trkpt>
      <trkpt lat="45.03251" lon="5.63151">
        <ele>736.4</ele>
        <time>2013-04-14T12:17:00Z</time>
      </trkpt>
      <trkpt lat="45.03255" lon="5.63156">
        <ele>735.8</ele>
        <time>2013-04-14T12:17:01Z</time>
      </trkpt>
      <trkpt lat="45.03261" lon="5.63161">
        <ele>734.3</ele>
        <time>2013-04-14T12:17:02Z</time>
      </trkpt>
      <trkpt lat="45.03268" lon="5.63165">
        <ele>733.2</ele>
        <time>2013-04-14T12:17:03Z</time>
      </trkpt>
      <trkpt lat="45.03274" lon="5.6317">
        <ele>732.4</ele>
        <time>2013-04-14T12:17:04Z</time>
      </trkpt>
      <trkpt lat="45.0328" lon="5.63175">
        <ele>731.2</ele>
        <time>2013-04-14T12:17:05Z</time>
      </trkpt>
      <trkpt lat="45.03285" lon="5.63182">
        <ele>730.2</ele>
        <time>2013-04-14T12:17:06Z</time>
      </trkpt>
      <trkpt lat="45.03288" lon="5.63189">
        <ele>729.5</ele>
        <time>2013-04-14T12:17:07Z</time>
      </trkpt>
      <trkpt lat="45.0329" lon="5.63197">
        <ele>728.3</ele>
        <time>2013-04-14T12:17:08Z</time>
      </trkpt>
      <trkpt lat="45.03291" lon="5.63207">
        <ele>727.4</ele>
        <time>2013-04-14T12:17:09Z</time>
      </trkpt>
      <trkpt lat="45.0329" lon="5.63216">
        <ele>726.7</ele>
        <time>2013-04-14T12:17:10Z</time>
      </trkpt>
      <trkpt lat="45.03291" lon="5.63227">
        <ele>726.2</ele>
        <time>2013-04-14T12:17:11Z</time>
      </trkpt>
      <trkpt lat="45.03292" lon="5.63236">
        <ele>725.3</ele>
        <time>2013-04-14T12:17:12Z</time>
      </trkpt>
      <trkpt lat="45.03293" lon="5.63243">
        <ele>724.7</ele>
        <time>2013-04-14T12:17:13Z</time>
      </trkpt>
      <trkpt lat="45.03298" lon="5.63253">
        <ele>723.1</ele>
        <time>2013-04-14T12:17:15Z</time>
      </trkpt>
      <trkpt lat="45.03303" lon="5.63262">
        <ele>717.4</ele>
        <time>2013-04-14T12:17:31Z</time>
      </trkpt>
      <trkpt lat="45.03306" lon="5.63273">
        <ele>718.4</ele>
        <time>2013-04-14T12:17:46Z</time>
      </trkpt>
      <trkpt lat="45.03304" lon="5.63284">
        <ele>717.8</ele>
        <time>2013-04-14T12:17:49Z</time>
      </trkpt>
      <trkpt lat="45.03302" lon="5.63288">
        <ele>717.3</ele>
        <time>2013-04-14T12:17:50Z</time>
      </trkpt>
      <trkpt lat="45.03295" lon="5.63297">
        <ele>716.5</ele>
        <time>2013-04-14T12:17:53Z</time>
      </trkpt>
      <trkpt lat="45.03301" lon="5.63292">
        <ele>715.1</ele>
        <time>2013-04-14T12:18:22Z</time>
      </trkpt>
      <trkpt lat="45.03306" lon="5.63283">
        <ele>715.9</ele>
        <time>2013-04-14T12:18:26Z</time>
      </trkpt>
      <trkpt lat="45.03307" lon="5.63272">
        <ele>717.1</ele>
        <time>2013-04-14T12:18:30Z</time>
      </trkpt>
      <trkpt lat="45.0331" lon="5.63261">
        <ele>717</ele>
        <time>2013-04-14T12:18:34Z</time>
      </trkpt>
      <trkpt lat="45.03316" lon="5.63253">
        <ele>719.8</ele>
        <time>2013-04-14T12:18:48Z</time>
      </trkpt>
      <trkpt lat="45.03323" lon="5.6325">
        <ele>719.9</ele>
        <time>2013-04-14T12:19:09Z</time>
      </trkpt>
      <trkpt lat="45.03324" lon="5.63249">
        <ele>720</ele>
        <time>2013-04-14T12:19:10Z</time>
      </trkpt>
      <trkpt lat="45.03339" lon="5.63243">
        <ele>720.9</ele>
        <time>2013-04-14T12:19:24Z</time>
      </trkpt>
      <trkpt lat="45.03346" lon="5.63236">
        <ele>721</ele>
        <time>2013-04-14T12:19:28Z</time>
      </trkpt>
      <trkpt lat="45.03353" lon="5.63228">
        <ele>720.8</ele>
        <time>2013-04-14T12:19:31Z</time>
      </trkpt>
      <trkpt lat="45.0336" lon="5.63222">
        <ele>721.5</ele>
        <time>2013-04-14T12:19:34Z</time>
      </trkpt>
      <trkpt lat="45.03367" lon="5.63214">
        <ele>721.9</ele>
        <time>2013-04-14T12:19:37Z</time>
      </trkpt>
      <trkpt lat="45.03372" lon="5.6321">
        <ele>722.8</ele>
        <time>2013-04-14T12:19:39Z</time>
      </trkpt>
      <trkpt lat="45.03378" lon="5.63205">
        <ele>723.4</ele>
        <time>2013-04-14T12:19:41Z</time>
      </trkpt>
      <trkpt lat="45.03384" lon="5.63202">
        <ele>723.2</ele>
        <time>2013-04-14T12:19:43Z</time>
      </trkpt>
      <trkpt lat="45.03392" lon="5.63199">
        <ele>723.6</ele>
        <time>2013-04-14T12:19:46Z</time>
      </trkpt>
      <trkpt lat="45.03399" lon="5.63195">
        <ele>722.9</ele>
        <time>2013-04-14T12:19:49Z</time>
      </trkpt>
      <trkpt lat="45.03406" lon="5.63193">
        <ele>723.4</ele>
        <time>2013-04-14T12:19:52Z</time>
      </trkpt>
      <trkpt lat="45.03412" lon="5.63185">
        <ele>723.4</ele>
        <time>2013-04-14T12:19:56Z</time>
      </trkpt>
      <trkpt lat="45.03418" lon="5.63175">
        <ele>723.2</ele>
        <time>2013-04-14T12:20:00Z</time>
      </trkpt>
      <trkpt lat="45.03424" lon="5.63168">
        <ele>724.8</ele>
        <time>2013-04-14T12:20:04Z</time>
      </trkpt>
      <trkpt lat="45.0343" lon="5.63162">
        <ele>725.1</ele>
        <time>2013-04-14T12:20:08Z</time>
      </trkpt>
      <trkpt lat="45.03436" lon="5.63155">
        <ele>724.7</ele>
        <time>2013-04-14T12:20:13Z</time>
      </trkpt>
      <trkpt lat="45.03438" lon="5.63154">
        <ele>725.3</ele>
        <time>2013-04-14T12:20:14Z</time>
      </trkpt>
      <trkpt lat="45.0345" lon="5.6314">
        <ele>727</ele>
        <time>2013-04-14T12:20:23Z</time>
      </trkpt>
      <trkpt lat="45.03457" lon="5.63133">
        <ele>727.3</ele>
        <time>2013-04-14T12:20:28Z</time>
      </trkpt>
      <trkpt lat="45.03464" lon="5.63126">
        <ele>728.2</ele>
        <time>2013-04-14T12:20:33Z</time>
      </trkpt>
      <trkpt lat="45.03471" lon="5.63117">
        <ele>729.5</ele>
        <time>2013-04-14T12:20:38Z</time>
      </trkpt>
      <trkpt lat="45.03477" lon="5.63108">
        <ele>730.3</ele>
        <time>2013-04-14T12:20:43Z</time>
      </trkpt>
      <trkpt lat="45.03482" lon="5.631">
        <ele>730.9</ele>
        <time>2013-04-14T12:20:47Z</time>
      </trkpt>
      <trkpt lat="45.03487" lon="5.6309">
        <ele>731.1</ele>
        <time>2013-04-14T12:20:52Z</time>
      </trkpt>
      <trkpt lat="45.03481" lon="5.63081">
        <ele>732.1</ele>
        <time>2013-04-14T12:32:08Z</time>
      </trkpt>
      <trkpt lat="45.03481" lon="5.63081">
        <ele>732.1</ele>
        <time>2013-04-14T12:32:09Z</time>
      </trkpt>
      <trkpt lat="45.03474" lon="5.63073">
        <ele>731.8</ele>
        <time>2013-04-14T12:36:32Z</time>
      </trkpt>
      <trkpt lat="45.03476" lon="5.63086">
        <ele>730.3</ele>
        <time>2013-04-14T12:43:52Z</time>
      </trkpt>
      <trkpt lat="45.03479" lon="5.63089">
        <ele>731.2</ele>
        <time>2013-04-14T12:44:39Z</time>
      </trkpt>
      <trkpt lat="45.03481" lon="5.63077">
        <ele>731.3</ele>
        <time>2013-04-14T12:58:15Z</time>
      </trkpt>
      <trkpt lat="45.03481" lon="5.63076">
        <ele>731.3</ele>
        <time>2013-04-14T12:58:16Z</time>
      </trkpt>
      <trkpt lat="45.03488" lon="5.63068">
        <ele>732</ele>
        <time>2013-04-14T13:16:23Z</time>
      </trkpt>
      <trkpt lat="45.03487" lon="5.63081">
        <ele>732.9</ele>
        <time>2013-04-14T13:20:04Z</time>
      </trkpt>
      <trkpt lat="45.03479" lon="5.63088">
        <ele>734</ele>
        <time>2013-04-14T13:34:01Z</time>
      </trkpt>
      <trkpt lat="45.03486" lon="5.63079">
        <ele>735.2</ele>
        <time>2013-04-14T13:47:02Z</time>
      </trkpt>
      <trkpt lat="45.03478" lon="5.63086">
        <ele>735.9</ele>
        <time>2013-04-14T13:49:35Z</time>
      </trkpt>
      <trkpt lat="45.03469" lon="5.63087">
        <ele>735.7</ele>
        <time>2013-04-14T13:50:39Z</time>
      </trkpt>
      <trkpt lat="45.03476" lon="5.63079">
        <ele>736.7</ele>
        <time>2013-04-14T13:53:33Z</time>
      </trkpt>
      <trkpt lat="45.03484" lon="5.63075">
        <ele>735.4</ele>
        <time>2013-04-14T13:58:18Z</time>
      </trkpt>
      <trkpt lat="45.03492" lon="5.63068">
        <ele>735.3</ele>
        <time>2013-04-14T14:04:25Z</time>
      </trkpt>
      <trkpt lat="45.03499" lon="5.6306">
        <ele>735.5</ele>
        <time>2013-04-14T14:07:41Z</time>
      </trkpt>
      <trkpt lat="45.03514" lon="5.6305">
        <ele>735.9</ele>
        <time>2013-04-14T14:07:54Z</time>
      </trkpt>
      <trkpt lat="45.03521" lon="5.63044">
        <ele>737.4</ele>
        <time>2013-04-14T14:07:59Z</time>
      </trkpt>
      <trkpt lat="45.03528" lon="5.63038">
        <ele>735.8</ele>
        <time>2013-04-14T14:08:19Z</time>
      </trkpt>
      <trkpt lat="45.03521" lon="5.63041">
        <ele>735.6</ele>
        <time>2013-04-14T14:08:41Z</time>
      </trkpt>
      <trkpt lat="45.0352" lon="5.63042">
        <ele>735.7</ele>
        <time>2013-04-14T14:08:42Z</time>
      </trkpt>
      <trkpt lat="45.03507" lon="5.63055">
        <ele>735.6</ele>
        <time>2013-04-14T14:09:38Z</time>
      </trkpt>
      <trkpt lat="45.03501" lon="5.63064">
        <ele>735.1</ele>
        <time>2013-04-14T14:09:45Z</time>
      </trkpt>
      <trkpt lat="45.035" lon="5.63065">
        <ele>735</ele>
        <time>2013-04-14T14:09:46Z</time>
      </trkpt>
      <trkpt lat="45.03502" lon="5.63077">
        <ele>736.1</ele>
        <time>2013-04-14T14:12:26Z</time>
      </trkpt>
      <trkpt lat="45.03504" lon="5.63076">
        <ele>736.2</ele>
        <time>2013-04-14T14:12:27Z</time>
      </trkpt>
      <trkpt lat="45.03503" lon="5.63079">
        <ele>736</ele>
        <time>2013-04-14T14:12:49Z</time>
      </trkpt>
      <trkpt lat="45.03494" lon="5.63083">
        <ele>736.5</ele>
        <time>2013-04-14T14:13:12Z</time>
      </trkpt>
      <trkpt lat="45.03503" lon="5.63082">
        <ele>736.3</ele>
        <time>2013-04-14T14:15:04Z</time>
      </trkpt>
      <trkpt lat="45.03504" lon="5.63082">
        <ele>735.9</ele>
        <time>2013-04-14T14:15:05Z</time>
      </trkpt>
      <trkpt lat="45.03493" lon="5.63081">
        <ele>736.4</ele>
        <time>2013-04-14T14:16:39Z</time>
      </trkpt>
      <trkpt lat="45.03485" lon="5.63084">
        <ele>736.7</ele>
        <time>2013-04-14T14:20:47Z</time>
      </trkpt>
      <trkpt lat="45.03486" lon="5.63085">
        <ele>736.7</ele>
        <time>2013-04-14T14:22:29Z</time>
      </trkpt>
      <trkpt lat="45.03486" lon="5.63085">
        <ele>736.8</ele>
        <time>2013-04-14T14:22:30Z</time>
      </trkpt>
      <trkpt lat="45.03492" lon="5.63094">
        <ele>739.1</ele>
        <time>2013-04-14T15:00:32Z</time>
      </trkpt>
      <trkpt lat="45.03499" lon="5.63103">
        <ele>739.7</ele>
        <time>2013-04-14T15:03:28Z</time>
      </trkpt>
      <trkpt lat="45.03491" lon="5.63097">
        <ele>739.7</ele>
        <time>2013-04-14T15:05:36Z</time>
      </trkpt>
      <trkpt lat="45.03496" lon="5.63107">
        <ele>740.2</ele>
        <time>2013-04-14T15:08:18Z</time>
      </trkpt>
      <trkpt lat="45.03498" lon="5.63104">
        <ele>739.3</ele>
        <time>2013-04-14T15:10:15Z</time>
      </trkpt>
      <trkpt lat="45.03498" lon="5.63105">
        <ele>739.2</ele>
        <time>2013-04-14T15:10:16Z</time>
      </trkpt>
      <trkpt lat="45.03496" lon="5.63106">
        <ele>739.7</ele>
        <time>2013-04-14T15:11:18Z</time>
      </trkpt>
      <trkpt lat="45.03496" lon="5.63105">
        <ele>739.6</ele>
        <time>2013-04-14T15:11:19Z</time>
      </trkpt>
      <trkpt lat="45.03487" lon="5.63109">
        <ele>738.3</ele>
        <time>2013-04-14T15:12:38Z</time>
      </trkpt>
      <trkpt lat="45.03473" lon="5.63109">
        <ele>738.6</ele>
        <time>2013-04-14T15:13:22Z</time>
      </trkpt>
      <trkpt lat="45.03472" lon="5.63097">
        <ele>738.8</ele>
        <time>2013-04-14T15:13:52Z</time>
      </trkpt>
      <trkpt lat="45.03472" lon="5.63097">
        <ele>739</ele>
        <time>2013-04-14T15:13:53Z</time>
      </trkpt>
      <trkpt lat="45.03483" lon="5.63116">
        <ele>738.6</ele>
        <time>2013-04-14T15:14:43Z</time>
      </trkpt>
      <trkpt lat="45.03482" lon="5.63103">
        <ele>738.8</ele>
        <time>2013-04-14T15:15:12Z</time>
      </trkpt>
      <trkpt lat="45.03481" lon="5.63103">
        <ele>738.8</ele>
        <time>2013-04-14T15:15:13Z</time>
      </trkpt>
      <trkpt lat="45.0348" lon="5.63119">
        <ele>739.3</ele>
        <time>2013-04-14T15:16:11Z</time>
      </trkpt>
      <trkpt lat="45.03477" lon="5.63108">
        <ele>739.2</ele>
        <time>2013-04-14T15:16:54Z</time>
      </trkpt>
      <trkpt lat="45.03477" lon="5.63108">
        <ele>739.4</ele>
        <time>2013-04-14T15:16:55Z</time>
      </trkpt>
      <trkpt lat="45.03479" lon="5.63129">
        <ele>739.3</ele>
        <time>2013-04-14T15:17:12Z</time>
      </trkpt>
      <trkpt lat="45.03481" lon="5.6314">
        <ele>737.8</ele>
        <time>2013-04-14T15:17:14Z</time>
      </trkpt>
      <trkpt lat="45.03484" lon="5.6315">
        <ele>737.7</ele>
        <time>2013-04-14T15:17:16Z</time>
      </trkpt>
      <trkpt lat="45.03483" lon="5.63161">
        <ele>738</ele>
        <time>2013-04-14T15:17:20Z</time>
      </trkpt>
      <trkpt lat="45.03477" lon="5.63166">
        <ele>737.8</ele>
        <time>2013-04-14T15:17:22Z</time>
      </trkpt>
      <trkpt lat="45.03471" lon="5.63168">
        <ele>736.4</ele>
        <time>2013-04-14T15:17:24Z</time>
      </trkpt>
      <trkpt lat="45.03465" lon="5.63171">
        <ele>736</ele>
        <time>2013-04-14T15:17:26Z</time>
      </trkpt>
      <trkpt lat="45.03458" lon="5.63175">
        <ele>736</ele>
        <time>2013-04-14T15:17:28Z</time>
      </trkpt>
      <trkpt lat="45.0345" lon="5.63179">
        <ele>734.2</ele>
        <time>2013-04-14T15:17:30Z</time>
      </trkpt>
      <trkpt lat="45.03444" lon="5.63183">
        <ele>733.7</ele>
        <time>2013-04-14T15:17:31Z</time>
      </trkpt>
      <trkpt lat="45.03439" lon="5.63185">
        <ele>733.2</ele>
        <time>2013-04-14T15:17:32Z</time>
      </trkpt>
      <trkpt lat="45.03434" lon="5.63189">
        <ele>732.9</ele>
        <time>2013-04-14T15:17:33Z</time>
      </trkpt>
      <trkpt lat="45.03428" lon="5.63194">
        <ele>732.6</ele>
        <time>2013-04-14T15:17:34Z</time>
      </trkpt>
      <trkpt lat="45.03423" lon="5.63198">
        <ele>732.2</ele>
        <time>2013-04-14T15:17:35Z</time>
      </trkpt>
      <trkpt lat="45.03418" lon="5.63201">
        <ele>731.9</ele>
        <time>2013-04-14T15:17:36Z</time>
      </trkpt>
      <trkpt lat="45.03413" lon="5.63204">
        <ele>731.6</ele>
        <time>2013-04-14T15:17:37Z</time>
      </trkpt>
      <trkpt lat="45.03407" lon="5.63205">
        <ele>731.8</ele>
        <time>2013-04-14T15:17:38Z</time>
      </trkpt>
      <trkpt lat="45.03402" lon="5.63205">
        <ele>732</ele>
        <time>2013-04-14T15:17:39Z</time>
      </trkpt>
      <trkpt lat="45.03398" lon="5.63205">
        <ele>732.1</ele>
        <time>2013-04-14T15:17:40Z</time>
      </trkpt>
      <trkpt lat="45.0339" lon="5.63204">
        <ele>731.9</ele>
        <time>2013-04-14T15:17:42Z</time>
      </trkpt>
      <trkpt lat="45.03383" lon="5.63205">
        <ele>731.6</ele>
        <time>2013-04-14T15:17:44Z</time>
      </trkpt>
      <trkpt lat="45.03376" lon="5.63212">
        <ele>731.6</ele>
        <time>2013-04-14T15:17:47Z</time>
      </trkpt>
      <trkpt lat="45.03368" lon="5.63217">
        <ele>730</ele>
        <time>2013-04-14T15:17:50Z</time>
      </trkpt>
      <trkpt lat="45.03363" lon="5.63223">
        <ele>730.5</ele>
        <time>2013-04-14T15:17:53Z</time>
      </trkpt>
      <trkpt lat="45.03358" lon="5.63229">
        <ele>730.6</ele>
        <time>2013-04-14T15:17:55Z</time>
      </trkpt>
      <trkpt lat="45.03356" lon="5.63231">
        <ele>730.7</ele>
        <time>2013-04-14T15:17:56Z</time>
      </trkpt>
      <trkpt lat="45.03347" lon="5.63238">
        <ele>730.5</ele>
        <time>2013-04-14T15:17:59Z</time>
      </trkpt>
      <trkpt lat="45.03339" lon="5.63243">
        <ele>730.6</ele>
        <time>2013-04-14T15:18:01Z</time>
      </trkpt>
      <trkpt lat="45.03332" lon="5.63248">
        <ele>730.8</ele>
        <time>2013-04-14T15:18:03Z</time>
      </trkpt>
      <trkpt lat="45.03325" lon="5.63251">
        <ele>730.5</ele>
        <time>2013-04-14T15:18:05Z</time>
      </trkpt>
      <trkpt lat="45.03316" lon="5.63256">
        <ele>728.3</ele>
        <time>2013-04-14T15:18:13Z</time>
      </trkpt>
      <trkpt lat="45.03309" lon="5.6326">
        <ele>729.3</ele>
        <time>2013-04-14T15:20:12Z</time>
      </trkpt>
      <trkpt lat="45.03308" lon="5.63261">
        <ele>729.5</ele>
        <time>2013-04-14T15:20:13Z</time>
      </trkpt>
      <trkpt lat="45.03311" lon="5.63276">
        <ele>726.1</ele>
        <time>2013-04-14T15:22:37Z</time>
      </trkpt>
      <trkpt lat="45.03311" lon="5.63277">
        <ele>725.9</ele>
        <time>2013-04-14T15:22:38Z</time>
      </trkpt>
      <trkpt lat="45.03301" lon="5.63294">
        <ele>725.9</ele>
        <time>2013-04-14T15:22:53Z</time>
      </trkpt>
      <trkpt lat="45.03294" lon="5.633">
        <ele>725.9</ele>
        <time>2013-04-14T15:22:58Z</time>
      </trkpt>
      <trkpt lat="45.03288" lon="5.63302">
        <ele>725.3</ele>
        <time>2013-04-14T15:23:00Z</time>
      </trkpt>
      <trkpt lat="45.0328" lon="5.633">
        <ele>724.4</ele>
        <time>2013-04-14T15:23:02Z</time>
      </trkpt>
      <trkpt lat="45.03274" lon="5.63298">
        <ele>724.1</ele>
        <time>2013-04-14T15:23:03Z</time>
      </trkpt>
      <trkpt lat="45.03269" lon="5.63295">
        <ele>723.7</ele>
        <time>2013-04-14T15:23:04Z</time>
      </trkpt>
      <trkpt lat="45.03262" lon="5.63293">
        <ele>723.5</ele>
        <time>2013-04-14T15:23:05Z</time>
      </trkpt>
      <trkpt lat="45.03256" lon="5.63291">
        <ele>723.3</ele>
        <time>2013-04-14T15:23:06Z</time>
      </trkpt>
      <trkpt lat="45.03249" lon="5.63291">
        <ele>722.3</ele>
        <time>2013-04-14T15:23:07Z</time>
      </trkpt>
      <trkpt lat="45.03242" lon="5.6329">
        <ele>721.5</ele>
        <time>2013-04-14T15:23:08Z</time>
      </trkpt>
      <trkpt lat="45.03235" lon="5.63288">
        <ele>721</ele>
        <time>2013-04-14T15:23:09Z</time>
      </trkpt>
      <trkpt lat="45.03227" lon="5.63286">
        <ele>720</ele>
        <time>2013-04-14T15:23:10Z</time>
      </trkpt>
      <trkpt lat="45.03218" lon="5.63284">
        <ele>719.2</ele>
        <time>2013-04-14T15:23:11Z</time>
      </trkpt>
      <trkpt lat="45.0321" lon="5.63283">
        <ele>718.6</ele>
        <time>2013-04-14T15:23:12Z</time>
      </trkpt>
      <trkpt lat="45.03201" lon="5.63282">
        <ele>718.2</ele>
        <time>2013-04-14T15:23:13Z</time>
      </trkpt>
      <trkpt lat="45.03192" lon="5.63282">
        <ele>716</ele>
        <time>2013-04-14T15:23:14Z</time>
      </trkpt>
      <trkpt lat="45.03185" lon="5.63281">
        <ele>714.4</ele>
        <time>2013-04-14T15:23:15Z</time>
      </trkpt>
      <trkpt lat="45.03179" lon="5.63282">
        <ele>713.2</ele>
        <time>2013-04-14T15:23:16Z</time>
      </trkpt>
      <trkpt lat="45.03173" lon="5.63282">
        <ele>711.2</ele>
        <time>2013-04-14T15:23:17Z</time>
      </trkpt>
      <trkpt lat="45.03166" lon="5.6329">
        <ele>706.7</ele>
        <time>2013-04-14T15:23:20Z</time>
      </trkpt>
      <trkpt lat="45.03167" lon="5.63298">
        <ele>704</ele>
        <time>2013-04-14T15:23:22Z</time>
      </trkpt>
      <trkpt lat="45.03165" lon="5.63307">
        <ele>699.8</ele>
        <time>2013-04-14T15:23:25Z</time>
      </trkpt>
      <trkpt lat="45.03159" lon="5.63313">
        <ele>697.2</ele>
        <time>2013-04-14T15:23:27Z</time>
      </trkpt>
      <trkpt lat="45.03157" lon="5.63326">
        <ele>695.8</ele>
        <time>2013-04-14T15:23:29Z</time>
      </trkpt>
      <trkpt lat="45.03156" lon="5.63333">
        <ele>694.7</ele>
        <time>2013-04-14T15:23:30Z</time>
      </trkpt>
      <trkpt lat="45.03154" lon="5.63338">
        <ele>693.9</ele>
        <time>2013-04-14T15:23:31Z</time>
      </trkpt>
      <trkpt lat="45.03148" lon="5.63347">
        <ele>691.6</ele>
        <time>2013-04-14T15:23:33Z</time>
      </trkpt>
      <trkpt lat="45.03148" lon="5.63358">
        <ele>688.5</ele>
        <time>2013-04-14T15:23:35Z</time>
      </trkpt>
      <trkpt lat="45.03152" lon="5.63366">
        <ele>686</ele>
        <time>2013-04-14T15:23:37Z</time>
      </trkpt>
      <trkpt lat="45.03159" lon="5.63371">
        <ele>683.6</ele>
        <time>2013-04-14T15:23:39Z</time>
      </trkpt>
      <trkpt lat="45.03161" lon="5.63375">
        <ele>682.4</ele>
        <time>2013-04-14T15:23:40Z</time>
      </trkpt>
      <trkpt lat="45.03158" lon="5.63388">
        <ele>677.9</ele>
        <time>2013-04-14T15:23:43Z</time>
      </trkpt>
      <trkpt lat="45.03154" lon="5.63393">
        <ele>676.8</ele>
        <time>2013-04-14T15:23:44Z</time>
      </trkpt>
      <trkpt lat="45.03149" lon="5.63398">
        <ele>676</ele>
        <time>2013-04-14T15:23:45Z</time>
      </trkpt>
      <trkpt lat="45.03144" lon="5.63403">
        <ele>674.9</ele>
        <time>2013-04-14T15:23:46Z</time>
      </trkpt>
      <trkpt lat="45.03139" lon="5.6341">
        <ele>674.1</ele>
        <time>2013-04-14T15:23:47Z</time>
      </trkpt>
      <trkpt lat="45.03135" lon="5.63419">
        <ele>673.5</ele>
        <time>2013-04-14T15:23:48Z</time>
      </trkpt>
      <trkpt lat="45.03131" lon="5.63428">
        <ele>671.9</ele>
        <time>2013-04-14T15:23:49Z</time>
      </trkpt>
      <trkpt lat="45.03127" lon="5.63436">
        <ele>670.8</ele>
        <time>2013-04-14T15:23:50Z</time>
      </trkpt>
      <trkpt lat="45.03124" lon="5.63443">
        <ele>669.9</ele>
        <time>2013-04-14T15:23:51Z</time>
      </trkpt>
      <trkpt lat="45.0312" lon="5.6345">
        <ele>667.7</ele>
        <time>2013-04-14T15:23:52Z</time>
      </trkpt>
      <trkpt lat="45.03116" lon="5.63456">
        <ele>666</ele>
        <time>2013-04-14T15:23:53Z</time>
      </trkpt>
      <trkpt lat="45.03112" lon="5.63459">
        <ele>664.7</ele>
        <time>2013-04-14T15:23:54Z</time>
      </trkpt>
      <trkpt lat="45.03104" lon="5.6346">
        <ele>661.2</ele>
        <time>2013-04-14T15:23:56Z</time>
      </trkpt>
      <trkpt lat="45.031" lon="5.63461">
        <ele>660</ele>
        <time>2013-04-14T15:23:57Z</time>
      </trkpt>
      <trkpt lat="45.03087" lon="5.63468">
        <ele>657.7</ele>
        <time>2013-04-14T15:24:06Z</time>
      </trkpt>
      <trkpt lat="45.0308" lon="5.63475">
        <ele>651.3</ele>
        <time>2013-04-14T15:24:30Z</time>
      </trkpt>
      <trkpt lat="45.03084" lon="5.63483">
        <ele>651.3</ele>
        <time>2013-04-14T15:25:24Z</time>
      </trkpt>
      <trkpt lat="45.03081" lon="5.6349">
        <ele>651.3</ele>
        <time>2013-04-14T15:25:28Z</time>
      </trkpt>
      <trkpt lat="45.03073" lon="5.63484">
        <ele>652.1</ele>
        <time>2013-04-14T15:26:09Z</time>
      </trkpt>
      <trkpt lat="45.03071" lon="5.63496">
        <ele>651.7</ele>
        <time>2013-04-14T15:26:21Z</time>
      </trkpt>
      <trkpt lat="45.03078" lon="5.6349">
        <ele>651.7</ele>
        <time>2013-04-14T15:27:13Z</time>
      </trkpt>
      <trkpt lat="45.03079" lon="5.63489">
        <ele>651.7</ele>
        <time>2013-04-14T15:27:14Z</time>
      </trkpt>
      <trkpt lat="45.03078" lon="5.63515">
        <ele>651</ele>
        <time>2013-04-14T15:28:08Z</time>
      </trkpt>
      <trkpt lat="45.0307" lon="5.63513">
        <ele>650.4</ele>
        <time>2013-04-14T15:28:40Z</time>
      </trkpt>
      <trkpt lat="45.03069" lon="5.63512">
        <ele>650.5</ele>
        <time>2013-04-14T15:28:41Z</time>
      </trkpt>
      <trkpt lat="45.03076" lon="5.63504">
        <ele>652.2</ele>
        <time>2013-04-14T15:29:56Z</time>
      </trkpt>
      <trkpt lat="45.0308" lon="5.63504">
        <ele>652.4</ele>
        <time>2013-04-14T15:31:22Z</time>
      </trkpt>
      <trkpt lat="45.0308" lon="5.63505">
        <ele>652.4</ele>
        <time>2013-04-14T15:31:23Z</time>
      </trkpt>
      <trkpt lat="45.03081" lon="5.63491">
        <ele>652.4</ele>
        <time>2013-04-14T15:32:27Z</time>
      </trkpt>
      <trkpt lat="45.03085" lon="5.63495">
        <ele>652.3</ele>
        <time>2013-04-14T15:33:43Z</time>
      </trkpt>
      <trkpt lat="45.03086" lon="5.63492">
        <ele>652.3</ele>
        <time>2013-04-14T15:33:44Z</time>
      </trkpt>
      <trkpt lat="45.03089" lon="5.63471">
        <ele>651.2</ele>
        <time>2013-04-14T15:34:22Z</time>
      </trkpt>
      <trkpt lat="45.03085" lon="5.63482">
        <ele>651.1</ele>
        <time>2013-04-14T15:35:37Z</time>
      </trkpt>
      <trkpt lat="45.03085" lon="5.63483">
        <ele>651.1</ele>
        <time>2013-04-14T15:35:38Z</time>
      </trkpt>
      <trkpt lat="45.03072" lon="5.63467">
        <ele>650.7</ele>
        <time>2013-04-14T15:38:16Z</time>
      </trkpt>
      <trkpt lat="45.03072" lon="5.63467">
        <ele>650.4</ele>
        <time>2013-04-14T15:38:17Z</time>
      </trkpt>
      <trkpt lat="45.03061" lon="5.6345">
        <ele>650.9</ele>
        <time>2013-04-14T15:38:39Z</time>
      </trkpt>
      <trkpt lat="45.03068" lon="5.63459">
        <ele>650.1</ele>
        <time>2013-04-14T15:39:52Z</time>
      </trkpt>
      <trkpt lat="45.03068" lon="5.63459">
        <ele>650.1</ele>
        <time>2013-04-14T15:39:53Z</time>
      </trkpt>
      <trkpt lat="45.03081" lon="5.63457">
        <ele>649.5</ele>
        <time>2013-04-14T15:42:14Z</time>
      </trkpt>
      <trkpt lat="45.03081" lon="5.63457">
        <ele>649.5</ele>
        <time>2013-04-14T15:42:15Z</time>
      </trkpt>
      <trkpt lat="45.03078" lon="5.6347">
        <ele>649.8</ele>
        <time>2013-04-14T15:44:00Z</time>
      </trkpt>
      <trkpt lat="45.0307" lon="5.63484">
        <ele>649.1</ele>
        <time>2013-04-14T15:44:05Z</time>
      </trkpt>
      <trkpt lat="45.03066" lon="5.6349">
        <ele>649</ele>
        <time>2013-04-14T15:44:07Z</time>
      </trkpt>
      <trkpt lat="45.0306" lon="5.63498">
        <ele>648.4</ele>
        <time>2013-04-14T15:44:09Z</time>
      </trkpt>
      <trkpt lat="45.03053" lon="5.63506">
        <ele>647.8</ele>
        <time>2013-04-14T15:44:11Z</time>
      </trkpt>
      <trkpt lat="45.03049" lon="5.63509">
        <ele>647.5</ele>
        <time>2013-04-14T15:44:12Z</time>
      </trkpt>
      <trkpt lat="45.03045" lon="5.63513">
        <ele>647.3</ele>
        <time>2013-04-14T15:44:13Z</time>
      </trkpt>
      <trkpt lat="45.0304" lon="5.63517">
        <ele>647</ele>
        <time>2013-04-14T15:44:14Z</time>
      </trkpt>
      <trkpt lat="45.03036" lon="5.63521">
        <ele>646.7</ele>
        <time>2013-04-14T15:44:15Z</time>
      </trkpt>
      <trkpt lat="45.03031" lon="5.63525">
        <ele>646.5</ele>
        <time>2013-04-14T15:44:16Z</time>
      </trkpt>
      <trkpt lat="45.03027" lon="5.63531">
        <ele>646.3</ele>
        <time>2013-04-14T15:44:17Z</time>
      </trkpt>
      <trkpt lat="45.03023" lon="5.63536">
        <ele>645.9</ele>
        <time>2013-04-14T15:44:18Z</time>
      </trkpt>
      <trkpt lat="45.03018" lon="5.63542">
        <ele>645.5</ele>
        <time>2013-04-14T15:44:19Z</time>
      </trkpt>
      <trkpt lat="45.03015" lon="5.63548">
        <ele>645.2</ele>
        <time>2013-04-14T15:44:20Z</time>
      </trkpt>
      <trkpt lat="45.0301" lon="5.63554">
        <ele>645.1</ele>
        <time>2013-04-14T15:44:21Z</time>
      </trkpt>
      <trkpt lat="45.03006" lon="5.63561">
        <ele>644.9</ele>
        <time>2013-04-14T15:44:22Z</time>
      </trkpt>
      <trkpt lat="45.03002" lon="5.63569">
        <ele>644.8</ele>
        <time>2013-04-14T15:44:23Z</time>
      </trkpt>
      <trkpt lat="45.02998" lon="5.63577">
        <ele>644.6</ele>
        <time>2013-04-14T15:44:24Z</time>
      </trkpt>
      <trkpt lat="45.02994" lon="5.63584">
        <ele>644.5</ele>
        <time>2013-04-14T15:44:25Z</time>
      </trkpt>
      <trkpt lat="45.02991" lon="5.63592">
        <ele>644.4</ele>
        <time>2013-04-14T15:44:26Z</time>
      </trkpt>
      <trkpt lat="45.02987" lon="5.63599">
        <ele>644</ele>
        <time>2013-04-14T15:44:27Z</time>
      </trkpt>
      <trkpt lat="45.02983" lon="5.63607">
        <ele>643.7</ele>
        <time>2013-04-14T15:44:28Z</time>
      </trkpt>
      <trkpt lat="45.02979" lon="5.63615">
        <ele>643.4</ele>
        <time>2013-04-14T15:44:29Z</time>
      </trkpt>
      <trkpt lat="45.02976" lon="5.63622">
        <ele>642.9</ele>
        <time>2013-04-14T15:44:30Z</time>
      </trkpt>
      <trkpt lat="45.02972" lon="5.6363">
        <ele>642.5</ele>
        <time>2013-04-14T15:44:31Z</time>
      </trkpt>
      <trkpt lat="45.02968" lon="5.63637">
        <ele>642.2</ele>
        <time>2013-04-14T15:44:32Z</time>
      </trkpt>
      <trkpt lat="45.02964" lon="5.63645">
        <ele>642</ele>
        <time>2013-04-14T15:44:33Z</time>
      </trkpt>
      <trkpt lat="45.02959" lon="5.63652">
        <ele>641.4</ele>
        <time>2013-04-14T15:44:34Z</time>
      </trkpt>
      <trkpt lat="45.02954" lon="5.63659">
        <ele>640.9</ele>
        <time>2013-04-14T15:44:35Z</time>
      </trkpt>
      <trkpt lat="45.02948" lon="5.63666">
        <ele>640.6</ele>
        <time>2013-04-14T15:44:36Z</time>
      </trkpt>
      <trkpt lat="45.02942" lon="5.63672">
        <ele>640.2</ele>
        <time>2013-04-14T15:44:37Z</time>
      </trkpt>
      <trkpt lat="45.02936" lon="5.63675">
        <ele>640</ele>
        <time>2013-04-14T15:44:38Z</time>
      </trkpt>
      <trkpt lat="45.02929" lon="5.63676">
        <ele>639.8</ele>
        <time>2013-04-14T15:44:39Z</time>
      </trkpt>
      <trkpt lat="45.02921" lon="5.63676">
        <ele>639.3</ele>
        <time>2013-04-14T15:44:40Z</time>
      </trkpt>
      <trkpt lat="45.02914" lon="5.63675">
        <ele>638.9</ele>
        <time>2013-04-14T15:44:41Z</time>
      </trkpt>
      <trkpt lat="45.02906" lon="5.63676">
        <ele>638.6</ele>
        <time>2013-04-14T15:44:42Z</time>
      </trkpt>
      <trkpt lat="45.02897" lon="5.63678">
        <ele>637.4</ele>
        <time>2013-04-14T15:44:43Z</time>
      </trkpt>
      <trkpt lat="45.02889" lon="5.63682">
        <ele>636.4</ele>
        <time>2013-04-14T15:44:44Z</time>
      </trkpt>
      <trkpt lat="45.02882" lon="5.63688">
        <ele>635.7</ele>
        <time>2013-04-14T15:44:45Z</time>
      </trkpt>
      <trkpt lat="45.02876" lon="5.63695">
        <ele>635.4</ele>
        <time>2013-04-14T15:44:46Z</time>
      </trkpt>
      <trkpt lat="45.0287" lon="5.63703">
        <ele>635.1</ele>
        <time>2013-04-14T15:44:47Z</time>
      </trkpt>
      <trkpt lat="45.02864" lon="5.63709">
        <ele>634.9</ele>
        <time>2013-04-14T15:44:48Z</time>
      </trkpt>
      <trkpt lat="45.02858" lon="5.63713">
        <ele>634.7</ele>
        <time>2013-04-14T15:44:49Z</time>
      </trkpt>
      <trkpt lat="45.02851" lon="5.63714">
        <ele>634.2</ele>
        <time>2013-04-14T15:44:50Z</time>
      </trkpt>
      <trkpt lat="45.02845" lon="5.63714">
        <ele>633.9</ele>
        <time>2013-04-14T15:44:51Z</time>
      </trkpt>
      <trkpt lat="45.02838" lon="5.63712">
        <ele>633.6</ele>
        <time>2013-04-14T15:44:52Z</time>
      </trkpt>
      <trkpt lat="45.02831" lon="5.63709">
        <ele>632.8</ele>
        <time>2013-04-14T15:44:53Z</time>
      </trkpt>
      <trkpt lat="45.02824" lon="5.63706">
        <ele>632.2</ele>
        <time>2013-04-14T15:44:54Z</time>
      </trkpt>
      <trkpt lat="45.02817" lon="5.63702">
        <ele>631.7</ele>
        <time>2013-04-14T15:44:55Z</time>
      </trkpt>
      <trkpt lat="45.02809" lon="5.63699">
        <ele>630.9</ele>
        <time>2013-04-14T15:44:56Z</time>
      </trkpt>
      <trkpt lat="45.02801" lon="5.63698">
        <ele>630.3</ele>
        <time>2013-04-14T15:44:57Z</time>
      </trkpt>
      <trkpt lat="45.02794" lon="5.63698">
        <ele>629.8</ele>
        <time>2013-04-14T15:44:58Z</time>
      </trkpt>
      <trkpt lat="45.02786" lon="5.63699">
        <ele>629.5</ele>
        <time>2013-04-14T15:44:59Z</time>
      </trkpt>
      <trkpt lat="45.02779" lon="5.63701">
        <ele>629.3</ele>
        <time>2013-04-14T15:45:00Z</time>
      </trkpt>
      <trkpt lat="45.02771" lon="5.63703">
        <ele>629.2</ele>
        <time>2013-04-14T15:45:01Z</time>
      </trkpt>
      <trkpt lat="45.02764" lon="5.63703">
        <ele>628.8</ele>
        <time>2013-04-14T15:45:02Z</time>
      </trkpt>
      <trkpt lat="45.02756" lon="5.63703">
        <ele>628.5</ele>
        <time>2013-04-14T15:45:03Z</time>
      </trkpt>
      <trkpt lat="45.02749" lon="5.63702">
        <ele>628.2</ele>
        <time>2013-04-14T15:45:04Z</time>
      </trkpt>
      <trkpt lat="45.02742" lon="5.63701">
        <ele>628.1</ele>
        <time>2013-04-14T15:45:05Z</time>
      </trkpt>
      <trkpt lat="45.02734" lon="5.637">
        <ele>627.6</ele>
        <time>2013-04-14T15:45:06Z</time>
      </trkpt>
      <trkpt lat="45.02727" lon="5.63699">
        <ele>627.2</ele>
        <time>2013-04-14T15:45:07Z</time>
      </trkpt>
      <trkpt lat="45.02719" lon="5.63697">
        <ele>626.9</ele>
        <time>2013-04-14T15:45:08Z</time>
      </trkpt>
      <trkpt lat="45.02712" lon="5.63696">
        <ele>626.8</ele>
        <time>2013-04-14T15:45:09Z</time>
      </trkpt>
      <trkpt lat="45.02705" lon="5.63695">
        <ele>626.8</ele>
        <time>2013-04-14T15:45:10Z</time>
      </trkpt>
      <trkpt lat="45.02697" lon="5.63695">
        <ele>626.7</ele>
        <time>2013-04-14T15:45:11Z</time>
      </trkpt>
      <trkpt lat="45.02689" lon="5.63697">
        <ele>626</ele>
        <time>2013-04-14T15:45:12Z</time>
      </trkpt>
      <trkpt lat="45.02681" lon="5.63701">
        <ele>625.5</ele>
        <time>2013-04-14T15:45:13Z</time>
      </trkpt>
      <trkpt lat="45.02675" lon="5.63707">
        <ele>625.1</ele>
        <time>2013-04-14T15:45:14Z</time>
      </trkpt>
      <trkpt lat="45.0267" lon="5.63713">
        <ele>623.9</ele>
        <time>2013-04-14T15:45:15Z</time>
      </trkpt>
      <trkpt lat="45.02665" lon="5.63719">
        <ele>623</ele>
        <time>2013-04-14T15:45:16Z</time>
      </trkpt>
      <trkpt lat="45.0266" lon="5.63723">
        <ele>622.3</ele>
        <time>2013-04-14T15:45:17Z</time>
      </trkpt>
      <trkpt lat="45.02654" lon="5.63725">
        <ele>621.7</ele>
        <time>2013-04-14T15:45:18Z</time>
      </trkpt>
      <trkpt lat="45.02647" lon="5.63724">
        <ele>621.3</ele>
        <time>2013-04-14T15:45:19Z</time>
      </trkpt>
      <trkpt lat="45.0264" lon="5.63723">
        <ele>620.9</ele>
        <time>2013-04-14T15:45:20Z</time>
      </trkpt>
      <trkpt lat="45.02633" lon="5.63721">
        <ele>620.4</ele>
        <time>2013-04-14T15:45:21Z</time>
      </trkpt>
      <trkpt lat="45.02626" lon="5.63718">
        <ele>620.1</ele>
        <time>2013-04-14T15:45:22Z</time>
      </trkpt>
      <trkpt lat="45.02619" lon="5.63714">
        <ele>619.8</ele>
        <time>2013-04-14T15:45:23Z</time>
      </trkpt>
      <trkpt lat="45.02611" lon="5.63711">
        <ele>619.6</ele>
        <time>2013-04-14T15:45:24Z</time>
      </trkpt>
      <trkpt lat="45.02603" lon="5.63709">
        <ele>618.3</ele>
        <time>2013-04-14T15:45:25Z</time>
      </trkpt>
      <trkpt lat="45.02594" lon="5.63709">
        <ele>617.3</ele>
        <time>2013-04-14T15:45:26Z</time>
      </trkpt>
      <trkpt lat="45.02585" lon="5.6371">
        <ele>616.5</ele>
        <time>2013-04-14T15:45:27Z</time>
      </trkpt>
      <trkpt lat="45.02576" lon="5.63711">
        <ele>615.4</ele>
        <time>2013-04-14T15:45:28Z</time>
      </trkpt>
      <trkpt lat="45.02567" lon="5.63712">
        <ele>614.6</ele>
        <time>2013-04-14T15:45:29Z</time>
      </trkpt>
      <trkpt lat="45.02558" lon="5.63713">
        <ele>614</ele>
        <time>2013-04-14T15:45:30Z</time>
      </trkpt>
      <trkpt lat="45.0255" lon="5.63715">
        <ele>613</ele>
        <time>2013-04-14T15:45:31Z</time>
      </trkpt>
      <trkpt lat="45.02541" lon="5.63716">
        <ele>612.3</ele>
        <time>2013-04-14T15:45:32Z</time>
      </trkpt>
      <trkpt lat="45.02533" lon="5.63718">
        <ele>611.7</ele>
        <time>2013-04-14T15:45:33Z</time>
      </trkpt>
      <trkpt lat="45.02525" lon="5.63719">
        <ele>610.6</ele>
        <time>2013-04-14T15:45:34Z</time>
      </trkpt>
      <trkpt lat="45.02516" lon="5.63718">
        <ele>609.8</ele>
        <time>2013-04-14T15:45:35Z</time>
      </trkpt>
      <trkpt lat="45.02508" lon="5.63716">
        <ele>609.1</ele>
        <time>2013-04-14T15:45:36Z</time>
      </trkpt>
      <trkpt lat="45.02499" lon="5.63713">
        <ele>607.7</ele>
        <time>2013-04-14T15:45:37Z</time>
      </trkpt>
      <trkpt lat="45.0249" lon="5.63708">
        <ele>606.7</ele>
        <time>2013-04-14T15:45:38Z</time>
      </trkpt>
      <trkpt lat="45.02482" lon="5.63704">
        <ele>605.9</ele>
        <time>2013-04-14T15:45:39Z</time>
      </trkpt>
      <trkpt lat="45.02472" lon="5.63702">
        <ele>605.3</ele>
        <time>2013-04-14T15:45:40Z</time>
      </trkpt>
      <trkpt lat="45.02463" lon="5.63701">
        <ele>604.5</ele>
        <time>2013-04-14T15:45:41Z</time>
      </trkpt>
      <trkpt lat="45.02453" lon="5.63701">
        <ele>603.9</ele>
        <time>2013-04-14T15:45:42Z</time>
      </trkpt>
      <trkpt lat="45.02443" lon="5.63703">
        <ele>603.5</ele>
        <time>2013-04-14T15:45:43Z</time>
      </trkpt>
      <trkpt lat="45.02433" lon="5.63705">
        <ele>602.4</ele>
        <time>2013-04-14T15:45:44Z</time>
      </trkpt>
      <trkpt lat="45.02423" lon="5.63705">
        <ele>601.6</ele>
        <time>2013-04-14T15:45:45Z</time>
      </trkpt>
      <trkpt lat="45.02413" lon="5.63706">
        <ele>601</ele>
        <time>2013-04-14T15:45:46Z</time>
      </trkpt>
      <trkpt lat="45.02402" lon="5.63705">
        <ele>600</ele>
        <time>2013-04-14T15:45:47Z</time>
      </trkpt>
      <trkpt lat="45.02392" lon="5.63704">
        <ele>599.2</ele>
        <time>2013-04-14T15:45:48Z</time>
      </trkpt>
      <trkpt lat="45.02382" lon="5.63704">
        <ele>598.7</ele>
        <time>2013-04-14T15:45:49Z</time>
      </trkpt>
      <trkpt lat="45.02372" lon="5.63703">
        <ele>597.1</ele>
        <time>2013-04-14T15:45:50Z</time>
      </trkpt>
      <trkpt lat="45.02362" lon="5.63703">
        <ele>596</ele>
        <time>2013-04-14T15:45:51Z</time>
      </trkpt>
      <trkpt lat="45.02353" lon="5.63703">
        <ele>595.1</ele>
        <time>2013-04-14T15:45:52Z</time>
      </trkpt>
      <trkpt lat="45.02344" lon="5.63704">
        <ele>593.9</ele>
        <time>2013-04-14T15:45:53Z</time>
      </trkpt>
      <trkpt lat="45.02338" lon="5.63707">
        <ele>592.9</ele>
        <time>2013-04-14T15:45:54Z</time>
      </trkpt>
      <trkpt lat="45.02334" lon="5.63719">
        <ele>590</ele>
        <time>2013-04-14T15:45:59Z</time>
      </trkpt>
      <trkpt lat="45.02331" lon="5.63728">
        <ele>588.5</ele>
        <time>2013-04-14T15:46:25Z</time>
      </trkpt>
      <trkpt lat="45.02333" lon="5.63732">
        <ele>588.4</ele>
        <time>2013-04-14T15:46:26Z</time>
      </trkpt>
      <trkpt lat="45.02339" lon="5.63742">
        <ele>588.3</ele>
        <time>2013-04-14T15:46:28Z</time>
      </trkpt>
      <trkpt lat="45.02342" lon="5.63746">
        <ele>587.8</ele>
        <time>2013-04-14T15:46:29Z</time>
      </trkpt>
      <trkpt lat="45.02346" lon="5.63752">
        <ele>587.5</ele>
        <time>2013-04-14T15:46:30Z</time>
      </trkpt>
      <trkpt lat="45.0235" lon="5.63757">
        <ele>587.3</ele>
        <time>2013-04-14T15:46:31Z</time>
      </trkpt>
      <trkpt lat="45.02354" lon="5.63761">
        <ele>587</ele>
        <time>2013-04-14T15:46:32Z</time>
      </trkpt>
      <trkpt lat="45.02359" lon="5.63766">
        <ele>586.7</ele>
        <time>2013-04-14T15:46:33Z</time>
      </trkpt>
      <trkpt lat="45.02364" lon="5.63771">
        <ele>586.6</ele>
        <time>2013-04-14T15:46:34Z</time>
      </trkpt>
      <trkpt lat="45.02369" lon="5.63777">
        <ele>585.8</ele>
        <time>2013-04-14T15:46:35Z</time>
      </trkpt>
      <trkpt lat="45.02375" lon="5.63782">
        <ele>585.2</ele>
        <time>2013-04-14T15:46:36Z</time>
      </trkpt>
      <trkpt lat="45.02381" lon="5.63787">
        <ele>584.8</ele>
        <time>2013-04-14T15:46:37Z</time>
      </trkpt>
      <trkpt lat="45.02387" lon="5.63791">
        <ele>584</ele>
        <time>2013-04-14T15:46:38Z</time>
      </trkpt>
      <trkpt lat="45.02393" lon="5.63795">
        <ele>583.5</ele>
        <time>2013-04-14T15:46:39Z</time>
      </trkpt>
      <trkpt lat="45.02399" lon="5.638">
        <ele>583.1</ele>
        <time>2013-04-14T15:46:40Z</time>
      </trkpt>
      <trkpt lat="45.02405" lon="5.63804">
        <ele>582.8</ele>
        <time>2013-04-14T15:46:41Z</time>
      </trkpt>
      <trkpt lat="45.02411" lon="5.63809">
        <ele>582.6</ele>
        <time>2013-04-14T15:46:42Z</time>
      </trkpt>
      <trkpt lat="45.02418" lon="5.63814">
        <ele>582.5</ele>
        <time>2013-04-14T15:46:43Z</time>
      </trkpt>
      <trkpt lat="45.02424" lon="5.6382">
        <ele>582.3</ele>
        <time>2013-04-14T15:46:44Z</time>
      </trkpt>
      <trkpt lat="45.0243" lon="5.63825">
        <ele>582.2</ele>
        <time>2013-04-14T15:46:45Z</time>
      </trkpt>
      <trkpt lat="45.02437" lon="5.63831">
        <ele>582.1</ele>
        <time>2013-04-14T15:46:46Z</time>
      </trkpt>
      <trkpt lat="45.02444" lon="5.63837">
        <ele>582.1</ele>
        <time>2013-04-14T15:46:47Z</time>
      </trkpt>
      <trkpt lat="45.02451" lon="5.63843">
        <ele>581.8</ele>
        <time>2013-04-14T15:46:48Z</time>
      </trkpt>
      <trkpt lat="45.02459" lon="5.63848">
        <ele>581.7</ele>
        <time>2013-04-14T15:46:49Z</time>
      </trkpt>
      <trkpt lat="45.02466" lon="5.63854">
        <ele>581.5</ele>
        <time>2013-04-14T15:46:50Z</time>
      </trkpt>
      <trkpt lat="45.02474" lon="5.6386">
        <ele>581.5</ele>
        <time>2013-04-14T15:46:51Z</time>
      </trkpt>
      <trkpt lat="45.02482" lon="5.63866">
        <ele>581.6</ele>
        <time>2013-04-14T15:46:52Z</time>
      </trkpt>
      <trkpt lat="45.02489" lon="5.63872">
        <ele>581.6</ele>
        <time>2013-04-14T15:46:53Z</time>
      </trkpt>
      <trkpt lat="45.02496" lon="5.63879">
        <ele>580.8</ele>
        <time>2013-04-14T15:46:54Z</time>
      </trkpt>
      <trkpt lat="45.02502" lon="5.63887">
        <ele>580.2</ele>
        <time>2013-04-14T15:46:55Z</time>
      </trkpt>
      <trkpt lat="45.02507" lon="5.63896">
        <ele>579.8</ele>
        <time>2013-04-14T15:46:56Z</time>
      </trkpt>
      <trkpt lat="45.02511" lon="5.63907">
        <ele>579.3</ele>
        <time>2013-04-14T15:46:57Z</time>
      </trkpt>
      <trkpt lat="45.02516" lon="5.63916">
        <ele>578.9</ele>
        <time>2013-04-14T15:46:58Z</time>
      </trkpt>
      <trkpt lat="45.0252" lon="5.63926">
        <ele>578.7</ele>
        <time>2013-04-14T15:46:59Z</time>
      </trkpt>
      <trkpt lat="45.02526" lon="5.63935">
        <ele>577.4</ele>
        <time>2013-04-14T15:47:00Z</time>
      </trkpt>
      <trkpt lat="45.02532" lon="5.63943">
        <ele>576.5</ele>
        <time>2013-04-14T15:47:01Z</time>
      </trkpt>
      <trkpt lat="45.02539" lon="5.63951">
        <ele>575.8</ele>
        <time>2013-04-14T15:47:02Z</time>
      </trkpt>
      <trkpt lat="45.02546" lon="5.63958">
        <ele>575.3</ele>
        <time>2013-04-14T15:47:03Z</time>
      </trkpt>
      <trkpt lat="45.02554" lon="5.63964">
        <ele>574.5</ele>
        <time>2013-04-14T15:47:04Z</time>
      </trkpt>
      <trkpt lat="45.02562" lon="5.63968">
        <ele>573.9</ele>
        <time>2013-04-14T15:47:05Z</time>
      </trkpt>
      <trkpt lat="45.0257" lon="5.63971">
        <ele>573.5</ele>
        <time>2013-04-14T15:47:06Z</time>
      </trkpt>
      <trkpt lat="45.02577" lon="5.63973">
        <ele>572.8</ele>
        <time>2013-04-14T15:47:07Z</time>
      </trkpt>
      <trkpt lat="45.02582" lon="5.63978">
        <ele>572.2</ele>
        <time>2013-04-14T15:47:08Z</time>
      </trkpt>
      <trkpt lat="45.02584" lon="5.63984">
        <ele>571.8</ele>
        <time>2013-04-14T15:47:09Z</time>
      </trkpt>
      <trkpt lat="45.02583" lon="5.63991">
        <ele>570.9</ele>
        <time>2013-04-14T15:47:10Z</time>
      </trkpt>
      <trkpt lat="45.02579" lon="5.63995">
        <ele>570.2</ele>
        <time>2013-04-14T15:47:11Z</time>
      </trkpt>
      <trkpt lat="45.02573" lon="5.63997">
        <ele>569.7</ele>
        <time>2013-04-14T15:47:12Z</time>
      </trkpt>
      <trkpt lat="45.02567" lon="5.63998">
        <ele>568.6</ele>
        <time>2013-04-14T15:47:13Z</time>
      </trkpt>
      <trkpt lat="45.0256" lon="5.63999">
        <ele>567.8</ele>
        <time>2013-04-14T15:47:14Z</time>
      </trkpt>
      <trkpt lat="45.02552" lon="5.63999">
        <ele>567.2</ele>
        <time>2013-04-14T15:47:15Z</time>
      </trkpt>
      <trkpt lat="45.02544" lon="5.64">
        <ele>566.8</ele>
        <time>2013-04-14T15:47:16Z</time>
      </trkpt>
      <trkpt lat="45.02536" lon="5.64002">
        <ele>566.5</ele>
        <time>2013-04-14T15:47:17Z</time>
      </trkpt>
      <trkpt lat="45.02527" lon="5.64005">
        <ele>566.3</ele>
        <time>2013-04-14T15:47:18Z</time>
      </trkpt>
      <trkpt lat="45.02519" lon="5.64008">
        <ele>566.1</ele>
        <time>2013-04-14T15:47:19Z</time>
      </trkpt>
      <trkpt lat="45.0251" lon="5.64009">
        <ele>565.5</ele>
        <time>2013-04-14T15:47:20Z</time>
      </trkpt>
      <trkpt lat="45.02503" lon="5.64008">
        <ele>565.1</ele>
        <time>2013-04-14T15:47:21Z</time>
      </trkpt>
      <trkpt lat="45.02498" lon="5.64008">
        <ele>564.8</ele>
        <time>2013-04-14T15:47:22Z</time>
      </trkpt>
      <trkpt lat="45.02491" lon="5.64016">
        <ele>561.4</ele>
        <time>2013-04-14T15:47:25Z</time>
      </trkpt>
      <trkpt lat="45.02493" lon="5.64025">
        <ele>559.3</ele>
        <time>2013-04-14T15:47:27Z</time>
      </trkpt>
      <trkpt lat="45.02497" lon="5.64029">
        <ele>558.7</ele>
        <time>2013-04-14T15:47:28Z</time>
      </trkpt>
      <trkpt lat="45.02502" lon="5.64033">
        <ele>558.2</ele>
        <time>2013-04-14T15:47:29Z</time>
      </trkpt>
      <trkpt lat="45.02507" lon="5.64038">
        <ele>557.9</ele>
        <time>2013-04-14T15:47:30Z</time>
      </trkpt>
      <trkpt lat="45.02514" lon="5.64043">
        <ele>557.7</ele>
        <time>2013-04-14T15:47:31Z</time>
      </trkpt>
      <trkpt lat="45.0252" lon="5.64049">
        <ele>557.2</ele>
        <time>2013-04-14T15:47:32Z</time>
      </trkpt>
      <trkpt lat="45.02526" lon="5.64055">
        <ele>556.8</ele>
        <time>2013-04-14T15:47:33Z</time>
      </trkpt>
      <trkpt lat="45.02533" lon="5.64061">
        <ele>556.5</ele>
        <time>2013-04-14T15:47:34Z</time>
      </trkpt>
      <trkpt lat="45.0254" lon="5.64068">
        <ele>556.3</ele>
        <time>2013-04-14T15:47:35Z</time>
      </trkpt>
      <trkpt lat="45.02548" lon="5.64074">
        <ele>555.6</ele>
        <time>2013-04-14T15:47:36Z</time>
      </trkpt>
      <trkpt lat="45.02555" lon="5.64081">
        <ele>555.1</ele>
        <time>2013-04-14T15:47:37Z</time>
      </trkpt>
      <trkpt lat="45.02563" lon="5.64089">
        <ele>554.7</ele>
        <time>2013-04-14T15:47:38Z</time>
      </trkpt>
      <trkpt lat="45.02572" lon="5.64097">
        <ele>554</ele>
        <time>2013-04-14T15:47:39Z</time>
      </trkpt>
      <trkpt lat="45.0258" lon="5.64105">
        <ele>553.4</ele>
        <time>2013-04-14T15:47:40Z</time>
      </trkpt>
      <trkpt lat="45.02589" lon="5.64113">
        <ele>553</ele>
        <time>2013-04-14T15:47:41Z</time>
      </trkpt>
      <trkpt lat="45.02598" lon="5.64122">
        <ele>552</ele>
        <time>2013-04-14T15:47:42Z</time>
      </trkpt>
      <trkpt lat="45.02608" lon="5.6413">
        <ele>551.2</ele>
        <time>2013-04-14T15:47:43Z</time>
      </trkpt>
      <trkpt lat="45.02619" lon="5.64139">
        <ele>550.6</ele>
        <time>2013-04-14T15:47:44Z</time>
      </trkpt>
      <trkpt lat="45.02629" lon="5.64147">
        <ele>548.8</ele>
        <time>2013-04-14T15:47:45Z</time>
      </trkpt>
      <trkpt lat="45.02638" lon="5.64154">
        <ele>547.4</ele>
        <time>2013-04-14T15:47:46Z</time>
      </trkpt>
      <trkpt lat="45.02645" lon="5.64159">
        <ele>546.4</ele>
        <time>2013-04-14T15:47:47Z</time>
      </trkpt>
      <trkpt lat="45.02649" lon="5.64164">
        <ele>544.5</ele>
        <time>2013-04-14T15:47:48Z</time>
      </trkpt>
      <trkpt lat="45.02652" lon="5.6417">
        <ele>543.1</ele>
        <time>2013-04-14T15:47:49Z</time>
      </trkpt>
      <trkpt lat="45.02652" lon="5.64177">
        <ele>542</ele>
        <time>2013-04-14T15:47:50Z</time>
      </trkpt>
      <trkpt lat="45.02648" lon="5.64183">
        <ele>540.8</ele>
        <time>2013-04-14T15:47:51Z</time>
      </trkpt>
      <trkpt lat="45.02642" lon="5.64188">
        <ele>539.9</ele>
        <time>2013-04-14T15:47:52Z</time>
      </trkpt>
      <trkpt lat="45.02635" lon="5.64193">
        <ele>539.2</ele>
        <time>2013-04-14T15:47:53Z</time>
      </trkpt>
      <trkpt lat="45.02627" lon="5.64199">
        <ele>538.7</ele>
        <time>2013-04-14T15:47:54Z</time>
      </trkpt>
      <trkpt lat="45.02618" lon="5.64204">
        <ele>537.2</ele>
        <time>2013-04-14T15:47:55Z</time>
      </trkpt>
      <trkpt lat="45.02609" lon="5.64209">
        <ele>536.1</ele>
        <time>2013-04-14T15:47:56Z</time>
      </trkpt>
      <trkpt lat="45.02599" lon="5.64214">
        <ele>535.2</ele>
        <time>2013-04-14T15:47:57Z</time>
      </trkpt>
      <trkpt lat="45.02589" lon="5.6422">
        <ele>534.4</ele>
        <time>2013-04-14T15:47:58Z</time>
      </trkpt>
      <trkpt lat="45.02578" lon="5.64225">
        <ele>533.7</ele>
        <time>2013-04-14T15:47:59Z</time>
      </trkpt>
      <trkpt lat="45.02568" lon="5.6423">
        <ele>533.2</ele>
        <time>2013-04-14T15:48:00Z</time>
      </trkpt>
      <trkpt lat="45.02558" lon="5.64235">
        <ele>531.3</ele>
        <time>2013-04-14T15:48:01Z</time>
      </trkpt>
      <trkpt lat="45.02549" lon="5.6424">
        <ele>529.9</ele>
        <time>2013-04-14T15:48:02Z</time>
      </trkpt>
      <trkpt lat="45.0254" lon="5.64243">
        <ele>528.9</ele>
        <time>2013-04-14T15:48:03Z</time>
      </trkpt>
      <trkpt lat="45.02533" lon="5.64243">
        <ele>527.4</ele>
        <time>2013-04-14T15:48:04Z</time>
      </trkpt>
      <trkpt lat="45.02526" lon="5.64243">
        <ele>526.2</ele>
        <time>2013-04-14T15:48:05Z</time>
      </trkpt>
      <trkpt lat="45.02521" lon="5.64242">
        <ele>525.4</ele>
        <time>2013-04-14T15:48:06Z</time>
      </trkpt>
      <trkpt lat="45.02521" lon="5.64254">
        <ele>521.1</ele>
        <time>2013-04-14T15:48:13Z</time>
      </trkpt>
      <trkpt lat="45.02525" lon="5.64261">
        <ele>519.4</ele>
        <time>2013-04-14T15:48:15Z</time>
      </trkpt>
      <trkpt lat="45.02526" lon="5.64266">
        <ele>518.9</ele>
        <time>2013-04-14T15:48:16Z</time>
      </trkpt>
      <trkpt lat="45.02528" lon="5.64273">
        <ele>517.7</ele>
        <time>2013-04-14T15:48:17Z</time>
      </trkpt>
      <trkpt lat="45.0253" lon="5.64282">
        <ele>516.7</ele>
        <time>2013-04-14T15:48:18Z</time>
      </trkpt>
      <trkpt lat="45.02532" lon="5.64291">
        <ele>516</ele>
        <time>2013-04-14T15:48:19Z</time>
      </trkpt>
      <trkpt lat="45.02536" lon="5.643">
        <ele>514.6</ele>
        <time>2013-04-14T15:48:20Z</time>
      </trkpt>
      <trkpt lat="45.0254" lon="5.64309">
        <ele>513.6</ele>
        <time>2013-04-14T15:48:21Z</time>
      </trkpt>
      <trkpt lat="45.02545" lon="5.64318">
        <ele>512.8</ele>
        <time>2013-04-14T15:48:22Z</time>
      </trkpt>
      <trkpt lat="45.02549" lon="5.64327">
        <ele>511</ele>
        <time>2013-04-14T15:48:23Z</time>
      </trkpt>
      <trkpt lat="45.02554" lon="5.64336">
        <ele>509.6</ele>
        <time>2013-04-14T15:48:24Z</time>
      </trkpt>
      <trkpt lat="45.02558" lon="5.64345">
        <ele>508.6</ele>
        <time>2013-04-14T15:48:25Z</time>
      </trkpt>
      <trkpt lat="45.02562" lon="5.64352">
        <ele>507.9</ele>
        <time>2013-04-14T15:48:26Z</time>
      </trkpt>
      <trkpt lat="45.02567" lon="5.64357">
        <ele>506.5</ele>
        <time>2013-04-14T15:48:27Z</time>
      </trkpt>
      <trkpt lat="45.02572" lon="5.64361">
        <ele>505.5</ele>
        <time>2013-04-14T15:48:28Z</time>
      </trkpt>
      <trkpt lat="45.02578" lon="5.64366">
        <ele>504.7</ele>
        <time>2013-04-14T15:48:29Z</time>
      </trkpt>
      <trkpt lat="45.02584" lon="5.64371">
        <ele>503.7</ele>
        <time>2013-04-14T15:48:30Z</time>
      </trkpt>
      <trkpt lat="45.02591" lon="5.64376">
        <ele>503</ele>
        <time>2013-04-14T15:48:31Z</time>
      </trkpt>
      <trkpt lat="45.02598" lon="5.6438">
        <ele>502.5</ele>
        <time>2013-04-14T15:48:32Z</time>
      </trkpt>
      <trkpt lat="45.02604" lon="5.64384">
        <ele>501.7</ele>
        <time>2013-04-14T15:48:33Z</time>
      </trkpt>
      <trkpt lat="45.0261" lon="5.64388">
        <ele>501.1</ele>
        <time>2013-04-14T15:48:34Z</time>
      </trkpt>
      <trkpt lat="45.02615" lon="5.64391">
        <ele>500.6</ele>
        <time>2013-04-14T15:48:35Z</time>
      </trkpt>
      <trkpt lat="45.02619" lon="5.64393">
        <ele>499.7</ele>
        <time>2013-04-14T15:48:36Z</time>
      </trkpt>
      <trkpt lat="45.02624" lon="5.64393">
        <ele>499</ele>
        <time>2013-04-14T15:48:37Z</time>
      </trkpt>
      <trkpt lat="45.02629" lon="5.6439">
        <ele>498.5</ele>
        <time>2013-04-14T15:48:38Z</time>
      </trkpt>
      <trkpt lat="45.02636" lon="5.64384">
        <ele>496.5</ele>
        <time>2013-04-14T15:48:40Z</time>
      </trkpt>
      <trkpt lat="45.02641" lon="5.64376">
        <ele>495.3</ele>
        <time>2013-04-14T15:48:42Z</time>
      </trkpt>
      <trkpt lat="45.02645" lon="5.64371">
        <ele>494.7</ele>
        <time>2013-04-14T15:48:43Z</time>
      </trkpt>
      <trkpt lat="45.02649" lon="5.64364">
        <ele>494.3</ele>
        <time>2013-04-14T15:48:44Z</time>
      </trkpt>
      <trkpt lat="45.02654" lon="5.64359">
        <ele>493.9</ele>
        <time>2013-04-14T15:48:45Z</time>
      </trkpt>
      <trkpt lat="45.02657" lon="5.64354">
        <ele>492.9</ele>
        <time>2013-04-14T15:48:46Z</time>
      </trkpt>
      <trkpt lat="45.02661" lon="5.64348">
        <ele>492.2</ele>
        <time>2013-04-14T15:48:47Z</time>
      </trkpt>
      <trkpt lat="45.02666" lon="5.64339">
        <ele>490.5</ele>
        <time>2013-04-14T15:48:49Z</time>
      </trkpt>
      <trkpt lat="45.0267" lon="5.64329">
        <ele>489</ele>
        <time>2013-04-14T15:48:51Z</time>
      </trkpt>
      <trkpt lat="45.02673" lon="5.6432">
        <ele>487</ele>
        <time>2013-04-14T15:48:53Z</time>
      </trkpt>
      <trkpt lat="45.02677" lon="5.64314">
        <ele>485.9</ele>
        <time>2013-04-14T15:48:55Z</time>
      </trkpt>
      <trkpt lat="45.02683" lon="5.6431">
        <ele>485.4</ele>
        <time>2013-04-14T15:48:57Z</time>
      </trkpt>
      <trkpt lat="45.02688" lon="5.64305">
        <ele>485</ele>
        <time>2013-04-14T15:48:59Z</time>
      </trkpt>
      <trkpt lat="45.02693" lon="5.643">
        <ele>484.7</ele>
        <time>2013-04-14T15:49:01Z</time>
      </trkpt>
      <trkpt lat="45.02698" lon="5.64293">
        <ele>483.4</ele>
        <time>2013-04-14T15:49:03Z</time>
      </trkpt>
      <trkpt lat="45.02704" lon="5.64285">
        <ele>481.6</ele>
        <time>2013-04-14T15:49:07Z</time>
      </trkpt>
      <trkpt lat="45.02709" lon="5.6428">
        <ele>480.9</ele>
        <time>2013-04-14T15:49:13Z</time>
      </trkpt>
      <trkpt lat="45.02717" lon="5.64275">
        <ele>480.4</ele>
        <time>2013-04-14T15:49:17Z</time>
      </trkpt>
      <trkpt lat="45.02724" lon="5.64271">
        <ele>479.9</ele>
        <time>2013-04-14T15:49:22Z</time>
      </trkpt>
      <trkpt lat="45.02731" lon="5.64269">
        <ele>479.4</ele>
        <time>2013-04-14T15:49:25Z</time>
      </trkpt>
      <trkpt lat="45.02739" lon="5.64264">
        <ele>478.8</ele>
        <time>2013-04-14T15:49:27Z</time>
      </trkpt>
      <trkpt lat="45.02742" lon="5.64259">
        <ele>478.4</ele>
        <time>2013-04-14T15:49:28Z</time>
      </trkpt>
      <trkpt lat="45.02746" lon="5.64253">
        <ele>478.1</ele>
        <time>2013-04-14T15:49:29Z</time>
      </trkpt>
      <trkpt lat="45.02751" lon="5.64248">
        <ele>477.6</ele>
        <time>2013-04-14T15:49:30Z</time>
      </trkpt>
      <trkpt lat="45.02755" lon="5.64242">
        <ele>477.2</ele>
        <time>2013-04-14T15:49:31Z</time>
      </trkpt>
      <trkpt lat="45.02761" lon="5.64239">
        <ele>476.9</ele>
        <time>2013-04-14T15:49:32Z</time>
      </trkpt>
      <trkpt lat="45.02768" lon="5.64235">
        <ele>475.7</ele>
        <time>2013-04-14T15:49:34Z</time>
      </trkpt>
      <trkpt lat="45.0277" lon="5.64246">
        <ele>473.3</ele>
        <time>2013-04-14T15:49:37Z</time>
      </trkpt>
      <trkpt lat="45.02769" lon="5.64253">
        <ele>472.5</ele>
        <time>2013-04-14T15:49:38Z</time>
      </trkpt>
      <trkpt lat="45.02771" lon="5.64265">
        <ele>470.7</ele>
        <time>2013-04-14T15:49:40Z</time>
      </trkpt>
      <trkpt lat="45.02777" lon="5.64272">
        <ele>469</ele>
        <time>2013-04-14T15:49:42Z</time>
      </trkpt>
      <trkpt lat="45.02781" lon="5.64272">
        <ele>467.5</ele>
        <time>2013-04-14T15:49:43Z</time>
      </trkpt>
      <trkpt lat="45.0279" lon="5.64269">
        <ele>465.6</ele>
        <time>2013-04-14T15:49:45Z</time>
      </trkpt>
      <trkpt lat="45.02798" lon="5.64266">
        <ele>463.2</ele>
        <time>2013-04-14T15:49:47Z</time>
      </trkpt>
      <trkpt lat="45.02801" lon="5.64275">
        <ele>460.9</ele>
        <time>2013-04-14T15:49:50Z</time>
      </trkpt>
      <trkpt lat="45.02797" lon="5.64286">
        <ele>459.9</ele>
        <time>2013-04-14T15:49:52Z</time>
      </trkpt>
      <trkpt lat="45.02794" lon="5.64293">
        <ele>459.1</ele>
        <time>2013-04-14T15:49:53Z</time>
      </trkpt>
      <trkpt lat="45.0279" lon="5.643">
        <ele>458.5</ele>
        <time>2013-04-14T15:49:54Z</time>
      </trkpt>
      <trkpt lat="45.02785" lon="5.64307">
        <ele>458.1</ele>
        <time>2013-04-14T15:49:55Z</time>
      </trkpt>
      <trkpt lat="45.02779" lon="5.64313">
        <ele>457.4</ele>
        <time>2013-04-14T15:49:56Z</time>
      </trkpt>
      <trkpt lat="45.02774" lon="5.64322">
        <ele>456.8</ele>
        <time>2013-04-14T15:49:57Z</time>
      </trkpt>
      <trkpt lat="45.0277" lon="5.64333">
        <ele>456.4</ele>
        <time>2013-04-14T15:49:58Z</time>
      </trkpt>
      <trkpt lat="45.02766" lon="5.64345">
        <ele>455.4</ele>
        <time>2013-04-14T15:49:59Z</time>
      </trkpt>
      <trkpt lat="45.02763" lon="5.64357">
        <ele>454.7</ele>
        <time>2013-04-14T15:50:00Z</time>
      </trkpt>
      <trkpt lat="45.02761" lon="5.64371">
        <ele>454.2</ele>
        <time>2013-04-14T15:50:01Z</time>
      </trkpt>
      <trkpt lat="45.0276" lon="5.64386">
        <ele>453.2</ele>
        <time>2013-04-14T15:50:02Z</time>
      </trkpt>
      <trkpt lat="45.02759" lon="5.644">
        <ele>452.5</ele>
        <time>2013-04-14T15:50:03Z</time>
      </trkpt>
      <trkpt lat="45.02757" lon="5.64413">
        <ele>452</ele>
        <time>2013-04-14T15:50:04Z</time>
      </trkpt>
      <trkpt lat="45.02752" lon="5.64425">
        <ele>451.6</ele>
        <time>2013-04-14T15:50:05Z</time>
      </trkpt>
      <trkpt lat="45.02745" lon="5.64434">
        <ele>450.3</ele>
        <time>2013-04-14T15:50:06Z</time>
      </trkpt>
      <trkpt lat="45.02736" lon="5.64442">
        <ele>449.3</ele>
        <time>2013-04-14T15:50:07Z</time>
      </trkpt>
      <trkpt lat="45.02729" lon="5.64453">
        <ele>448.5</ele>
        <time>2013-04-14T15:50:08Z</time>
      </trkpt>
      <trkpt lat="45.02723" lon="5.64467">
        <ele>446.8</ele>
        <time>2013-04-14T15:50:09Z</time>
      </trkpt>
      <trkpt lat="45.02717" lon="5.64481">
        <ele>445.5</ele>
        <time>2013-04-14T15:50:10Z</time>
      </trkpt>
      <trkpt lat="45.02712" lon="5.64496">
        <ele>444.6</ele>
        <time>2013-04-14T15:50:11Z</time>
      </trkpt>
      <trkpt lat="45.02706" lon="5.64511">
        <ele>442.5</ele>
        <time>2013-04-14T15:50:12Z</time>
      </trkpt>
      <trkpt lat="45.02701" lon="5.64527">
        <ele>441</ele>
        <time>2013-04-14T15:50:13Z</time>
      </trkpt>
      <trkpt lat="45.02696" lon="5.64541">
        <ele>439.9</ele>
        <time>2013-04-14T15:50:14Z</time>
      </trkpt>
      <trkpt lat="45.02691" lon="5.64552">
        <ele>438.6</ele>
        <time>2013-04-14T15:50:15Z</time>
      </trkpt>
      <trkpt lat="45.02687" lon="5.64559">
        <ele>437.6</ele>
        <time>2013-04-14T15:50:16Z</time>
      </trkpt>
      <trkpt lat="45.02681" lon="5.64567">
        <ele>434.8</ele>
        <time>2013-04-14T15:50:20Z</time>
      </trkpt>
      <trkpt lat="45.02678" lon="5.64577">
        <ele>432.4</ele>
        <time>2013-04-14T15:50:30Z</time>
      </trkpt>
      <trkpt lat="45.02677" lon="5.64578">
        <ele>432.3</ele>
        <time>2013-04-14T15:50:31Z</time>
      </trkpt>
      <trkpt lat="45.02669" lon="5.64592">
        <ele>431.8</ele>
        <time>2013-04-14T15:50:37Z</time>
      </trkpt>
      <trkpt lat="45.02662" lon="5.64594">
        <ele>432</ele>
        <time>2013-04-14T15:50:40Z</time>
      </trkpt>
      <trkpt lat="45.02657" lon="5.64599">
        <ele>431.1</ele>
        <time>2013-04-14T15:50:42Z</time>
      </trkpt>
      <trkpt lat="45.0265" lon="5.64604">
        <ele>429.1</ele>
        <time>2013-04-14T15:50:46Z</time>
      </trkpt>
      <trkpt lat="45.02642" lon="5.64603">
        <ele>428.6</ele>
        <time>2013-04-14T15:50:50Z</time>
      </trkpt>
      <trkpt lat="45.02633" lon="5.64606">
        <ele>429.2</ele>
        <time>2013-04-14T15:50:53Z</time>
      </trkpt>
      <trkpt lat="45.02627" lon="5.64609">
        <ele>429.8</ele>
        <time>2013-04-14T15:50:55Z</time>
      </trkpt>
      <trkpt lat="45.0262" lon="5.64614">
        <ele>429.7</ele>
        <time>2013-04-14T15:50:57Z</time>
      </trkpt>
      <trkpt lat="45.02613" lon="5.64618">
        <ele>429.3</ele>
        <time>2013-04-14T15:50:59Z</time>
      </trkpt>
      <trkpt lat="45.02605" lon="5.64622">
        <ele>429.2</ele>
        <time>2013-04-14T15:51:01Z</time>
      </trkpt>
      <trkpt lat="45.02601" lon="5.64624">
        <ele>429.2</ele>
        <time>2013-04-14T15:51:02Z</time>
      </trkpt>
      <trkpt lat="45.02596" lon="5.64625">
        <ele>429.3</ele>
        <time>2013-04-14T15:51:03Z</time>
      </trkpt>
      <trkpt lat="45.0259" lon="5.64626">
        <ele>429.4</ele>
        <time>2013-04-14T15:51:04Z</time>
      </trkpt>
      <trkpt lat="45.02584" lon="5.64626">
        <ele>429.4</ele>
        <time>2013-04-14T15:51:05Z</time>
      </trkpt>
      <trkpt lat="45.02578" lon="5.64625">
        <ele>429.2</ele>
        <time>2013-04-14T15:51:06Z</time>
      </trkpt>
      <trkpt lat="45.02572" lon="5.64624">
        <ele>429</ele>
        <time>2013-04-14T15:51:07Z</time>
      </trkpt>
      <trkpt lat="45.02566" lon="5.64623">
        <ele>428.9</ele>
        <time>2013-04-14T15:51:08Z</time>
      </trkpt>
      <trkpt lat="45.0256" lon="5.64621">
        <ele>428.8</ele>
        <time>2013-04-14T15:51:09Z</time>
      </trkpt>
      <trkpt lat="45.02554" lon="5.64619">
        <ele>428.7</ele>
        <time>2013-04-14T15:51:10Z</time>
      </trkpt>
      <trkpt lat="45.02548" lon="5.64617">
        <ele>428.6</ele>
        <time>2013-04-14T15:51:11Z</time>
      </trkpt>
      <trkpt lat="45.02542" lon="5.64615">
        <ele>428.6</ele>
        <time>2013-04-14T15:51:12Z</time>
      </trkpt>
      <trkpt lat="45.02536" lon="5.64613">
        <ele>428.2</ele>
        <time>2013-04-14T15:51:13Z</time>
      </trkpt>
      <trkpt lat="45.02529" lon="5.6461">
        <ele>427.9</ele>
        <time>2013-04-14T15:51:14Z</time>
      </trkpt>
      <trkpt lat="45.02517" lon="5.64606">
        <ele>427.7</ele>
        <time>2013-04-14T15:51:16Z</time>
      </trkpt>
      <trkpt lat="45.0251" lon="5.64604">
        <ele>427.5</ele>
        <time>2013-04-14T15:51:17Z</time>
      </trkpt>
      <trkpt lat="45.02504" lon="5.64602">
        <ele>427.3</ele>
        <time>2013-04-14T15:51:18Z</time>
      </trkpt>
      <trkpt lat="45.02499" lon="5.646">
        <ele>426.7</ele>
        <time>2013-04-14T15:51:19Z</time>
      </trkpt>
      <trkpt lat="45.02494" lon="5.64598">
        <ele>426.2</ele>
        <time>2013-04-14T15:51:20Z</time>
      </trkpt>
      <trkpt lat="45.02489" lon="5.64595">
        <ele>425.8</ele>
        <time>2013-04-14T15:51:21Z</time>
      </trkpt>
      <trkpt lat="45.02484" lon="5.64592">
        <ele>426.2</ele>
        <time>2013-04-14T15:51:22Z</time>
      </trkpt>
      <trkpt lat="45.02479" lon="5.6459">
        <ele>426.5</ele>
        <time>2013-04-14T15:51:23Z</time>
      </trkpt>
      <trkpt lat="45.02474" lon="5.64588">
        <ele>426.8</ele>
        <time>2013-04-14T15:51:24Z</time>
      </trkpt>
      <trkpt lat="45.02469" lon="5.64586">
        <ele>426.9</ele>
        <time>2013-04-14T15:51:25Z</time>
      </trkpt>
      <trkpt lat="45.02464" lon="5.64584">
        <ele>427</ele>
        <time>2013-04-14T15:51:26Z</time>
      </trkpt>
      <trkpt lat="45.0246" lon="5.64583">
        <ele>427</ele>
        <time>2013-04-14T15:51:27Z</time>
      </trkpt>
      <trkpt lat="45.02455" lon="5.64581">
        <ele>427</ele>
        <time>2013-04-14T15:51:28Z</time>
      </trkpt>
      <trkpt lat="45.0245" lon="5.64579">
        <ele>426.9</ele>
        <time>2013-04-14T15:51:29Z</time>
      </trkpt>
      <trkpt lat="45.02445" lon="5.64578">
        <ele>426.9</ele>
        <time>2013-04-14T15:51:30Z</time>
      </trkpt>
      <trkpt lat="45.0244" lon="5.64577">
        <ele>426.9</ele>
        <time>2013-04-14T15:51:31Z</time>
      </trkpt>
      <trkpt lat="45.02435" lon="5.64576">
        <ele>427</ele>
        <time>2013-04-14T15:51:32Z</time>
      </trkpt>
      <trkpt lat="45.0243" lon="5.64575">
        <ele>427.1</ele>
        <time>2013-04-14T15:51:33Z</time>
      </trkpt>
      <trkpt lat="45.02426" lon="5.64574">
        <ele>427.2</ele>
        <time>2013-04-14T15:51:34Z</time>
      </trkpt>
      <trkpt lat="45.02421" lon="5.64572">
        <ele>427.2</ele>
        <time>2013-04-14T15:51:35Z</time>
      </trkpt>
      <trkpt lat="45.02416" lon="5.64572">
        <ele>427.3</ele>
        <time>2013-04-14T15:51:36Z</time>
      </trkpt>
      <trkpt lat="45.02411" lon="5.64571">
        <ele>427.3</ele>
        <time>2013-04-14T15:51:37Z</time>
      </trkpt>
      <trkpt lat="45.02406" lon="5.6457">
        <ele>427.7</ele>
        <time>2013-04-14T15:51:38Z</time>
      </trkpt>
      <trkpt lat="45.02401" lon="5.64569">
        <ele>427.9</ele>
        <time>2013-04-14T15:51:39Z</time>
      </trkpt>
      <trkpt lat="45.02395" lon="5.64568">
        <ele>428.1</ele>
        <time>2013-04-14T15:51:40Z</time>
      </trkpt>
      <trkpt lat="45.0239" lon="5.64567">
        <ele>428.1</ele>
        <time>2013-04-14T15:51:41Z</time>
      </trkpt>
      <trkpt lat="45.02386" lon="5.64566">
        <ele>428</ele>
        <time>2013-04-14T15:51:42Z</time>
      </trkpt>
      <trkpt lat="45.02377" lon="5.64564">
        <ele>428.1</ele>
        <time>2013-04-14T15:51:44Z</time>
      </trkpt>
      <trkpt lat="45.02368" lon="5.64562">
        <ele>428.2</ele>
        <time>2013-04-14T15:51:46Z</time>
      </trkpt>
      <trkpt lat="45.02361" lon="5.64559">
        <ele>428.8</ele>
        <time>2013-04-14T15:51:48Z</time>
      </trkpt>
      <trkpt lat="45.02353" lon="5.64556">
        <ele>429.5</ele>
        <time>2013-04-14T15:51:50Z</time>
      </trkpt>
      <trkpt lat="45.02346" lon="5.64554">
        <ele>429.5</ele>
        <time>2013-04-14T15:51:52Z</time>
      </trkpt>
      <trkpt lat="45.02339" lon="5.64551">
        <ele>429.9</ele>
        <time>2013-04-14T15:51:54Z</time>
      </trkpt>
      <trkpt lat="45.02333" lon="5.64549">
        <ele>430.2</ele>
        <time>2013-04-14T15:51:56Z</time>
      </trkpt>
      <trkpt lat="45.02326" lon="5.64545">
        <ele>429.9</ele>
        <time>2013-04-14T15:51:58Z</time>
      </trkpt>
      <trkpt lat="45.0232" lon="5.64542">
        <ele>430.1</ele>
        <time>2013-04-14T15:52:00Z</time>
      </trkpt>
      <trkpt lat="45.02312" lon="5.64538">
        <ele>430.5</ele>
        <time>2013-04-14T15:52:03Z</time>
      </trkpt>
      <trkpt lat="45.02305" lon="5.64533">
        <ele>431.1</ele>
        <time>2013-04-14T15:52:06Z</time>
      </trkpt>
      <trkpt lat="45.02299" lon="5.64528">
        <ele>431.5</ele>
        <time>2013-04-14T15:52:09Z</time>
      </trkpt>
      <trkpt lat="45.02291" lon="5.64521">
        <ele>432.8</ele>
        <time>2013-04-14T15:52:13Z</time>
      </trkpt>
      <trkpt lat="45.02286" lon="5.64512">
        <ele>433.8</ele>
        <time>2013-04-14T15:52:17Z</time>
      </trkpt>
      <trkpt lat="45.02283" lon="5.64507">
        <ele>435.3</ele>
        <time>2013-04-14T15:53:53Z</time>
      </trkpt>
      <trkpt lat="45.02283" lon="5.64507">
        <ele>435.3</ele>
        <time>2013-04-14T15:53:53Z</time>
      </trkpt>
    </trkseg>
  </trk>
</gpx>